     2              OBSERVATION DATA    GPS                 RINEX VERSION / TYPE
ASRINEXO V2.4.4 UX USGS 24-FEB-96 16:16                     PGM / RUN BY / DATE
                                                            COMMENT
Contact: kwendt@isdmnl.wr.usgs.gov (Ph: 415-329-4866)       COMMENT
Contact: kwendt@isdmnl.wr.usgs.gov (Ph: 415-329-4866)       COMMENT
Contact: kwendt@isdmnl.wr.usgs.gov (Ph: 415-329-4866)       COMMENT
Contact: kwendt@isdmnl.wr.usgs.gov (Ph: 415-329-4866)       COMMENT
Contact: kwendt@isdmnl.wr.usgs.gov (Ph: 415-329-4866)       COMMENT
Contact: kwendt@isdmnl.wr.usgs.gov (Ph: 415-329-4866)       COMMENT
Original Marker Name: jctn Junction_1950                    COMMENT
Campaign Name: USGS Yucca Profile                           COMMENT
4-Character Station Name: JCTN                              COMMENT
6-Character Antenna Code: ASHGD3                            COMMENT
Vertical Measurement Point: EGP                             COMMENT
Vertical Offset to Rinex Ref. Point: 0.0594                 COMMENT
Radial Measurement Point: EGP                               COMMENT
Radial Offset to Rinex Ref. Point: 0.1837                   COMMENT
Antenna Height from Field Measurement: 1.4430 m             COMMENT
Additional Antenna Identification Info.:                    COMMENT
The Whopper (700718AB)                                      COMMENT
Original XYZ: -2309064.4400 -4558873.8100 3805371.9700      COMMENT
New XYZ position is based on association with SCEC monument COMMENT
E1F4X3K1+0011. Position of that monument is believed to be  COMMENT
valid to within 1 m horizontally; vertical accuracy         COMMENT
should be no worse than 3-times this value.                 COMMENT
                                                            COMMENT
Revised Rinex header created by UCSD GPS archive for        COMMENT
GSAC on 10-Aug-2000 (2000:223) 01:23:47 GMT                 COMMENT
For assistance contact dagnew@ucsd.edu                      COMMENT
or anderson@python.ucsd.edu                                 COMMENT
                                                            COMMENT
JUNCTION 1950                                               MARKER NAME
CHS US GEOLOGICAL SURVEY                                    OBSERVER / AGENCY
143 ASHTECH Z-XII3 1F00                                     REC # / TYPE / VERS
11401 ASHTECH GEODETIC III                                  ANT # / TYPE
 -2289661.7757 -4609168.1193  3755819.4674                  APPROX POSITION XYZ
        1.3719        0.0000        0.0000                  ANTENNA: DELTA H/E/N
     1     1     0                                          WAVELENGTH FACT L1/2
     5    C1    L1    L2    P1    P2                        # / TYPES OF OBSERV
    30                                                      INTERVAL
  1996     2    12    16    51   30.000000                  TIME OF FIRST OBS
  1996     2    12    23    30    0.000000                  TIME OF LAST OBS
                                                            END OF HEADER
 96  2 12 16 51 30.0000000  0  1 14
  19042327.703        7116.48719
 96  2 12 16 52  0.0000000  0  7  4 18 29 25 22 14 15
  23548552.232
  21943506.149      -80954.40619    -49485.51059                  21943512.2034
  19892606.753      -32895.23219    -20935.98359                  19892612.3424
  22493012.599      105906.20219     66635.06459                  22493018.1074
  19928727.649       -1140.36719      -673.64159                  19928733.7884
  19045907.106       25930.23059     15566.36559  19045909.4584   19045915.3444
  23496949.596      118468.63519
 96  2 12 16 52 30.0000000  0  1 14
  20248747.327       45209.91449     30589.49449  20248747.9924   20248753.6844
 96  2 12 16 53  0.0000000  0  5 18 29 25 22 14
  23115095.034     -225902.21359   -162431.81249  23115094.1164   23115099.4914
  21080153.268      -93976.77659    -68531.97349  21080154.0364   21080158.7794
  23729238.031      300635.59759    218372.22149  23729239.0094   23729244.1514
  21127799.184       -1656.16259     -1075.52349  21127799.9164   21127805.5624
  20252505.993       64967.02559     45984.63459  20252507.6564   20252513.2304
 96  2 12 16 53 30.0000000  0  6  4 18 29 25 22 14
  24737996.372      -52200.06359    -38081.75259  24738000.1024   24738004.9294
  23101287.173     -298444.23359   -218958.04659  23101289.8614   23101295.7194
  21074360.093     -124423.00359    -92256.29959  21074360.5984   21074365.2004
  23747745.985      397902.86159    294164.86859  23747748.3614   23747753.7944
  21127894.928       -1150.87659      -681.77959  21127895.9854   21127901.5434
  20256356.216       85199.93049     61750.52449  20256357.7424   20256363.6614
 96  2 12 16 54  0.0000000  0  6  4 18 29 25 22 14
  24734921.983      -68372.76459    -50683.86259  24734921.2624   24734927.7964
  23087483.703     -370990.45349   -275487.54049  23087484.5044   23087490.1264
  21068582.949     -154773.30749   -115905.86749  21068584.9624   21068589.6984
  23766248.988      495128.36749    369924.98449  23766249.6224   23766254.7084
  21128093.685        -108.54149       130.44949  21128094.1294   21128099.8344
  20260298.217      105912.71749     77890.35649  20260299.5964   20260305.5294
 96  2 12 16 54 30.0000000  0  6  4 18 29 25 22 14
  24731924.212      -84112.07149    -62948.27949  24731926.2694   24731932.8544
  23073676.578     -443549.23849   -332026.83649  23073677.5754   23073683.5554
  21062827.762     -185020.53349   -139475.13149  21062829.4324   21062834.1884
  23784742.823      592313.06649    445653.29649  23784744.4324   23784749.1914
  21128391.265        1454.62149      1348.50749  21128391.7744   21128397.3344
  20264326.911      127083.35349     94386.94849  20264327.9254   20264333.8824
 96  2 12 16 55  0.0000000  0  6  4 18 29 25 22 14
  24729013.004      -99409.41649    -74868.28849  24729015.9734   24729022.2794
  23059866.997     -516114.18649   -388570.92049  23059868.4934   23059875.0064
  21057092.475     -215158.60249   -162959.33149  21057094.0204   21057098.8224
  23803232.043      689475.85949    521364.52949  23803233.8494   23803239.3434
  21128788.652        3541.96649      2975.02349  21128789.2764   21128794.3984
  20268444.682      148720.96749    111247.42249  20268445.6614   20268451.4304
 96  2 12 16 55 30.0000000  0  6  4 18 29 25 22 14
  24726185.848     -114262.40249    -86442.06249  24726189.1474   24726195.3574
  23046059.072     -588676.70649   -445113.12649  23046059.9454   23046065.7614
  21051380.496     -245176.47549   -186349.87549  21051381.8474   21051386.6014
  23821720.271      786630.08449    597069.10449  23821722.2184   23821726.2764
  21129289.918        6177.42149      5028.64149  21129290.4874   21129295.9684
  20272651.887      170833.15249    128477.69149  20272653.4364   20272659.1894
 96  2 12 16 56  0.0000000  0  6  4 18 29 25 22 14
  24723443.302     -128686.46249    -97681.60349  24723445.3344   24723451.0874
  23032252.089     -661236.85649   -501653.47449  23032252.5274   23032258.3174
  21045690.006     -275078.44149   -209650.10149  21045691.8934   21045696.4634
  23840207.088      883780.25049    672770.51749  23840208.7064   23840214.0334
  21129896.778        9366.89649      7513.95449  21129897.5074   21129903.0824
  20276950.878      193424.83349    146081.59049  20276952.3884   20276958.3444
 96  2 12 16 56 30.0000000  0  6  4 18 29 25 22 14
  24720776.616     -142706.75849   -108606.52049  24720775.5044   24720783.3224
  23018439.853     -733818.52549   -558210.58849  23018440.4554   23018446.9534
  21040018.610     -304882.89449   -232874.34349  21040020.2464   21040024.9454
  23858690.157      980906.81949    748453.53249  23858691.4394   23858696.2264
  21130604.655       13088.11649     10413.61249  21130605.8064   21130611.1134
  20281339.380      216485.10549    164050.62649  20281340.7944   20281346.7404
 96  2 12 16 57  0.0000000  0  6  4 18 29 25 22 14
  24718185.935     -156314.01649   -119209.58549  24718187.2404   24718193.7584
  23004622.054     -806429.91749   -614790.87449  23004622.9174   23004628.4354
  21034364.859     -334592.92149   -256025.00949  21034366.8714   21034371.2164
  23877166.586     1078002.80049    824112.71449  23877168.2964   23877173.0594
  21131415.628       17348.11949     13733.09949  21131416.4884   21131421.7414
  20285818.007      240021.96049    182391.02149  20285819.8424   20285825.6694
 96  2 12 16 57 30.0000000  0  6  4 18 29 25 22 14
  24715677.400     -169485.19349   -129472.84149  24715681.5864   24715687.7534
  22990801.426     -879059.68949   -671385.47449  22990802.5504   22990807.3534
  21028731.118     -364198.70949   -279094.44749  21028732.8884   21028737.6224
  23895636.282     1175066.64349    899746.87749  23895638.5584   23895644.2854
  21132332.550       22166.23049     17487.47849  21132333.4114   21132338.7824
  20290391.759      264055.19449    201118.21449  20290393.0564   20290398.8274
 96  2 12 16 58  0.0000000  0  6  4 18 29 25 22 14
  24713253.907     -182223.82349   -139399.05549  24713256.8904   24713263.2174
  22976970.341     -951738.48949   -728018.28549  22976971.3954   22976977.4914
  21023113.141     -393720.75249   -302098.63949  21023114.8804   21023119.6204
  23914096.744     1272074.22549    975337.17149  23914099.0734   23914103.2544
  21133350.288       27516.90749     21656.83349  21133351.4004   21133356.8194
  20295057.389      288578.18649    220227.03049  20295059.3914   20295065.7264
 96  2 12 16 58 30.0000000  0  6  4 18 29 25 22 14
  24710918.335     -194512.08749   -148974.33049  24710919.5164   24710924.7264
  22963133.674    -1024453.44249   -784679.25849  22963134.5564   22963140.4754
  21017513.779     -423144.35849   -325026.11849  21017515.9294   21017520.6144
  23932545.491     1369024.01649   1050882.45149  23932547.4974   23932552.0704
  21134470.987       33405.99949     26245.73449  21134472.0114   21134477.6294
  20299822.492      313613.62149    239735.14949  20299824.0104   20299829.6704
 96  2 12 16 59  0.0000000  0  7 19  4 18 29 25 22 14
  24659216.354    -1076720.74359   -825386.12059  24659216.8684   24659225.3554
  24708669.202     -206320.98449   -158176.08349  24708671.5704   24708677.0784
  22949296.566    -1097169.36349   -841340.98849  22949297.1854   22949303.2174
  21011936.692     -452453.18449   -347864.16549  21011938.7434   21011943.2524
  23950988.160     1465936.31249   1126398.50949  23950989.5374   23950994.7684
  21135700.311       39859.60149     31274.51049  21135700.5014   21135705.5304
  20304691.810      339203.86649    259675.58749  20304693.6384   20304699.1974
 96  2 12 16 59 30.0000000  0  7 19  4 18 29 25 22 14
  24643147.967    -1161155.65249   -891179.54449  24643149.5854   24643156.7754
  24706512.293     -217654.96549   -167007.75949  24706514.9674   24706520.2734
  22935460.794    -1169873.92249   -897993.87249  22935461.6354   22935467.1114
  21006381.459     -481646.23149   -370611.98849  21006383.5134   21006388.0814
  23969421.901     1562807.49849   1201882.54249  23969423.1904   23969428.3634
  21137036.297       46884.23649     36748.25049  21137037.1874   21137042.3454
  20309666.069      365345.54349    280045.71649  20309668.1134   20309674.0714
 96  2 12 17  0  0.0000000  0  7 19  4 18 29 25 22 14
  24627088.811    -1245542.71449   -956935.67949  24627090.0474   24627098.0984
  24704443.777     -228526.73049   -175479.26749  24704445.8324   24704451.5834
  22921628.056    -1242564.97549   -954636.22549  22921629.8704   22921635.4694
  21000849.252     -510717.95449   -393265.27749  21000851.3534   21000856.1184
  23987850.544     1659647.24949   1277342.07349  23987851.3254   23987856.6174
  21138482.484       54486.27649     42671.91449  21138483.8894   21138489.0394
  20314746.795      392043.15749    300849.03949  20314748.4434   20314754.4554
 96  2 12 17  0 30.0000000  0  7 19  4 18 29 25 22 14
  24611043.712    -1329866.26949  -1022642.34349  24611044.3284   24611051.5054
  24702459.493     -238955.33749   -183605.47049  24702460.9024   24702467.5534
  22907801.633    -1315224.18149  -1011253.76449  22907802.9044   22907808.8934
  20995342.811     -539654.83349   -415813.49249  20995344.6394   20995349.4364
  24006273.401     1756463.63449   1352783.40349  24006274.9994   24006280.1154
  21140040.363       62672.43849     49050.73749  21140041.4654   21140047.0214
  20319931.824      419291.11249    322081.20349  20319933.5274   20319939.3364
 96  2 12 17  1  0.0000000  0  7 19  4 18 29 25 22 14
  24595011.338    -1414125.56549  -1088298.89449  24595011.5974   24595017.6804
  24700558.715     -248954.47849   -191397.01349  24700558.4914   24700565.3084
  22893978.581    -1387867.47049  -1067858.90449  22893979.5314   22893985.6804
  20989859.847     -568467.23049   -438264.71349  20989861.8704   20989866.5814
  24024689.007     1853244.91749   1428197.36749  24024692.5014   24024696.3734
  21141708.208       71436.26549     55879.69249  21141709.1934   21141714.8334
  20325214.444      447052.40249    343713.36249  20325216.4084   20325222.2894
 96  2 12 17  1 30.0000000  0  7 19  4 18 29 25 22 14
  24578989.086    -1498307.88849  -1153895.47149  24578991.3004   24578999.3264
  24698735.275     -258527.39549   -198856.43449  24698735.8074   24698742.6114
  22880157.282    -1460497.41149  -1124453.65449  22880158.8684   22880164.1394
  20984402.121     -597148.12349   -460613.46849  20984404.2844   20984408.8834
  24043101.989     1949995.38049   1503587.31549  24043103.0764   24043108.1944
  21143485.826       80776.42549     63157.73849  21143486.8294   21143492.1334
  20330590.522      475302.62949    365726.51049  20330592.3364   20330597.9974
 96  2 12 17  2  0.0000000  0  7 19  4 18 29 25 22 14
  24562983.398    -1582421.29349  -1219438.34949  24562984.8834   24562992.8144
  24696994.549     -267686.21149   -205993.18849  24696993.7264   24697000.4264
  22866338.739    -1533115.70849  -1181039.31749  22866339.5604   22866345.4674
  20978969.207     -625698.55649   -482860.55749  20978971.1944   20978975.8574
  24061505.200     2046709.62949   1578949.06449  24061506.1534   24061511.6684
  21145368.673       90670.20249     70867.17549  21145369.3854   21145374.9504
  20336057.202      504030.56149    388111.90149  20336059.0534   20336065.0894
 96  2 12 17  2 30.0000000  0  7 19  4 18 29 25 22 14
  24546992.630    -1666455.83349  -1284919.75849  24546993.8704   24547001.8344
  24695331.835     -276407.54349   -212789.03149  24695335.7524   24695340.9764
  22852523.989    -1605708.10849  -1237604.80049  22852525.7084   22852530.8194
  20973563.612     -654106.09349   -504996.30549  20973565.4794   20973570.2524
  24079904.539     2143397.55449   1654290.29849  24079906.0824   24079911.1214
  21147355.891      101115.82349     79006.62249  21147357.0484   21147362.4184
  20341611.438      533218.74249    410855.92649  20341613.5894   20341619.2244
 96  2 12 17  3  0.0000000  0  7 19  4 18 29 25 22 14
  24531016.953    -1750403.93749  -1350333.84549  24531019.0764   24531027.2184
  24693759.671     -284662.45649   -219221.43849  24693764.8454   24693768.8014
  22838716.092    -1678268.01949  -1294144.96849  22838717.4894   22838723.4454
  20968185.982     -682364.25649   -527015.65449  20968188.3164   20968192.6064
  24098299.742     2240070.40049   1729619.77349  24098302.5544   24098307.5314
  21149451.392      112128.03949     87587.56949  21149452.5934   21149457.8164
  20347254.797      562873.29849    433963.35649  20347256.6204   20347262.4704
 96  2 12 17  3 30.0000000  0  7 19  4 18 29 25 22 14
  24515059.725    -1834260.71449  -1415676.75949  24515061.5784   24515069.8334
  24692277.065     -292452.86049   -225291.89749  24692280.6014   24692286.3464
  22824915.526    -1750791.27649  -1350656.57949  22824917.1244   22824923.0414
  20962838.115     -710468.05049   -548914.71349  20962840.3484   20962844.8854
  24116695.072     2336733.48449   1804941.63449  24116698.1424   24116702.3164
  21151654.639      123706.92649     96610.08749  21151655.9674   21151661.3444
  20352990.040      593012.48349    457448.41449  20352991.9124   20352997.5024
 96  2 12 17  4  0.0000000  0  7 19  4 18 29 25 22 14
  24499119.463    -1918030.35349  -1480951.78549  24499120.6154   24499128.7114
  24690886.514     -299792.26849   -231010.91749  24690884.8254   24690890.8094
  22811117.574    -1823301.21249  -1407157.79949  22811118.2514   22811124.3954
  20957516.947     -738432.15449   -570704.92649  20957518.8114   20957523.5134
  24135086.303     2433379.24849   1880250.01949  24135088.4944   24135092.2224
  21153964.472      135843.30049    106067.01849  21153965.6534   21153971.1054
  20358819.445      623648.64949    481320.73249  20358821.7324   20358827.4694
 96  2 12 17  4 30.0000000  0  7 19  4 18 29 25 22 14
  24483195.501    -2001706.78549  -1546154.19749  24483197.4404   24483204.9954
  24689573.825     -306679.11149   -236377.29349  24689573.4254   24689579.8484
  22797320.275    -1895803.10949  -1463652.76349  22797321.6934   22797327.9784
  20952220.376     -766262.71049   -592391.07649  20952222.9014   20952227.4764
  24153472.656     2530000.54149   1955539.30449  24153474.5224   24153479.4294
  21156382.433      148549.59749    115968.03149  21156383.4264   21156388.9914
  20364747.102      654797.05449    505592.19849  20364749.2164   20364755.1624
 96  2 12 17  5  0.0000000  0  7 19  4 18 29 25 22 14
  24467292.487    -2085280.83349  -1611276.84149  24467293.9804   24467301.7294
  24688340.507     -313119.71549   -241395.96249  24688348.2994   24688354.9554
  22783526.308    -1968295.47449  -1520140.30149  22783527.9304   22783533.7544
  20946950.218     -793961.63249   -613974.65449  20946952.0454   20946956.3634
  24171850.787     2626579.38449   2030795.54049  24171852.9214   24171857.4044
  21158908.233      161824.09449    126311.80849  21158909.5854   21158914.9854
  20370777.557      686488.19149    530286.57449  20370779.9294   20370785.3814
 96  2 12 17  5 30.0000000  0  7 19  4 18 29 25 22 14
  24451404.748    -2168765.80949  -1676330.05249  24451407.4894   24451414.7294
  24687204.297     -319122.22249   -246073.25549  24687206.5724   24687211.9984
  22769732.200    -2040783.79149  -1576624.68549  22769733.0214   22769738.9764
  20941702.056     -821541.41649   -635465.39949  20941703.8824   20941708.1074
  24190217.212     2723095.56649   2106002.92549  24190219.6254   24190224.7974
  21161540.007      175653.51849    137088.00649  21161541.2454   21161546.7944
  20376911.470      718721.35849    555403.31249  20376913.4864   20376919.3234
 96  2 12 17  6  0.0000000  0  7 19  4 18 29 25 22 14
  24435535.356    -2252161.75749  -1741313.89749  24435537.3614   24435545.9044
  24686145.655     -324681.71949   -250405.33349  24686148.8994   24686154.4514
  22755939.066    -2113262.55749  -1633101.62749  22755940.7764   22755946.7314
  20936475.632     -849002.95349   -656864.00249  20936478.1504   20936482.4934
  24208571.842     2819546.07849   2181159.16149  24208573.9844   24208577.9884
  21164277.853      190039.48449    148297.87349  21164278.8394   21164284.1644
  20383146.417      751482.98349    580931.83849  20383147.8734   20383153.7324
 96  2 12 17  6 30.0000000  0  7 19  4 18 29 25 22 14
  24419684.836    -2335462.41349  -1806223.49249  24419686.1584   24419692.9764
  24685176.210     -329787.77649   -254384.08749  24685177.0824   24685183.4414
  22742152.744    -2185716.31449  -1689559.08249  22742153.7064   22742159.2284
  20931275.436     -876333.46249   -678160.50849  20931277.3124   20931281.6314
  24226912.664     2915931.20449   2256264.39549  24226914.6074   24226919.2184
  21167121.089      204982.93249    159942.14049  21167122.5754   21167127.9674
  20389476.544      784751.62549    606855.43849  20389478.7944   20389484.3654
 96  2 12 17  7  0.0000000  0  7 19  4 18 29 25 22 14
  24403850.269    -2418660.06949  -1871052.81949  24403854.1054   24403861.6384
  24684293.382     -334430.43149   -258001.74149  24684294.1924   24684299.9164
  22728369.023    -2258151.00449  -1746001.68449  22728370.0634   22728374.9584
  20926099.703     -903530.51049   -699353.01449  20926101.8874   20926106.2604
  24245243.755     3012260.94549   2331326.53649  24245245.6044   24245251.5304
  21170070.885      220480.54149    172018.22349  21170071.4894   21170076.9934
  20395901.702      818515.91649    633165.25349  20395903.7494   20395909.6174
 96  2 12 17  7 30.0000000  0  7 19  4 18 29 25 22 14
  24388032.466    -2501790.09649  -1935829.44149  24388035.7784   24388042.4954
  24683492.484     -338639.54149   -261281.59049  24683493.0204   24683498.0984
  22714581.445    -2330599.66649  -1802455.16849  22714583.6394   22714589.1894
  20920944.263     -930620.43649   -720462.04949  20920946.8784   20920951.3194
  24263561.152     3108521.33049   2406334.59049  24263562.6954   24263568.4334
  21173120.901      236511.18449    184509.65549  21173121.9764   21173127.3974
  20402414.148      852737.15249    659831.12949  20402416.1334   20402422.0094
 96  2 12 17  8  0.0000000  0  7 19  4 18 29 25 22 14
  24372234.833    -2584817.51149  -2000526.13049  24372235.9494   24372242.6474
  24682775.502     -342388.10949   -264202.56249  24682778.9164   24682785.1674
  22700797.725    -2403036.01049  -1858899.05949  22700798.9604   22700804.6834
  20915818.144     -957560.41349   -741454.24149  20915820.4724   20915824.6384
  24281873.260     3204745.65849   2481314.57849  24281873.8264   24281877.4804
  21176278.544      253106.40249    197441.01649  21176280.1674   21176285.2794
  20409020.425      887451.17149    686880.99749  20409022.2334   20409027.5974
 96  2 12 17  8 30.0000000  0  7 19  4 18 29 25 22 14
  24356449.778    -2667756.51549  -2065153.92049  24356452.4254   24356460.0454
  24682150.705     -345676.85649   -266765.24749  24682152.2794   24682159.1264
  22687013.913    -2475468.59949  -1915340.02349  22687015.3734   22687021.2874
  20910719.280     -984353.97249   -762332.34649  20910721.7134   20910726.1824
  24300175.367     3300926.99549   2556261.04949  24300177.3564   24300182.6434
  21179545.270      270268.40049    210814.01949  21179545.9174   21179551.0784
  20415723.280      922675.18749    714328.26449  20415724.9564   20415730.5174
 96  2 12 17  9  0.0000000  0  7 19  4 18 29 25 22 14
  24340681.476    -2750622.01249  -2129724.42449  24340683.1274   24340690.6704
  24681611.076     -348509.17349   -268972.24749  24681614.5504   24681620.2444
  22673232.146    -2547889.68549  -1971772.02949  22673233.8114   22673239.5104
  20905648.441    -1011001.44949   -783096.61049  20905650.7434   20905655.3184
  24318468.415     3397058.49649   2631168.71749  24318470.9054   24318475.6904
  21182919.774      288006.67749    224636.07549  21182921.3174   21182926.5204
  20422525.326      958424.23649    742184.64849  20422527.5204   20422532.9214
 96  2 12 17  9 30.0000000  0  7 19  4 18 29 25 22 14
  24324927.357    -2833414.31549  -2194237.89349  24324928.8344   24324936.5404
  24681160.632     -350893.04149   -270829.81949  24681160.6864   24681166.8004
  22659456.541    -2620282.06849  -2028181.66749  22659458.5204   22659463.8144
  20900605.897    -1037499.44649   -803744.39749  20900608.3904   20900612.9734
  24336752.123     3493141.15949   2706038.28249  24336755.2944   24336758.7954
  21186404.947      306320.93349    238906.93449  21186406.4804   21186411.8774
  20429430.501      994707.99049    770457.68549  20429432.1384   20429438.1234
 96  2 12 17 10  0.0000000  0  7 19  4 18 29 25 22 14
  24309186.040    -2916130.48749  -2258692.01649  24309188.4774   24309196.3444
  24680793.962     -352829.57449   -272338.81149  24680792.6864   24680798.7974
  22645690.251    -2692627.98949  -2084555.09249  22645691.7474   22645696.8854
  20895595.288    -1063833.46749   -824264.41449  20895597.2954   20895601.7824
  24355028.396     3589183.13449   2780876.17249  24355030.7834   24355034.9494
  21190000.537      325213.32549    253628.29349  21190001.5984   21190006.6494
  20436437.920     1031532.73849    799152.27549  20436439.9804   20436445.5504
 96  2 12 17 10 30.0000000  0  7 19  4 18 29 25 22 14
  24293461.728    -2998762.74849  -2323080.77049  24293464.7734   24293472.2654
  24680506.266     -354318.53749   -273499.05149  24680509.0184   24680514.6964
  22631934.124    -2764912.39749  -2140880.59549  22631936.0734   22631942.0544
  20890613.985    -1090009.29849   -844661.17249  20890616.4084   20890620.7604
  24373302.170     3685205.09849   2855698.45649  24373303.2054   24373308.6904
  21193705.626      344684.31249    268800.49849  21193706.6874   21193711.9594
  20443548.200     1068896.62549    828266.97349  20443549.9434   20443555.9874
 96  2 12 17 11  0.0000000  0  7 19  4 18 29 25 22 14
  24277754.033    -3081310.90649  -2387403.97449  24277756.2434   24277763.2854
  24680301.514     -355374.13249   -274321.61349  24680308.1934   24680314.3924
  22618189.911    -2837139.51549  -2197161.44549  22618191.7964   22618197.0064
  20885661.471    -1116033.88349   -864940.06949  20885663.8794   20885668.7184
  24391567.835     3781200.56649   2930500.05849  24391570.7724   24391575.7224
  21197515.664      364708.69949    284403.91749  21197517.0594   21197522.3694
  20450756.910     1106783.46849    857789.17249  20450759.3564   20450765.1904
 96  2 12 17 11 30.0000000  0  7 19  4 18 29 25 22 14
  24262063.380    -3163765.05349  -2451653.91649  24262066.1714   24262073.0904
  24680188.390     -355988.14849   -274800.08349  24680191.8364   24680197.7954
  22604455.757    -2909312.99049  -2253400.50049  22604457.8064   22604463.3404
  20880739.986    -1141896.54649   -885092.79149  20880742.4254   20880747.1414
  24409833.572     3877184.29549   3005292.56149  24409835.7474   24409840.1454
  21201431.729      385285.62349    300437.88349  21201432.9444   21201438.2254
  20458068.483     1145202.64049    887726.16949  20458070.6114   20458076.1044
 96  2 12 17 12  0.0000000  0  7 19  4 18 29 25 22 14
  24246389.696    -3246124.55349  -2515830.10949  24246392.4754   24246400.7134
  24680163.971     -356138.57349   -274917.31549  24680162.4924   24680168.4044
  22590734.252    -2981423.95949  -2309590.84649  22590735.3324   22590741.1734
  20875853.720    -1167576.66749   -905103.27249  20875855.6844   20875860.4204
  24428095.848     3973155.51349   3080075.28049  24428098.2964   24428103.2194
  21205455.801      406430.76449    316914.61749  21205456.6934   21205462.0064
  20465480.055     1184147.05649    918072.44649  20465481.6914   20465486.8374
 96  2 12 17 12 30.0000000  0  7 19  4 18 29 25 22 14
  24230737.869    -3328383.16849  -2579927.67549  24230739.4424   24230746.2674
  24680217.888     -355826.95149   -274674.49349  24680221.7284   24680228.0254
  22577019.148    -3053496.73449  -2365751.43949  22577020.4014   22577026.1694
  20870997.860    -1193091.73549   -924985.14249  20871000.3364   20871005.2184
  24446353.871     4069097.88849   3154835.52449  24446356.0754   24446361.1114
  21209586.958      428140.65049    333831.41149  21209588.0754   21209593.0994
  20472988.797     1223609.13349    948822.09749  20472991.0614   20472996.4924
 96  2 12 17 13  0.0000000  0  7 19  4 18 29 25 22 14
  24215105.883    -3410526.99349  -2643935.81949  24215107.9664   24215115.3144
  24680373.500     -355043.05049   -274063.67749  24680372.1314   24680377.4434
  22563311.784    -3125528.46149  -2421880.03849  22563313.5214   22563318.8024
  20866179.665    -1218413.18249   -944716.13749  20866181.9404   20866186.5544
  24464603.668     4165000.21249   3229564.57149  24464605.4244   24464610.3884
  21213829.120      450434.24349    351203.04749  21213830.2164   21213835.2194
  20480599.329     1263605.02049    979987.71349  20480601.4654   20480607.8154
 96  2 12 17 13 30.0000000  0  7 19  4 18 29 25 22 14
  24199496.439    -3492551.26349  -2707850.82049  24199498.8174   24199505.9834
  24680603.112     -353786.04649   -273084.20849  24680610.6494   24680616.9154
  22549612.174    -3197521.62749  -2477978.58549  22549613.8664   22549619.3884
  20861398.111    -1243541.70449   -964296.80149  20861400.0944   20861404.7464
  24482843.885     4260852.89749   3304254.92349  24482845.8174   24482850.2054
  21218184.099      473321.94849    369037.62549  21218185.4544   21218190.7354
  20488309.829     1304121.12449   1011558.69249  20488311.7574   20488317.6014
 96  2 12 17 14  0.0000000  0  7 19  4 18 29 25 22 14
  24183914.940    -3574440.43149  -2771660.53249  24183916.3434   24183923.0504
  24680936.609     -352064.37849   -271742.66349  24680938.5704   24680943.8354
  22535920.201    -3269472.70649  -2534044.33949  22535921.5604   22535927.0124
  20856649.009    -1268496.07749   -983741.76349  20856651.5004   20856655.8314
  24501070.688     4356635.76649   3378890.87649  24501072.5584   24501078.3064
  21222650.985      496795.75749    387328.90849  21222652.4174   21222657.8764
  20496116.404     1345146.23949   1043526.30049  20496118.9534   20496124.2144
 96  2 12 17 14 30.0000000  0  7 19  4 18 29 25 22 14
  24168361.880    -3656159.63949  -2835337.82049  24168365.7944   24168372.2364
  24681350.217     -349859.23649   -270024.38149  24681358.0664   24681364.5374
  22522238.820    -3341367.70049  -2590066.39349  22522240.3104   22522246.4064
  20851935.816    -1293265.08049  -1003042.28549  20851937.8194   20851942.3824
  24519288.318     4452376.06549   3453493.63849  24519291.3964   24519296.5154
  21227231.201      520862.90749    406082.53049  21227232.3934   21227237.5234
  20504027.107     1386716.46249   1075918.65949  20504029.0984   20504034.2694
 96  2 12 17 15  0.0000000  0  7 19  4 18 29 25 22 14
  24152842.005    -3737728.56349  -2898898.01549  24152844.5964   24152850.2914
  24681865.308     -347177.70849   -267934.87849  24681868.7874   24681874.3774
  22508570.163    -3413195.58349  -2646036.15249  22508572.3104   22508577.5594
  20847254.503    -1317865.30749  -1022211.29249  20847256.5314   20847261.2084
  24537497.497     4548058.95349   3528051.68249  24537499.2464   24537504.4084
  21231919.662      545498.46349    425279.06649  21231920.6204   21231925.5524
  20512038.111     1428814.38749   1108722.21549  20512040.0334   20512045.6034
 96  2 12 17 15 30.0000000  0  7 19  4 18 29 25 22 14
  24137349.902    -3819139.50949  -2962335.08649  24137352.6484   24137357.9764
  24682469.961     -344005.70749   -265463.20949  24682471.3284   24682477.5214
  22494920.683    -3484925.68449  -2701929.72449  22494922.3104   22494927.8614
  20842604.943    -1342297.48749  -1041249.35149  20842607.5964   20842612.0034
  24555698.025     4643706.83949   3602582.45049  24555700.8824   24555705.0124
  21236715.025      570702.33649    444918.44849  21236716.6314   21236721.8304
  20520149.465     1471438.77549   1141936.00849  20520151.4074   20520157.3704
 96  2 12 17 16  0.0000000  0  7 19  4 18 29 25 22 14
  24121884.956    -3900405.98649  -3025659.59249  24121887.3684   24121893.0734
  24683160.089     -340360.81849   -262623.05649  24683166.1184   24683171.9114
  22481288.861    -3556562.64149  -2757750.71449  22481290.1204   22481295.6744
  20837988.088    -1366560.55949  -1060155.64249  20837990.0784   20837994.8384
  24573891.559     4739321.18349   3677087.08649  24573894.8454   24573900.9744
  21241617.647      596464.41949    464992.79649  21241618.9204   21241624.1634
  20528361.453     1514593.14149   1175562.76249  20528363.4904   20528369.0344
 96  2 12 17 16 30.0000000  0  7 19  4 18 29 25 22 14
  24106444.966    -3981536.07049  -3088877.77249  24106448.6134   24106455.6114
  24683948.099     -336244.06749   -259415.22449  24683949.2114   24683954.7714
  22467674.852    -3628099.04649  -2813493.35149  22467677.1324   22467682.7874
  20833406.256    -1390637.84849  -1078917.16749  20833408.3484   20833412.8294
  24592082.852     4834917.36949   3751577.53949  24592086.0874   24592091.4824
  21246629.087      622800.94449    485514.76349  21246630.5734   21246635.6744
  20536676.360     1558290.44449   1209612.59349  20536678.8284   20536684.5384
 96  2 12 17 17  0.0000000  0  7 19  4 18 29 25 22 14
  24091034.665    -4062533.28249  -3151992.44049  24091035.6454   24091041.9064
  24684813.988     -331675.06649   -255854.98249  24684818.9824   24684824.9454
  22454084.180    -3699524.53549  -2869149.55949  22454085.1404   22454090.9544
  20828860.259    -1414526.03549  -1097531.33849  20828862.6444   20828867.3804
  24610269.534     4930480.42449   3826042.24949  24610271.1524   24610276.1404
  21251753.120      649725.26149    506494.74449  21251754.1404   21251759.0984
  20545092.843     1602514.09449   1244072.56349  20545094.5194   20545099.5194
 96  2 12 17 17 30.0000000  0  7 19  4 18 29 25 22 14
  24075646.222    -4143392.80649  -3214999.82349  24075648.2684   24075655.3514
  24685774.385     -326659.30549   -251946.61549  24685772.4894   24685779.3384
  22440508.853    -3770859.39849  -2924735.16349  22440510.7524   22440516.2664
  20824352.923    -1438212.21949  -1115988.10449  20824355.4654   20824359.9254
  24628445.337     5025997.93249   3900471.41149  24628448.0904   24628453.2184
  21256991.122      677250.77049    527943.18949  21256992.2584   21256997.1264
  20553607.252     1647260.09549   1278939.55349  20553609.4334   20553614.6414
 96  2 12 17 18  0.0000000  0  7 19  4 18 29 25 22 14
  24060282.600    -4224121.18349  -3277904.99349  24060287.0584   24060292.8364
  24686810.864     -321204.98449   -247696.51149  24686810.2954   24686816.9624
  22426945.262    -3842133.43949  -2980273.35449  22426947.2054   22426952.9494
  20819882.270    -1461704.64249  -1134293.88849  20819885.1504   20819889.5124
  24646611.264     5121457.39349   3974855.38749  24646613.0214   24646618.5394
  21262342.054      705372.31249    549856.07049  21262343.4944   21262348.6954
  20562220.802     1692523.65849   1314209.84049  20562222.9754   20562228.2284
 96  2 12 17 18 30.0000000  0  7 19  4 18 29 25 22 14
  24044947.758    -4304720.66249  -3340709.71549  24044948.5774   24044955.8064
  24687930.423     -315302.68149   -243097.34249  24687934.0854   24687940.0034
  22413393.985    -3913353.86849  -3035769.78549  22413395.6324   22413400.6794
  20815446.622    -1485015.77849  -1152458.41349  20815449.1364   20815453.5764
  24664763.967     5216852.52949   4049189.22149  24664765.9594   24664771.9814
  21267804.356      734078.07849    572224.18649  21267805.9494   21267811.0394
  20570928.853     1738286.44649   1349869.13649  20570930.8864   20570936.9374
 96  2 12 17 19  0.0000000  0  7 19  4 18 29 25 22 14
  24029634.785    -4385186.06449  -3403409.97249  24029636.4514   24029643.2914
  24689144.171     -308936.81449   -238136.94349  24689145.4304   24689151.3124
  22399848.926    -3984532.53949  -3091233.66949  22399849.9764   22399855.5064
  20811047.153    -1508133.37849  -1170472.13049  20811049.8114   20811054.5594
  24682903.364     5312178.33149   4123469.03349  24682906.0594   24682912.4304
  21273377.700      763363.76449    595044.18749  21273378.9854   21273384.1114
  20579730.500     1784540.91149   1385911.55749  20579732.7374   20579738.6674
 96  2 12 17 19 30.0000000  0  7 19  4 18 29 25 22 14
  24014345.665    -4465526.43349  -3466012.79149  24014348.6094   24014355.6594
  24690448.164     -302081.92649   -232795.50349  24690450.2724   24690456.1794
  22386310.249    -4055676.52549  -3146670.53649  22386311.8194   22386317.2534
  20806686.723    -1531048.91449  -1188328.38849  20806689.1234   20806693.8224
  24701034.747     5407458.10849   4197713.02049  24701037.4324   24701042.4854
  21279060.321      793225.20849    618312.83349  21279061.6654   21279066.5374
  20588630.801     1831309.40449   1422354.51949  20588632.8544   20588638.1514
 96  2 12 17 20  0.0000000  0  6 19  4 18 29 22 14
  23999079.536    -4545751.91149  -3528526.10349  23999081.6594   23999088.3844
  24691842.036     -294745.61849   -227078.90349  24691844.9254   24691852.0794
  22372779.161    -4126778.84349  -3202074.93149  22372781.4914   22372787.3674
  20802363.016    -1553774.85549  -1206036.91649  20802364.6344   20802369.3414
  21284849.012      823645.05449    642016.59549  21284850.1374   21284855.2264
  20597628.012     1878591.16749   1459197.42549  20597630.2404   20597635.5714
 96  2 12 17 20 30.0000000  0  6 19  4 18 29 22 14
  23983837.823    -4625846.16249  -3590937.13549  23983839.7964   23983847.3274
  24693334.111     -286919.98149   -220981.03649  24693335.3804   24693342.2814
  22359262.450    -4197810.21449  -3257424.04149  22359264.4804   22359269.9134
  20798077.156    -1576293.64749  -1223584.03149  20798079.3574   20798084.0924
  21290746.195      854634.84649    666164.46849  21290747.2454   21290752.4014
  20606726.191     1926402.37449   1496452.88549  20606728.2064   20606733.7074
 96  2 12 17 21  0.0000000  0  6 19  4 18 29 22 14
  23968620.082    -4705814.22649  -3653249.87749  23968622.6354   23968629.0954
  24694915.837     -278603.37549   -214500.58449  24694917.9374   24694924.1124
  22345762.608    -4268756.02449  -3312706.48149  22345764.1974   22345769.5414
  20793831.352    -1598602.75749  -1240967.75549  20793834.1144   20793838.9074
  21296753.259      886202.43649    690762.56849  21296754.2894   21296759.5784
  20615928.010     1974759.63749   1534133.85149  20615930.3574   20615936.1344
 96  2 12 17 21 30.0000000  0  6 19  4 18 29 22 14
  23953427.612    -4785654.24649  -3715462.81549  23953429.9784   23953436.8524
  24696586.575     -269824.24149   -207659.73449  24696588.7694   24696595.2884
  22332280.661    -4339600.07549  -3367909.62649  22332282.9674   22332288.5634
  20789622.672    -1620720.89249  -1258202.66949  20789625.1634   20789629.9614
  21302867.383      918333.43049    715799.69649  21302868.7174   21302873.5914
  20625234.033     2023663.28949   1572240.57249  20625236.2934   20625242.4544
 96  2 12 17 22  0.0000000  0  6 19  4 18 29 22 14
  23938262.512    -4865343.56449  -3777558.33849  23938264.8874   23938272.4204
  24698344.168     -260591.24949   -200465.22049  24698344.8904   24698350.8064
  22318822.894    -4410320.89649  -3423016.75349  22318825.3714   22318831.1104
  20785452.192    -1642637.48149  -1275280.52949  20785454.6424   20785459.4634
  21309091.644      951041.03149    741286.12549  21309092.8214   21309097.7624
  20634644.005     2073111.98849   1610772.00249  20634646.6184   20634652.1624
 96  2 12 17 22 30.0000000  0  6 19  4 18 29 22 14
  23923127.994    -4944882.90649  -3839536.99749  23923129.8104   23923136.2594
  24700190.366     -250894.45149   -192909.28449  24700190.1404   24700196.8144
  22305387.976    -4480925.09949  -3478033.00349  22305389.9274   22305395.6724
  20781322.381    -1664340.10349  -1292191.67349  20781324.8634   20781329.4494
  21315426.524      984333.88349    767228.59449  21315428.1894   21315433.4554
  20644158.984     2123111.60849   1649732.71449  20644161.0504   20644166.5014
 96  2 12 17 23  0.0000000  0  6 19  4 18 29 22 14
  23908018.520    -5024282.44149  -3901406.70449  23908021.0084   23908027.5334
  24702121.279     -240736.43049   -184993.96749  24702124.1374   24702130.4074
  22291971.243    -4551429.16849  -3532971.22549  22291973.1694   22291978.7674
  20777232.850    -1685831.95849  -1308938.57649  20777235.0844   20777239.8754
  21321872.625     1018206.16649    793622.56349  21321873.6624   21321878.9534
  20653776.987     2173655.27749   1689117.36749  20653779.0724   20653784.5014
 96  2 12 17 23 30.0000000  0  6 19  4 18 29 22 14
  23892939.702    -5103518.82049  -3963149.28349  23892942.0284   23892948.9884
  24704142.835     -230110.33149   -176713.92949  24704146.2794   24704152.3194
  22278573.375    -4621836.70749  -3587834.22649  22278574.9454   22278581.2394
  20773188.142    -1707084.72149  -1325499.17449  20773191.0574   20773195.4624
  21328430.516     1052669.94149    820477.43549  21328431.9964   21328437.3504
  20663498.282     2224743.68849   1728926.49549  20663500.9004   20663506.4054
 96  2 12 17 24  0.0000000  0  6 19  4 18 29 22 14
  23877888.898    -5182609.01649  -4024777.96149  23877891.3314   23877898.5854
  24706258.244     -219000.09549   -168056.62849  24706260.5234   24706265.8094
  22265190.586    -4692162.54449  -3642633.56149  22265192.6554   22265198.0514
  20769189.682    -1728097.52749  -1341872.79649  20769192.1234   20769196.7714
  21335102.022     1087728.80449    847796.02049  21335103.5104   21335108.7804
  20673321.077     2276363.23149   1769149.49849  20673323.6604   20673329.7744
 96  2 12 17 24 30.0000000  0  6 19  4 18 29 22 14
  23862865.126    -5261558.14049  -4086296.72149  23862867.6484   23862874.8164
  24708457.903     -207408.30549   -159024.08449  24708466.3014   24708472.8884
  22251822.682    -4762413.58449  -3697374.61649  22251824.3114   22251829.5924
  20765234.544    -1748884.42549  -1358070.38749  20765236.7264   20765241.1844
  21341883.569     1123364.69349    875564.23549  21341884.9394   21341890.1044
  20683242.780     2328496.85149   1809773.08249  20683244.6134   20683250.5854
 96  2 12 17 25  0.0000000  0  6 19  4 18 29 22 14
  23847872.677    -5340347.29449  -4147690.80349  23847875.1784   23847882.4154
  24710751.518     -195347.61449   -149626.16949  24710761.0874   24710767.1084
  22238472.534    -4832568.28249  -3752040.60049  22238474.2274   22238479.7564
  20761320.812    -1769447.61149  -1374093.65149  20761323.7224   20761327.8714
  21348774.184     1159576.21649    903781.00049  21348775.5424   21348780.8224
  20693258.519     2381131.68649   1850787.22249  20693260.6374   20693266.3344
 96  2 12 17 25 30.0000000  0  6 19  4 18 29 22 14
  23832909.757    -5418976.71149  -4208960.42349  23832911.9244   23832918.7794
  24713143.647     -182823.67849   -139867.28849  24713145.0034   24713150.4534
  22225143.754    -4902612.72449  -3806620.67549  22225145.2574   22225150.7284
  20757448.772    -1789799.49549  -1389952.27349  20757450.9304   20757455.1124
  21355773.806     1196361.33949    932444.72549  21355775.5704   21355780.8504
  20703366.627     2434251.49749   1892179.26249  20703369.0404   20703374.3514
 96  2 12 17 26  0.0000000  0  6 19  4 18 29 22 14
  23817977.650    -5497442.24349  -4270102.34849  23817980.5144   23817988.0514
  24715616.375     -169841.32149   -129751.17149  24715614.2454   24715620.5664
  22211837.922    -4972532.28749  -3861103.43649  22211840.0644   22211845.7534
  20753612.969    -1809953.76549  -1405656.90149  20753615.6184   20753620.2174
  21362882.141     1233715.98949    961552.23849  21362884.0694   21362889.2374
  20713567.813     2487858.97349   1933951.30249  20713570.0524   20713575.4474
 96  2 12 17 26 30.0000000  0  6 19  4 18 29 22 14
  23803079.829    -5575735.05649  -4331109.68949  23803081.3194   23803089.6904
  24718164.905     -156412.31749   -119287.03649  24718170.0284   24718176.5384
  22198557.471    -5042324.66749  -3915487.09549  22198559.2774   22198564.3254
  20749815.183    -1829911.78849  -1421208.61549  20749817.4734   20749822.2084
  21370099.307     1271639.44349    991102.97649  21370100.9224   21370105.7584
  20723862.879     2541956.90449   1976105.51649  20723864.5754   20723870.2454
 96  2 12 17 27  0.0000000  0  6 19  4 18 29 22 14
  23788214.360    -5653860.76249  -4391986.83249  23788214.9824   23788222.3534
  24720809.730     -142534.47049   -108473.16649  24720811.2634   24720817.8414
  22185298.462    -5112001.61549  -3969780.80549  22185299.9744   22185305.2874
  20746056.797    -1849661.85849  -1436598.28949  20746059.2904   20746063.7364
  21377425.188     1310137.23749   1021101.25249  21377426.7834   21377431.7124
  20734253.285     2596560.06949   2018653.41449  20734255.8084   20734261.2284
 96  2 12 17 27 30.0000000  0  6 19  4 18 29 22 14
  23773374.189    -5731838.29649  -4452748.51549  23773376.8764   23773383.7484
  24723532.596     -128208.87349    -97310.38649  24723537.1754   24723544.5384
  22172058.884    -5181574.17249  -4023993.17949  22172060.8284   22172066.1854
  20742340.363    -1869193.70449  -1451817.91049  20742342.7034   20742347.3294
  21384859.976     1349206.01949   1051544.45849  21384861.1694   21384866.4494
  20744743.000     2651683.67849   2061606.85449  20744745.1604   20744751.1784
 96  2 12 17 28  0.0000000  0  6 19  4 18 29 22 14
  23758564.315    -5809665.03149  -4513392.69449  23758567.3534   23758574.3354
  24726349.907     -113436.23149    -85799.26049  24726349.1264   24726354.9974
  22158838.026    -5251048.96249  -4078129.36649  22158839.9304   22158845.5504
  20738669.089    -1888487.82849  -1466852.30049  20738671.1554   20738675.5634
  21392402.563     1388842.80749   1082430.26249  21392403.7224   21392408.9864
  20755333.797     2707343.68949   2104978.27449  20755336.3864   20755342.5744
 96  2 12 17 28 30.0000000  0  6 19  4 18 29 22 14
  23743778.239    -5887361.71149  -4573935.53449  23743782.2574   23743788.4534
  24729243.348      -98223.57349    -73945.28749  24729243.7574   24729249.1724
  22145634.230    -5320437.02249  -4132197.96449  22145635.5934   22145641.2814
  20735042.991    -1907540.80649  -1481698.77949  20735045.3484   20735049.9724
  21400050.759     1429035.41349   1113749.17349  21400052.3594   21400057.5844
  20766025.798     2763526.55049   2148757.10649  20766027.9164   20766033.5654
 96  2 12 17 29  0.0000000  0  6 19  4 18 29 22 14
  23729021.002    -5964913.97549  -4634365.84449  23729023.6594   23729029.9264
  24732220.946      -82566.21749    -61744.75649  24732222.9254   24732228.7804
  22132451.191    -5389714.19849  -4186180.17549  22132453.0584   22132458.2024
  20731466.394    -1926333.20949  -1496342.21749  20731469.3524   20731473.8594
  21407805.611     1469788.48849   1145504.80849  21407807.3434   21407812.4284
  20776818.378     2820241.32549   2192950.40849  20776820.8134   20776826.1824
 96  2 12 17 29 30.0000000  0  6 19  4 18 29 22 14
  23714292.411    -6042313.12649  -4694676.85649  23714295.5904   23714300.7334
  24735287.294      -66460.87449    -49195.15049  24735287.0844   24735293.7154
  22119292.319    -5458861.88049  -4240061.47449  22119294.7154   22119299.7954
  20727938.838    -1944869.32449  -1510785.94249  20727941.9844   20727946.7424
  21415669.154     1511112.49349   1177705.32249  21415670.9084   21415676.1334
  20787711.945     2877485.62149   2237556.32849  20787713.6854   20787719.2654
 96  2 12 17 30  0.0000000  0  6 19  4 18 29 22 14
  23699596.253    -6119542.95849  -4754855.92549  23699597.8234   23699605.7314
  24738433.280      -49903.16249    -36293.05349  24738438.6594   24738444.5984
  22106157.367    -5527886.74449  -4293847.07549  22106159.7184   22106164.8974
  20724458.267    -1963162.95749  -1525040.72449  20724460.6984   20724465.5314
  21423642.964     1553012.92549   1210354.98949  21423644.3574   21423649.5054
  20798702.314     2935241.47849   2282560.86549  20798704.1594   20798710.3094
 96  2 12 17 30 30.0000000  0  6 19  4 18 29 22 14
  23684932.677    -6196603.65949  -4814903.19149  23684933.9764   23684940.8324
  24741667.609      -32896.09949    -23040.83449  24741674.7434   24741680.4444
  22093044.874    -5596793.16849  -4347540.38249  22093046.5234   22093052.2314
  20721020.565    -1981230.94549  -1539119.68349  20721022.6294   20721027.2724
  21431727.132     1595489.91449   1243453.92649  21431727.7124   21431732.9084
  20809788.884     2993502.48149   2327959.02149  20809790.9464   20809796.9574
 96  2 12 17 31  0.0000000  0  6 19  4 18 29 22 14
  23670302.027    -6273486.02749  -4874811.50349  23670303.5514   23670311.9034
  24744997.919      -15426.03049     -9427.80649  24744998.9574   24745005.7894
  22079955.452    -5665578.73749  -4401139.51749  22079957.8184   22079963.1064
  20717622.681    -1999082.53249  -1553030.01749  20717625.7424   20717629.7964
  21439921.301     1638552.05249   1277008.82749  21439922.2094   21439927.3034
  20820973.667     3052276.90549   2373757.25149  20820975.6104   20820981.2634
 96  2 12 17 31 30.0000000  0  6 19  4 18 29 22 14
  23655707.078    -6350183.01149  -4934575.36149  23655709.1504   23655715.3554
  24748416.501        2541.09949      4572.52449  24748417.8994   24748423.7814
  22066888.912    -5734247.70149  -4454647.78349  22066890.4214   22066895.8724
  20714269.826    -2016707.22549  -1566763.55349  20714271.8364   20714276.3944
  21448229.634     1682216.48949   1311033.05649  21448231.1344   21448236.0944
  20832258.061     3111575.17749   2419963.66649  20832259.8674   20832265.3044
 96  2 12 17 32  0.0000000  0  6 19  4 18 29 22 14
  23641144.347    -6426702.00449  -4994200.52549  23641147.7994   23641155.9064
  24751925.251       20997.14549     18953.84049  24751930.5854   24751936.4054
  22053840.717    -5802813.04449  -4508075.31049  22053842.7944   22053847.9994
  20710958.954    -2034103.39949  -1580319.02149  20710961.4864   20710965.7844
  21456647.747     1726456.70349   1345505.94049  21456649.5784   21456654.9964
  20843637.967     3171378.36849   2466563.52949  20843639.8044   20843645.4194
 96  2 12 17 32 30.0000000  0  6 19  4 18 29 22 14
  23626612.681    -6503073.08849  -5053710.45349  23626616.0744   23626622.2634
  24755532.948       39932.55349     33708.67749  24755533.7484   24755540.9844
  22040813.146    -5871276.06949  -4561423.10849  22040814.7244   22040820.1404
  20707690.740    -2051275.56649  -1593699.93649  20707693.6544   20707698.0434
  21465169.712     1771237.15449   1380399.79249  21465171.5564   21465176.3394
  20855111.362     3231675.29149   2513548.11949  20855113.7534   20855119.5974
 96  2 12 17 33  0.0000000  0  6 19  4 18 29 22 14
  23612107.195    -6579297.95649  -5113106.43849  23612110.4794   23612116.7094
  24759224.160       59354.46949     48842.61549  24759229.4664   24759235.8484
  22027805.480    -5939629.31749  -4614685.37249  22027807.4874   22027812.9664
  20704469.304    -2068209.33149  -1606895.08749  20704470.9804   20704475.5564
  21473791.996     1816547.46049   1415706.50649  21473793.6314   21473798.9974
  20866678.577     3292457.36749   2560910.74949  20866680.3694   20866686.3684
 96  2 12 17 33 30.0000000  0  6 19  4 18 29 22 14
  23597632.248    -6655371.86449  -5172384.78749  23597633.7544   23597640.8884
  24763012.740       79249.53449     64345.24649  24763014.9524   24763022.4284
  22014821.773    -6007858.05049  -4667850.60449  22014823.8124   22014829.2374
  20701294.837    -2084886.65349  -1619890.40649  20701297.4094   20701302.3394
  21482515.580     1862388.93149   1451427.12149  21482516.7894   21482522.1934
  20878336.359     3353719.98049   2608647.81949  20878338.5464   20878344.4184
 96  2 12 17 34  0.0000000  0  6 19  4 18 29 22 14
  23583185.248    -6731284.90149  -5231537.77449  23583187.7464   23583194.4304
  24766885.607       99595.65249     80199.34849  24766887.2914   24766893.2164
  22001866.161    -6075940.98049  -4720902.22449  22001868.2514   22001873.4674
  20698171.816    -2101297.87949  -1632678.37749  20698174.5144   20698179.3364
  21491340.385     1908760.92449   1487561.13049  21491341.3054   21491346.4124
  20890087.153     3415470.10749   2656764.76549  20890089.3024   20890094.4204
 96  2 12 17 34 30.0000000  0  6 19  4 18 29 22 14
  23568769.768    -6807043.94449  -5290570.76749  23568771.6684   23568777.9614
  24770839.777      120380.70549     96395.46349  24770842.9834   24770848.5174
  21988939.936    -6143871.55349  -4773835.12949  21988941.4794   21988946.7824
  20695099.442    -2117445.22649  -1645260.72249  20695101.7534   20695106.7204
  21500267.966     1955679.76749   1524121.25849  21500269.4234   21500274.6994
  20901931.389     3477714.35749   2705266.75149  20901933.6544   20901939.0894
 96  2 12 17 35  0.0000000  0  6 19  4 18 29 22 14
  23554382.385    -6882645.25049  -5349480.86049  23554385.6424   23554391.2864
  24774873.518      141586.93549    112919.77449  24774878.4344   24774884.3034
  21976040.615    -6211656.30449  -4826654.40249  21976042.2114   21976048.0384
  20692076.110    -2133333.53749  -1657641.22749  20692078.5184   20692083.2884
  21509304.221     2003167.44049   1561124.63349  21509306.0604   21509311.0524
  20913870.346     3540455.57049   2754155.97849  20913872.8344   20913878.4054
 96  2 12 17 35 30.0000000  0  6 19  4 18 29 22 14
  23540031.022    -6958064.38849  -5408248.99249  23540033.7184   23540039.4674
  24778987.885      163216.80449    129774.20149  24778994.2304   24779000.7234
  21963172.230    -6279277.88449  -4879346.52449  21963174.3634   21963179.9504
  20689105.620    -2148947.78849  -1669808.17849  20689107.4244   20689111.7754
  21518454.332     2051250.75749   1598592.13949  21518455.7584   21518461.2594
  20925909.620     3603717.97949   2803451.33549  20925911.5314   20925917.3584
 96  2 12 17 36  0.0000000  0  6 19  4 18 29 22 14
  23525714.537    -7033296.34249  -5466871.26849  23525717.1874   23525722.8064
  24783188.837      185283.21149    146968.78049  24783192.3574   24783199.5624
  21950335.308    -6346742.70649  -4931916.50549  21950336.4504   21950341.4564
  20686184.215    -2164297.88949  -1681769.29849  20686186.3644   20686190.9584
  21527715.520     2099916.03549   1636513.11449  21527716.7804   21527721.9584
  20938049.775     3667511.75749   2853160.74249  20938051.4384   20938057.1044
 96  2 12 17 36 30.0000000  0  6 19  4 18 29 22 14
  23511431.707    -7108350.60249  -5525355.08449  23511434.5094   23511440.8784
  24787474.173      207795.89449    164511.10349  24787477.5684   24787483.8284
  21937521.882    -6414072.20149  -4984381.03149  21937523.7274   21937529.3864
  20683308.612    -2179404.53649  -1693540.71249  20683311.7974   20683316.0674
  21537083.438     2149144.60449   1674873.02149  21537084.7844   21537089.6304
  20950288.391     3731830.34749   2903279.09549  20950290.8384   20950296.3444
 96  2 12 17 37  0.0000000  0  6 19  4 18 29 22 14
  23497187.681    -7183207.61549  -5583685.19549  23497189.6804   23497197.1944
  24791847.802      230773.79549    182415.92749  24791850.2204   24791855.9534
  21924734.266    -6481270.59649  -5036743.39949  21924736.4644   21924742.1184
  20680480.336    -2194271.50849  -1705125.36749  20680482.6344   20680487.0894
  21546554.690     2198916.47349   1713656.27649  21546555.9854   21546560.9274
  20962628.669     3796677.14749   2953809.04249  20962630.3844   20962636.2634
 96  2 12 17 37 30.0000000  0  6 19  4 18 29 22 14
  23482979.864    -7257869.91649  -5641863.59149  23482982.6624   23482989.2044
  24796308.246      254210.54649    200678.30749  24796310.8544   24796316.0244
  21911970.946    -6548345.45749  -5089009.50549  21911972.8144   21911978.1184
  20677695.875    -2208902.90449  -1716526.45849  20677698.2094   20677702.7614
  21556123.727     2249203.19549   1752840.70849  21556125.2994   21556130.6144
  20975065.449     3862035.98749   3004737.98249  20975067.7154   20975073.1194
 96  2 12 17 38  0.0000000  0  6 19  4 18 29 22 14
  23468806.339    -7332353.56149  -5699902.76449  23468808.5834   23468815.1944
  24800849.824      278100.85849    219294.09849  24800856.3584   24800861.6764
  21899229.578    -6615298.97049  -5141181.06149  21899231.5954   21899237.0214
  20674954.111    -2223307.38049  -1727750.73049  20674957.0454   20674961.5934
  21565788.061     2299991.40749   1792415.90949  21565789.8724   21565795.2514
  20987598.783     3927896.03049   3056057.45849  20987600.7274   20987606.4054
 96  2 12 17 38 30.0000000  0  6 19  4 18 29 22 14
  23454667.381    -7406652.36849  -5757797.92149  23454669.3144   23454676.0944
  24805488.559      302444.04649    238262.78749  24805487.7414   24805494.0234
  21886516.092    -6682111.99649  -5193243.14549  21886517.2934   21886523.1354
  20672262.145    -2237459.25249  -1738778.16549  20672263.9854   20672268.4084
  21575553.161     2351307.19349   1832402.20549  21575554.8564   21575560.1384
  21000227.474     3994257.48549   3107767.65449  21000228.9504   21000234.6644
 96  2 12 17 39  0.0000000  0  6 19  4 18 29 22 14
  23440563.706    -7480765.95349  -5815548.75349  23440566.0244   23440573.5764
  24810204.764      327232.09549    257578.11249  24810205.6454   24810211.9854
  21873831.918    -6748765.93949  -5245181.27649  21873834.0804   21873839.4784
  20669621.370    -2251333.89749  -1749589.58249  20669624.2144   20669628.3694
  21585421.920     2403165.09449   1872810.93749  21585423.4674   21585428.5264
  21012949.124     4061113.51349   3159863.23249  21012951.3684   21012957.3284
 96  2 12 17 39 30.0000000  0  6 19  4 18 29 22 14
  23426490.977    -7554721.24649  -5873176.23749  23426493.3394   23426499.1494
  24815003.260      352445.90749    277225.22349  24815003.7034   24815009.5564
  21861179.963    -6815251.59349  -5296988.26649  21861182.4494   21861187.6834
  20667034.602    -2264927.67249  -1760182.13849  20667037.2024   20667041.4054
  21595396.371     2455580.16149   1913653.81749  21595397.5954   21595402.8044
  21025762.957     4128452.71549   3212335.31449  21025765.3034   21025771.4144
 96  2 12 17 40  0.0000000  0  6 19  4 18 29 22 14
  23412448.291    -7628516.75149  -5930679.21149  23412449.7944   23412456.6274
  24819882.324      378102.94849    297217.70749  24819886.9044   24819891.9344
  21848563.035    -6881556.12549  -5348654.12449  21848564.4424   21848570.5394
  20664503.551    -2278229.36649  -1770547.10249  20664506.0964   20664510.5224
  21605478.292     2508563.53249   1954939.53549  21605480.0234   21605485.3474
  21038668.877     4196273.85349   3265182.93449  21038671.3064   21038676.9394
 96  2 12 17 40 30.0000000  0  6 19  4 18 29 22 14
  23398433.630    -7702164.33249  -5988066.90849  23398435.7194   23398441.4184
  24824848.674      404193.92149    317548.29649  24824851.5124   24824856.8644
  21835975.375    -6947701.49949  -5400195.96949  21835977.6334   21835982.9804
  20662027.887    -2291240.58949  -1780685.72449  20662030.1294   20662034.3534
  21615665.812     2562096.10949   1996653.20349  21615666.8734   21615672.3064
  21051663.360     4264555.90649   3318389.69849  21051664.9404   21051670.5814
 96  2 12 17 41  0.0000000  0  6 19  4 18 29 22 14
  23384445.281    -7775673.74549  -6045346.94249  23384446.8564   23384453.4794
  24829892.941      430705.91449    338206.96149  24829895.7604   24829901.7504
  21823417.776    -7013694.70649  -5451619.23749  21823419.4724   21823424.7674
  20659604.032    -2303976.61049  -1790609.89749  20659606.4974   20659611.0324
  21625954.164     2616162.79149   2038783.06749  21625955.4864   21625960.7384
  21064743.042     4333290.57049   3371949.14949  21064745.2114   21064750.2884
 96  2 12 17 41 30.0000000  0  6 19  4 18 29 22 14
  23370484.960    -7849029.41249  -6102507.16649  23370487.8574   23370494.6704
  24835018.690      457645.42149    359198.73949  24835023.1654   24835028.3964
  21810890.882    -7079524.05649  -5502914.82449  21810892.4914   21810897.9644
  20657234.704    -2316428.38049  -1800312.58049  20657237.1394   20657241.3874
  21636345.143     2670768.90049   2081333.26349  21636346.7804   21636351.6604
  21077911.382     4402491.74449   3425872.11149  21077913.6754   21077919.1974
 96  2 12 17 42  0.0000000  0  6 19  4 18 29 22 14
  23356560.717    -7922208.75149  -6159529.99749  23356562.7004   23356569.2784
  24840228.153      485006.53249    380519.07949  24840228.7374   24840234.2614
  21798393.592    -7145196.79149  -5554088.38549  21798395.3674   21798400.7954
  20654920.180    -2328591.91549  -1809790.66549  20654922.6074   20654926.8854
  21646834.829     2725889.80549   2124284.59549  21646836.1784   21646841.1134
  21091171.124     4472169.23549   3480166.23049  21091172.6804   21091178.7484
 96  2 12 17 42 30.0000000  0  6 19  4 18 29 22 14
  23342665.403    -7995224.70149  -6216425.51049  23342667.3604   23342674.9144
  24845509.166      512761.07149    402145.93649  24845510.0284   24845517.1254
  21785921.395    -7210734.20449  -5605156.49249  21785924.0624   21785929.4364
  20652655.438    -2340495.07549  -1819065.86049  20652657.3144   20652661.7884
  21657418.914     2781508.71549   2167623.99249  21657420.1374   21657424.9754
  21104519.581     4542320.54349   3534829.57149  21104521.9844   21104528.0524
 96  2 12 17 43  0.0000000  0  6 19  4 18 29 22 14
  23328806.091    -8068061.76949  -6273181.63249  23328807.5214   23328814.6334
  24850863.944      540909.45249    424079.72249  24850868.0284   24850874.3504
  21773479.238    -7276121.96349  -5656107.99249  21773481.0504   21773486.4834
  20650438.866    -2352141.52649  -1828141.02249  20650441.1304   20650445.2914
  21668100.743     2837642.25749   2211364.39349  21668101.7504   21668106.9754
  21117961.946     4612956.39249   3589870.48249  21117963.5054   21117969.4974
 96  2 12 17 43 30.0000000  0  6 19  4 18 29 22 14
  23314982.087    -8140701.54849  -6329784.02449  23314983.9864   23314991.7464
  24856300.053      569475.05249    446338.60549  24856303.3344   24856308.5434
  21761066.296    -7341355.48849  -5706939.30549  21761067.6094   21761073.1034
  20648274.687    -2363514.34849  -1837002.97149  20648276.9944   20648281.1844
  21678879.415     2894286.43249   2255502.69549  21678880.8154   21678885.9274
  21131497.550     4684086.16049   3645296.25549  21131499.4694   21131504.7154
 96  2 12 17 44  0.0000000  0  6 19  4 18 29 22 14
  23301201.469    -8213123.21949  -6386216.46349  23301203.5444   23301209.1354
  24861820.470      598492.92049    468949.88649  24861825.5444   24861832.8894
  21748683.566    -7406420.90149  -5757639.62349  21748686.2124   21748691.6624
  20646165.134    -2374601.82849  -1845642.57549  20646167.2694   20646171.3814
  21689760.731     2951464.55649   2300057.06149  21689761.6084   21689766.6764
  21145129.968     4755724.37249   3701118.20549  21145131.8624   21145137.0714
 96  2 12 17 44 30.0000000  0  6 19  4 18 29 22 14
  23287458.335    -8285343.97049  -6442492.34849  23287460.0904   23287466.5414
  24867430.030      627964.81249    491914.97549  24867434.4604   24867438.6544
  21736334.708    -7471323.81249  -5808213.31049  21736335.4204   21736340.7204
  20644107.673    -2385413.01549  -1854066.88049  20644109.9514   20644113.9944
  21700743.684     3009183.65149   2345032.97349  21700745.0884   21700749.9614
  21158853.352     4827843.40249   3757314.82249  21158855.4604   21158860.7374
 96  2 12 17 45  0.0000000  0  6 19  4 18 29 22 14
  23273752.012    -8357368.95749  -6498615.68549  23273754.6274   23273760.0634
  24873127.299      657878.90249    515224.60749  24873125.3464   24873130.7094
  21724013.456    -7536065.65449  -5858661.49549  21724015.6404   21724021.1254
  20642104.632    -2395944.36449  -1862273.13649  20642105.8724   20642109.8194
  21711827.102     3067425.75349   2390416.42549  21711828.1844   21711833.3444
  21172662.833     4900415.07949   3813864.15249  21172664.9674   21172671.0534
 96  2 12 17 45 30.0000000  0  6 19  4 18 29 22 14
  23260085.118    -8429189.94549  -6554580.04849  23260087.2824   23260093.9434
  24878905.283      688253.84149    538893.35349  24878907.0694   24878911.8964
  21711726.030    -7600639.16449  -5908978.51449  21711727.6944   21711733.0764
  20640155.674    -2406180.72249  -1870249.52749  20640157.9384   20640162.0574
  21723011.323     3126199.10749   2436213.82949  21723012.3014   21723017.1084
  21186561.239     4973449.85849   3870774.34349  21186563.0914   21186569.2734
 96  2 12 17 46  0.0000000  0  6 19  4 18 29 22 14
  23246454.914    -8500815.89549  -6610392.44549  23246457.2334   23246463.5644
  24884762.837      719062.17949    562899.81849  24884769.2644   24884774.0254
  21699469.479    -7665051.60949  -5959170.02449  21699470.3344   21699475.7744
  20638260.858    -2416139.45349  -1878009.58749  20638262.7614   20638266.9764
  21734296.241     3185503.38849   2482424.95049  21734297.7134   21734302.6674
  21200545.571     5046936.79249   3928036.86349  21200547.5344   21200553.5004
 96  2 12 17 46 30.0000000  0  6 19  4 18 29 22 14
  23232862.649    -8572244.61349  -6666051.16849  23232864.3784   23232871.7164
  24890710.400      750293.87349    587236.17249  24890713.3904   24890719.5954
  21687244.483    -7729288.34749  -6009224.62549  21687246.4024   21687251.4704
  20636420.725    -2425810.65849  -1885545.60149  20636422.6214   20636426.5494
  21745682.828     3245340.79049   2529051.48849  21745684.5334   21745689.3494
  21214616.694     5120880.33549   3985655.17349  21214618.7034   21214624.3484
 96  2 12 17 47  0.0000000  0  6 19  4 18 29 22 14
  23219306.326    -8643481.56649  -6721560.46149  23219308.6834   23219316.1284
  24896736.061      781948.69349    611902.23549  24896735.7084   24896742.1424
  21675056.716    -7793343.14549  -6059137.45349  21675057.7164   21675062.5714
  20634633.550    -2435199.51349  -1892861.60249  20634635.8864   20634640.0654
  21757171.711     3305712.92349   2576094.69849  21757172.8714   21757177.8634
  21228776.603     5195292.08649   4043638.32249  21228778.6854   21228784.1124
 96  2 12 17 47 30.0000000  0  6 19  4 18 29 22 14
  23205783.419    -8714547.81649  -6776936.73749  23205785.1954   23205791.7654
  24902833.792      814005.50449    636881.53449  24902837.2634   24902842.4474
  21662897.385    -7857233.43449  -6108922.08949  21662899.5434   21662904.8024
  20632898.034    -2444321.81649  -1899969.89749  20632899.9144   20632904.2084
  21768759.018     3366600.80549   2623539.79749  21768759.2294   21768764.5334
  21243026.073     5270168.62049   4101983.64149  21243027.1894   21243032.8984
 96  2 12 17 48  0.0000000  0  6 19  4 18 29 22 14
  23192293.068    -8785443.13849  -6832179.82349  23192294.3964   23192300.8614
  24909007.407      846462.19149    662172.42949  24909011.8374   24909018.0754
  21650777.167    -7920935.84149  -6158560.32349  21650777.4814   21650782.7874
  20631212.957    -2453172.81049  -1906866.78949  20631215.4654   20631219.9244
  21780441.475     3427996.97749   2671380.96249  21780442.6984   21780447.5674
  21257361.854     5345507.01349   4160688.84449  21257363.6444   21257369.5184
 96  2 12 17 48 30.0000000  0  6 19  4 18 29 22 14
  23178833.382    -8856172.05049  -6887293.24249  23178834.6874   23178841.7284
  24915263.558      879327.20149    687781.51549  24915266.2124   24915271.6144
  21638689.806    -7984445.89549  -6208048.67449  21638692.0884   21638696.7624
  20629581.992    -2461748.02449  -1913548.78549  20629583.5834   20629588.4324
  21792222.103     3489901.41649   2719618.18049  21792222.6394   21792227.6174
  21271786.553     5421306.64749   4219753.46349  21271787.8554   21271793.9114
 96  2 12 17 49  0.0000000  0  6 19  4 18 29 22 14
  23165408.226    -8926719.69749  -6942265.41649  23165410.4134   23165416.5174
  24921596.248      912598.61749    713707.24849  24921596.7114   24921601.9384
  21626640.735    -8047767.81949  -6257390.42049  21626642.1834   21626647.0564
  20628003.990    -2470038.39749  -1920008.82849  20628006.2784   20628010.3074
  21804096.190     3552306.13349   2768245.22349  21804097.6764   21804102.6624
  21286298.139     5497567.64149   4279177.58149  21286299.9264   21286306.1214
 96  2 12 17 49 30.0000000  0  5 19 18 29 22 14
  23152019.899    -8997077.17849  -6997089.41549  23152021.3964   23152028.2144
  21614624.865    -8110911.29149  -6306593.12249  21614625.9554   21614631.0684
  20626481.093    -2478044.83349  -1926247.62449  20626482.8584   20626486.9784
  21816064.894     3615198.31049   2817252.10449  21816065.5234   21816070.8154
  21300896.353     5574285.09649   4338957.39549  21300898.8764   21300905.0384
 96  2 12 17 50  0.0000000  0  5 19 18 29 22 14
  23138665.497    -9067258.17949  -7051775.89949  23138666.4954   23138673.4024
  21602640.467    -8173888.44049  -6355666.21849  21602642.2874   21602647.1704
  20625008.330    -2485783.96449  -1932278.13449  20625010.1324   20625014.3104
  21828123.540     3678567.39049   2866630.59849  21828124.4274   21828130.0244
  21315577.827     5651434.76649   4399073.98849  21315579.8564   21315585.5544
 96  2 12 17 50 30.0000000  0  5 19 18 29 22 14
  23125345.090    -9137254.13549  -7106318.18549  23125347.4014   23125353.8234
  21590685.521    -8236715.04849  -6404622.01249  21590686.5034   21590691.8164
  20623588.915    -2493241.61349  -1938089.30349  20623591.0924   20623595.2164
  21840275.389     3742424.06149   2916389.03149  21840276.2974   21840281.2434
  21330342.131     5729021.12149   4459530.86249  21330344.0704   21330349.5934
 96  2 12 17 51  0.0000000  0  5 19 18 29 22 14
  23112061.069    -9207058.23349  -7160710.97949  23112063.5594   23112070.4144
  21578759.411    -8299381.24449  -6453452.81049  21578761.4954   21578766.7894
  20622225.727    -2500404.26549  -1943670.60449  20622228.0324   20622232.3064
  21852520.259     3806773.46349   2966531.41149  21852521.4444   21852526.8684
  21345190.023     5807047.24849   4520330.41349  21345192.1614   21345197.9884
 96  2 12 17 51 30.0000000  0  5 19 18 29 22 14
  23098810.929    -9276688.30349  -7214968.15449  23098813.8034   23098820.4914
  21566869.283    -8361871.49149  -6502146.50049  21566870.2914   21566875.3484
  20620920.733    -2507267.53249  -1949018.61249  20620922.1624   20620926.2194
  21864860.942     3871619.76249   3017060.98249  21864861.4214   21864866.4494
  21360122.225     5885514.46549   4581473.67349  21360123.7884   21360129.8634
 96  2 12 17 52  0.0000000  0  5 19 18 29 22 14
  23085594.301    -9346150.94649  -7269094.87749  23085595.3654   23085601.1414
  21555012.716    -8424168.82149  -6550689.86749  21555015.3314   21555020.2314
  20619673.834    -2513815.14049  -1954120.65149  20619676.0124   20619680.3114
  21877296.044     3936969.36149   3067982.73849  21877297.0544   21877302.2294
  21375136.515     5964418.80149   4642957.54749  21375138.7374   21375144.8464
 96  2 12 17 52 30.0000000  0  5 19 18 29 22 14
  23072408.062    -9415441.53749  -7323087.54849  23072409.6094   23072416.2274
  21543198.975    -8486258.27749  -6599071.25149  21543200.0394   21543205.4834
  20618488.834    -2520043.18249  -1958973.68049  20618490.6204   20618495.0654
  21889827.765     4002823.80749   3119297.87649  21889829.0564   21889833.4534
  21390236.252     6043767.90549   4704787.98849  21390238.2064   21390244.6684
 96  2 12 17 53  0.0000000  0  5 19 18 29 22 14
  23059251.794    -9484573.23749  -7376956.38549  23059254.1404   23059260.0514
  21531423.359    -8548131.68649  -6647284.29349  21531425.8874   21531431.1674
  20617360.089    -2525975.19749  -1963596.04149  20617362.0724   20617366.3154
  21902450.639     4069158.01649   3170986.85949  21902451.7724   21902456.5934
  21405418.560     6123549.25649   4766955.25049  21405420.4184   21405426.2804
 96  2 12 17 53 30.0000000  0  5 19 18 29 22 14
  23046130.505    -9553529.06249  -7430688.18449  23046132.1184   23046138.6754
  21519694.300    -8609775.46649  -6695318.39849  21519695.5454   21519700.8374
  20616290.445    -2531594.32349  -1967974.59449  20616292.8354   20616296.7904
  21915165.785     4135976.67249   3223053.32549  21915166.8234   21915171.9254
  21420684.907     6203773.45649   4829467.57949  21420686.7334   21420692.0374
 96  2 12 17 54  0.0000000  0  5 19 18 29 22 14
  23033041.981    -9622312.59849  -7484285.73449  23033043.8494   23033050.0684
  21508002.120    -8671216.13049  -6743194.24149  21508003.8674   21508009.1074
  20615276.193    -2536927.30149  -1972130.17049  20615277.8994   20615282.0444
  21927967.396     4203253.23549   3275476.60249  21927968.9354   21927974.0974
  21436031.198     6284420.00449   4892309.01249  21436033.2624   21436038.7214
 96  2 12 17 54 30.0000000  0  5 19 18 29 22 14
  23019988.116    -9690904.94649  -7537734.30849  23019990.6624   23019997.3184
  21496347.470    -8732463.08449  -6790919.13449  21496348.9934   21496354.1834
  20614316.156    -2541971.60649  -1976060.80649  20614318.2914   20614322.1994
  21940856.485     4270981.37949   3328251.76349  21940857.1494   21940862.2964
  21451458.080     6365490.70949   4955480.95649  21451460.4184   21451466.5014
 96  2 12 17 55  0.0000000  0  6 19 28 18 29 22 14
  23006975.087    -9759296.38949  -7591026.34049  23006975.3064   23006982.2024
  24899835.036    -4340890.87719  -3374646.11719  24899836.706    24899842.832
  21484727.638    -8793526.13049  -6838500.72449  21484729.0464   21484734.2744
  20613413.895    -2546712.49949  -1979755.02049  20613415.9904   20613420.1064
  21953832.292     4339172.02549   3381387.32249  21953833.6264   21953838.5384
  21466966.462     6446987.74849   5018985.10949  21466968.8364   21466975.2974
 96  2 12 17 55 30.0000000  0  6 19 28 18 29 22 14
  22993995.893    -9827492.74749  -7644166.34849  22993998.7844   22994005.0934
  24886511.890    -4410915.055 9  -3429210.474 9  24886512.059    24886518.376
  21473138.407    -8854424.51449  -6885954.00749  21473140.2154   21473145.7394
  20612569.761    -2551147.77149  -1983211.08649  20612572.0024   20612576.2854
  21966897.405     4407827.74049   3434885.26949  21966898.4614   21966903.1954
  21482554.500     6528902.79749   5082814.98249  21482556.8394   21482563.3834
 96  2 12 17 56  0.0000000  0  6 19 28 18 29 22 14
  22981058.588    -9895479.49349  -7697143.02049  22981060.8814   22981067.8664
  24873205.893    -4480838.427 9  -3483696.255 9  24873205.752    24873212.248
  21461585.347    -8915137.92649  -6933263.15849  21461586.7874   21461592.1484
  20611786.779    -2555262.21449  -1986417.15649  20611789.0544   20611793.4014
  21980055.126     4476972.75949   3488764.49049  21980056.6334   21980061.1634
  21498224.911     6611251.09249   5146982.45249  21498227.3304   21498233.4154
 96  2 12 17 56 30.0000000  0  6 19 28 18 29 22 14
  22968160.030    -9963265.62449  -7749963.35649  22968162.0104   22968168.9144
  24859916.693    -4550668.678 9  -3538109.476 9  24859917.385    24859924.218
  21450066.558    -8975669.64049  -6980430.72649  21450068.1724   21450073.4104
  20611065.268    -2559056.15149  -1989373.47449  20611067.2284   20611071.4334
  21993306.015     4546606.95749   3543024.89049  21993307.1934   21993312.4334
  21513976.313     6694023.99649   5211480.78349  21513978.5214   21513983.9534
 96  2 12 17 57  0.0000000  0  6 19 28 18 29 22 14
  22955297.389   -10030860.71549  -7802634.84349  22955299.5924   22955305.3894
  24846645.810    -4620402.734 9  -3592447.688 9  24846647.628    24846654.679
  21438587.297    -9035994.29849  -7027436.95549  21438588.8694   21438593.9094
  20610403.615    -2562529.90049  -1992080.30249  20610405.9324   20610410.2604
  22006651.840     4616739.49049   3597673.59449  22006653.0304   22006658.1884
  21529808.466     6777221.25849   5276309.77849  21529810.2144   21529815.4854
 96  2 12 17 57 30.0000000  0  6 19 28 18 29 22 14
  22942471.798   -10098261.64749  -7855155.03649  22942472.3664   22942479.4404
  24833397.044    -4690027.284 9  -3646700.522 9  24833398.022    24833405.469
  21427150.933    -9096090.84449  -7074265.43449  21427152.7734   21427158.0064
  20609805.289    -2565673.89249  -1994530.17649  20609807.6794   20609812.0674
  22020091.324     4687363.25349   3652705.07649  22020092.4994   22020097.5324
  21545722.096     6860848.08649   5341473.49949  21545723.8684   21545729.5144
 96  2 12 17 58  0.0000000  0  6 19 28 18 29 22 14
  22929678.859   -10165482.85849  -7907535.17949  22929681.2874   22929688.6354
  24820167.821    -4759548.773 9  -3700873.038 9  24820168.825    24820176.029
  21415757.395    -9155964.54649  -7120920.26949  21415759.0374   21415764.4794
  20609265.824    -2568506.37949  -1996737.31949  20609268.6014   20609273.0594
  22033618.720     4758451.37849   3708098.39749  22033619.9974   22033625.1014
  21561714.336     6944889.34049   5406960.15449  21561716.3324   21561722.0494
 96  2 12 17 58 30.0000000  0  6 19 28 18 29 22 14
  22916922.166   -10232519.07149  -7959771.17349  22916924.7404   22916931.5444
  24806958.427    -4828960.680 9  -3754960.155 9  24806959.606    24806967.169
  21404407.251    -9215611.47749  -7167398.39549  21404408.7264   21404413.9584
  20608787.364    -2571028.54149  -1998702.64849  20608788.9104   20608792.9424
  22047232.745     4829991.84149   3763844.19549  22047233.7834   22047238.6514
  21577786.428     7029343.24949   5472768.35249  21577787.5364   21577794.0424
 96  2 12 17 59  0.0000000  0  6 19 28 18 29 22 14
  22904197.827   -10299387.58749  -8011876.48149  22904200.4484   22904206.8034
  24793770.313    -4898263.248 9  -3808962.058 9  24793772.068    24793779.058
  21393098.663    -9275039.65749  -7213706.06749  21393099.9674   21393105.1734
  20608362.922    -2573253.95049  -2000436.74249  20608365.3364   20608369.4934
  22060932.033     4901980.93049   3819939.57249  22060932.9304   22060937.7234
  21593933.060     7114199.30849   5538889.92449  21593934.9554   21593941.9374
 96  2 12 17 59 30.0000000  0  6 19 28 18 29 22 14
  22891507.142   -10366076.05749  -8063841.49349  22891509.7084   22891515.9294
  24780604.128    -4967448.814 9  -3862872.796 9  24780606.753    24780613.269
  21381828.957    -9334260.58849  -7259852.25049  21381830.5304   21381835.9934
  20607995.937    -2575186.10649  -2001942.32549  20607997.7314   20608001.8234
  22074714.257     4974410.07049   3876377.83949  22074715.5634   22074720.3764
  21610157.812     7199460.83349   5605327.43849  21610160.0344   21610166.8174
 96  2 12 18  0  0.0000000  0  6 19 28 18 29 22 14
  22878854.093   -10432577.01449  -8115660.39449  22878855.3054   22878861.2204
  24767464.643    -5036512.717 9  -3916688.730 9  24767463.877    24767470.994
  21370599.271    -9393273.91949  -7305836.66049  21370600.6254   21370605.9964
  20607681.859    -2576832.38949  -2003225.14649  20607684.4814   20607688.6234
  22088582.719     5047286.51949   3933164.66649  22088583.3474   22088588.3984
  21626459.062     7285124.58249   5672078.37649  21626461.1724   21626467.1864
 96  2 12 18  0 30.0000000  0  6 19 28 18 29 22 14
  22866232.019   -10498900.84949  -8167341.27649  22866234.3644   22866240.0804
  24754340.599    -5105465.567 9  -3970418.146 9  24754343.137    24754349.496
  21359406.882    -9452088.59149  -7351666.27649  21359408.9074   21359414.0694
  20607420.790    -2578203.96449  -2004293.91049  20607423.0384   20607427.5974
  22102535.881     5120612.74049   3990301.95949  22102537.2774   22102542.5254
  21642834.000     7371173.22749   5739129.23149  21642835.9534   21642841.1344
 96  2 12 18  1  0.0000000  0  6 19 28 18 29 22 14
  22853649.319   -10565023.38349  -8218865.29749  22853651.3544   22853657.5674
  24741246.586    -5174288.720 9  -4024046.521 9  24741246.480    24741253.156
  21348254.854    -9510693.93649  -7397332.77349  21348256.4914   21348261.8714
  20607215.681    -2579284.13149  -2005135.60749  20607217.8614   20607221.9634
  22116578.901     5194407.68949   4047804.49949  22116579.6874   22116585.1284
  21659283.698     7457615.85449   5806487.08649  21659285.2764   21659290.3794
 96  2 12 18  1 30.0000000  0  6 19 28 18 29 22 14
  22841107.881   -10630930.43849  -8270221.41349  22841109.5654   22841116.0644
  24728172.116    -5242983.367 9  -4077574.771 9  24728173.818    24728180.637
  21337144.379    -9569078.71649  -7442827.40249  21337145.9264   21337151.4404
  20607067.704    -2580062.04549  -2005741.78549  20607069.8944   20607073.7864
  22130707.442     5268654.10749   4105658.83949  22130708.5644   22130713.4224
  21675807.778     7544449.27449   5874149.45749  21675809.3594   21675814.4724
 96  2 12 18  2  0.0000000  0  6 19 28 18 29 22 14
  22828605.453   -10696631.96149  -8321417.37649  22828607.2954   22828612.9824
  24715123.823    -5311552.399 9  -4131005.129 9  24715125.595    24715132.487
  21326077.649    -9627236.67349  -7488145.28849  21326079.1814   21326084.6804
  20606979.457    -2580525.55449  -2006102.96549  20606981.4724   20606985.6064
  22144921.806     5343352.80749   4163865.60649  22144923.2134   22144928.1114
  21692403.294     7631660.16349   5942105.95949  21692405.1054   21692410.7314
 96  2 12 18  2 30.0000000  0  6 19 28 18 29 22 14
  22816140.832   -10762131.23149  -8372455.74649  22816142.6364   22816148.9104
  24702101.676    -5379996.595 9  -4184338.223 9  24702101.071    24702107.903
  21315054.097    -9685161.31249  -7533281.36749  21315056.2124   21315061.8174
  20606955.122    -2580655.79549  -2006204.46149  20606956.8734   20606961.0954
  22159219.939     5418488.54849   4222412.92149  22159221.0544   22159226.1894
  21709068.779     7719240.30049   6010350.19449  21709070.6834   21709077.5214
 96  2 12 18  3  0.0000000  0  6 19 28 18 29 22 14
  22803717.777   -10827413.24949  -8423324.82549  22803719.7684   22803725.9964
  24689102.570    -5448297.040 9  -4237559.283 9  24689103.703    24689110.514
  21304079.699    -9742836.31149  -7578222.92449  21304081.0854   21304086.4674
  20606997.992    -2580426.70949  -2006025.96349  20607000.5534   20607004.4784
  22173599.854     5494059.34949   4281299.24649  22173601.7164   22173606.5544
  21725808.074     7807206.03549   6078894.89149  21725809.9774   21725816.7894
 96  2 12 18  3 30.0000000  0  6 19 28 18 29 22 14
  22791331.631   -10892506.48549  -8474046.80449  22791332.9264   22791339.5734
  24676133.007    -5516456.157 9  -4290670.189 9  24676133.943    24676140.159
  21293152.548    -9800260.32749  -7622968.90949  21293153.5664   21293158.9774
  20607110.246    -2579839.78449  -2005568.62749  20607112.3354   20607116.3854
  22188062.418     5570056.68149   4340517.93849  22188063.5764   22188068.4994
  21742621.234     7895559.63049   6147741.81849  21742622.8144   21742630.0124
 96  2 12 18  4  0.0000000  0  6 19 28 18 29 22 14
  22778975.908   -10957434.10249  -8524639.73449  22778978.0724   22778983.6534
  24663187.835    -5584476.894 9  -4343673.282 9  24663189.397    24663196.287
  21282268.361    -9857453.36749  -7667534.91849  21282270.3324   21282275.5244
  20607288.426    -2578903.44749  -2004839.02449  20607290.3004   20607294.7004
  22202603.654     5646472.42249   4400062.65649  22202605.0114   22202610.1634
  21759506.442     7984290.15449   6216882.45349  21759508.2144   21759514.3574
 96  2 12 18  4 30.0000000  0  6 19 28 18 29 22 14
  22766653.131   -11022189.42249  -8575098.39749  22766655.3994   22766661.7714
  24650272.259    -5652353.238 9  -4396563.836 9  24650273.297    24650280.054
  21271428.390    -9914419.37349  -7711924.01849  21271429.8544   21271434.8884
  20607530.932    -2577628.78949  -2003845.79349  20607532.9284   20607537.2244
  22217225.722     5723307.87049   4459934.41749  22217226.4314   22217231.8854
  21776465.734     8073411.31749   6286327.47949  21776467.8194   21776473.1774
 96  2 12 18  5  0.0000000  0  6 19 28 18 29 22 14
  22754363.190   -11086774.64849  -8625424.53449  22754365.1134   22754371.4034
  24637382.876    -5720088.154 9  -4449344.184 9  24637384.077    24637390.119
  21260628.452    -9971171.44349  -7756146.41249  21260630.3344   21260635.5774
  20607832.505    -2576044.37249  -2002611.19549  20607834.4144   20607838.6064
  22231927.787     5800568.76949   4520137.69549  22231928.7094   22231933.9674
  21793499.183     8162920.25649   6356074.65349  21793500.9304   21793505.8454
 96  2 12 18  5 30.0000000  0  6 19 28 18 29 22 14
  22742104.807   -11151189.95549  -8675618.26349  22742107.0994   22742113.7914
  24624518.908    -5787682.818 9  -4502015.270 9  24624520.924    24624526.896
  21249869.121   -10027712.87549  -7800204.67249  21249870.8334   21249876.0864
  20608192.458    -2574152.79149  -2001137.24849  20608194.4144   20608198.5844
  22246710.171     5878252.32049   4580670.31049  22246711.2764   22246716.4004
  21810604.584     8252805.64049   6426115.17049  21810605.3744   21810610.4004
 96  2 12 18  6  0.0000000  0  6 19 28 18 29 22 14
  22729888.402   -11215389.74649  -8725644.05349  22729890.8304   22729896.8824
  24611687.484    -5855112.228 9  -4554557.550 9  24611689.083    24611695.633
  21239154.094   -10084020.95749  -7844081.09949  21239155.7764   21239161.1774
  20608613.842    -2571934.56849  -1999408.77149  20608616.3604   20608620.6974
  22261576.383     5956375.36649   4641545.38749  22261577.9814   22261582.6514
  21827781.482     8343080.64749   6496459.29849  21827783.7114   21827789.6764
 96  2 12 18  6 30.0000000  0  6 19 28 18 29 22 14
  22717715.059   -11279361.63349  -8775492.25249  22717716.9254   22717723.3604
  24598888.604    -5922370.480 9  -4606966.449 9  24598890.361    24598896.484
  21228484.479   -10140090.70449  -7887771.81249  21228486.0754   21228491.5464
  20609098.703    -2569390.64749  -1997426.51349  20609100.6204   20609104.7904
  22276527.510     6034945.35949   4702768.73849  22276529.0364   22276533.6564
  21845034.975     8433748.51749   6567109.54949  21845036.9604   21845043.7784
 96  2 12 18  7  0.0000000  0  6 19 28 18 29 22 14
  22705582.407   -11343119.88549  -8825173.99149  22705584.4444   22705590.5694
  24586123.119    -5989456.212 9  -4659240.934 9  24586124.634    24586131.059
  21217861.790   -10195918.63949  -7931274.10149  21217862.4274   21217867.7774
  20609646.937    -2566506.98549  -1995179.52149  20609649.0964   20609653.6794
  22291562.124     6113951.28749   4764331.77649  22291563.1884   22291568.1054
  21862363.022     8524803.03149   6638061.07949  21862364.0764   21862371.0714
 96  2 12 18  7 30.0000000  0  6 19 28 18 29 22 14
  22693486.289   -11406686.21049  -8874706.17049  22693488.0704   22693494.0684
  24573389.213    -6056371.814 9  -4711382.846 9  24573390.520    24573396.733
  21207283.154   -10251504.37049  -7974587.66349  21207284.6714   21207290.2334
  20610262.507    -2563271.41449  -1992658.31249  20610265.1634   20610269.1244
  22306676.076     6193375.00649   4826220.36049  22306677.0714   22306682.4464
  21879763.298     8616243.30249   6709313.20749  21879765.1064   21879771.6914
 96  2 12 18  8  0.0000000  0  6 19 28 18 29 22 14
  22681421.261   -11470089.36749  -8924111.20049  22681422.9094   22681428.8744
  24560685.859    -6123126.709 9  -4763399.544 9  24560687.418    24560693.914
  21196747.234   -10306867.78349  -8017727.99149  21196749.6554   21196754.7934
  20610942.035    -2559700.05349  -1989875.44749  20610944.5874   20610948.9224
  22321866.683     6273200.71349   4888422.18649  22321867.2894   22321872.5494
  21897234.260     8708055.02149   6780854.76849  21897236.7354   21897242.9384
 96  2 12 18  8 30.0000000  0  6 19 28 18 29 22 14
  22669384.438   -11533339.17549  -8973396.73449  22669386.5344   22669393.0874
  24548016.625    -6189715.401 9  -4815286.730 9  24548015.901    24548021.720
  21186255.836   -10362004.02149  -8060691.29249  21186257.3434   21186262.9944
  20611688.100    -2555779.63349  -1986820.58549  20611690.6814   20611695.1314
  22337132.403     6353424.91149   4950934.52549  22337133.6324   22337138.9844
  21914776.556     8800235.35049   6852683.55849  21914777.9794   21914783.7944
 96  2 12 18  9  0.0000000  0  6 19 28 18 29 22 14
  22657377.314   -11596434.27049  -9022561.71449  22657379.9524   22657386.4194
  24535375.787    -6256135.491 9  -4867042.554 9  24535376.980    24535383.162
  21175810.614   -10416894.39649  -8103463.01049  21175812.0494   21175817.4274
  20612501.835    -2551504.81649  -1983489.57349  20612504.0364   20612508.6784
  22352472.499     6434037.94449   5013749.84849  22352473.7134   22352479.2334
  21932384.252     8892771.12049   6924789.31649  21932386.4184   21932392.5354
 96  2 12 18  9 30.0000000  0  6 19 28 18 29 22 14
  22645405.438   -11659353.61349  -9071589.74149  22645407.0814   22645413.4184
  24522769.055    -6322376.491 9  -4918658.804 9  24522771.328    24522777.117
  21165414.724   -10471524.76249  -8146032.12749  21165416.3324   21165421.3714
  20613382.070    -2546882.98849  -1979888.15649  20613383.7894   20613388.3114
  22367887.362     6515043.93549   5076871.36249  22367888.9174   22367894.0634
  21950058.158     8985649.31349   6997161.88949  21950060.1754   21950066.9084
 96  2 12 18 10  0.0000000  0  6 19 28 18 29 22 14
  22633469.105   -11722075.24449  -9120463.70749  22633471.2484   22633477.7174
  24510199.364    -6388436.361 9  -4970133.929 9  24510200.546    24510206.459
  21155069.994   -10525890.97849  -8188395.41249  21155070.6164   21155075.8064
  20614325.038    -2541925.01449  -1976024.81549  20614327.1644   20614331.2204
  22383378.043     6596447.77949   5140302.89749  22383379.5824   22383384.4714
  21967794.843     9078855.01249   7069789.67349  21967796.9984   21967803.4874
 96  2 12 18 10 30.0000000  0  6 19 28 18 29 22 14
  22621572.701   -11784595.47549  -9169180.74049  22621574.0144   22621580.2124
  24497661.633    -6454321.411 9  -5021472.868 9  24497662.992    24497669.117
  21144776.221   -10579981.57649  -8230543.93449  21144777.7324   21144782.8824
  20615329.497    -2536646.80749  -1971911.94149  20615331.5624   20615335.9554
  22398943.770     6678246.19549   5204041.88949  22398945.1514   22398950.3474
  21985593.702     9172383.68549   7142669.12749  21985595.4214   21985601.5624
 96  2 12 18 11  0.0000000  0  6 19 28 18 29 22 14
  22609716.242   -11846901.64849  -9217730.97149  22609718.0034   22609723.9584
  24485159.392    -6520016.859 9  -5072664.054 9  24485161.335    24485167.314
  21134537.621   -10633786.23449  -8272469.64349  21134539.1794   21134544.4124
  20616396.272    -2531040.53549  -1967543.43449  20616398.5904   20616402.7424
  22414588.722     6760459.63949   5268104.27649  22414590.1684   22414595.1964
  22003457.428     9266256.01649   7215816.36049  22003459.0454   22003464.8634
 96  2 12 18 11 30.0000000  0  6 19 28 18 29 22 14
  22597896.272   -11909014.89449  -9266130.87349  22597897.8434   22597903.8984
  24472694.243    -6585529.984 9  -5123713.195 9  24472693.980    24472700.299
  21124349.449   -10687327.06149  -8314189.77149  21124350.4704   21124355.6634
  20617523.813    -2525117.55849  -1962928.14149  20617525.6754   20617530.1324
  22430311.020     6843078.45649   5332482.54749  22430312.3004   22430317.1924
  22021386.196     9360473.21149   7289232.32249  22021388.0014   22021393.9664
 96  2 12 18 12  0.0000000  0  6 19 28 18 29 22 14
  22586113.450   -11970934.17249  -9314379.62849  22586114.8044   22586120.8764
  24460261.623    -6650852.290 9  -5174613.685 9  24460263.379    24460269.994
  21114211.071   -10740603.35649  -8355703.76749  21114212.3614   21114217.4584
  20618714.550    -2518860.12949  -1958052.23849  20618716.3224   20618720.7264
  22446111.535     6926110.90649   5397183.12449  22446112.4464   22446117.4984
  22039382.957     9455049.49149   7362928.08749  22039384.8344   22039390.9894
 96  2 12 18 12 30.0000000  0  6 19 28 18 29 22 14
  22574363.728   -12032678.25849  -9362491.87449  22574365.2374   22574371.5644
  24447866.073    -6715989.800 9  -5225370.155 9  24447867.957    24447874.417
  21104119.934   -10793632.01449  -8397024.80249  21104121.4854   21104126.6904
  20619968.171    -2512271.05449  -1952917.90749  20619970.2924   20619974.6164
  22461987.013     7009537.71249   5462190.99149  22461987.9774   22461993.0314
  22057445.456     9549970.80949   7436892.71949  22057447.3714   22057453.6514
 96  2 12 18 13  0.0000000  0  6 19 28 18 29 22 14
  22562653.341   -12094216.69449  -9410443.88349  22562654.7204   22562660.8944
  24435512.859    -6780914.871 9  -5275961.110 9  24435513.426    24435520.046
  21094078.615   -10846399.59549  -8438142.40149  21094080.1254   21094085.2984
  20621290.477    -2505320.52749  -1947501.92349  20621292.7844   20621297.1554
  22477938.899     7093367.70149   5527513.02549  22477940.2874   22477945.5454
  22075577.454     9645253.65149   7511139.05149  22075579.6314   22075585.4674
 96  2 12 18 13 30.0000000  0  6 19 28 18 29 22 14
  22550982.215   -12155553.97749  -9458239.14549  22550982.9544   22550989.1474
  24423195.793    -6845637.470 9  -5326394.299 9  24423197.293    24423203.685
  21084085.768   -10898912.76249  -8479061.74649  21084087.0994   21084092.3004
  20622678.635    -2498027.25749  -1941818.86249  20622680.9784   20622684.9684
  22493964.800     7177579.85049   5593132.85449  22493965.2294   22493970.5074
  22093773.196     9740870.75949   7585645.84849  22093775.1904   22093781.6524
 96  2 12 18 14  0.0000000  0  6 19 28 18 29 22 14
  22539348.555   -12216681.90149  -9505871.26849  22539350.4774   22539356.8144
  24410917.012    -6910160.173 9  -5376671.724 9  24410918.833    24410925.602
  21074140.235   -10951174.83449  -8519785.44449  21074142.0484   21074147.1964
  20624129.230    -2490405.92849  -1935880.17749  20624131.1554   20624135.2314
  22510060.663     7262166.00849   5659044.12049  22510061.2734   22510066.7054
  22112030.631     9836813.44149   7660406.33449  22112032.8204   22112038.1164
 96  2 12 18 14 30.0000000  0  6 19 28 18 29 22 14
  22527755.345   -12277604.00049  -9553343.00849  22527757.4344   22527764.0894
  24398680.093    -6974476.344 9  -5426788.221 9  24398679.756    24398686.482
  21064245.677   -11003183.01549  -8560311.30649  21064245.3324   21064250.3344
  20625639.976    -2482455.38749  -1929684.96349  20625644.2304   20625648.4704
  22526226.420     7347117.99949   5725240.44949  22526227.6544   22526232.4664
  22130352.048     9933090.11449   7735427.07549  22130353.5014   22130359.0584
 96  2 12 18 15  0.0000000  0  6 19 28 18 29 22 14
  22516201.688   -12338321.58249  -9600655.38749  22516203.5564   22516209.5834
  24386480.514    -7038577.980 9  -5476737.539 9  24386482.216    24386488.228
  21054396.813   -11054927.16149  -8600631.42149  21054398.7514   21054403.7854
  20627219.362    -2474166.79749  -1923226.34349  20627221.4964   20627225.7024
  22542463.320     7432439.18149   5791724.45849  22542463.3794   22542468.9094
  22148738.668    10029716.64249   7810720.42749  22148740.7424   22148747.0364
 96  2 12 18 15 30.0000000  0  6 19 28 18 29 22 14
  22504685.227   -12398844.54249  -9647816.11649  22504686.3014   22504692.4164
  24374323.640    -7102461.454 9  -5526516.875 9  24374325.906    24374331.818
  21044600.286   -11106412.26849  -8640749.69249  21044601.4374   21044606.4324
  20628862.256    -2465531.22149  -1916497.34549  20628864.5274   20628869.2034
  22558770.869     7518137.82749   5858502.59749  22558771.4564   22558776.2014
  22167191.148    10126689.43049   7886283.61149  22167193.3854   22167200.4944
 96  2 12 18 16  0.0000000  0  6 19 28 18 29 22 14
  22493199.831   -12459196.32149  -9694843.45149  22493201.5184   22493207.8374
  24362207.386    -7166137.031 9  -5576134.217 9  24362208.561    24362215.027
  21034848.683   -11157654.49949  -8680678.70749  21034850.1404   21034855.3904
  20630572.250    -2456547.62949  -1909497.16549  20630574.1014   20630578.5494
  22575146.170     7604191.93049   5925557.70949  22575146.8074   22575151.9044
  22185708.278    10223991.22749   7962103.15149  22185709.5044   22185716.6674
 96  2 12 18 16 30.0000000  0  6 19 28 18 29 22 14
  22481747.983   -12519376.58449  -9741737.13849  22481749.2764   22481755.9904
  24350132.132    -7229598.935 9  -5625585.038 9  24350132.448    24350139.003
  21025147.016   -11208639.90849  -8720407.60149  21025148.3204   21025153.3914
  20632353.151    -2447190.74549  -1902206.10149  20632354.8094   20632359.1514
  22591588.743     7690597.48249   5992886.68449  22591589.9064   22591595.0914
  22204282.541    10321602.13249   8038163.55549  22204284.5444   22204290.9524
 96  2 12 18 17  0.0000000  0  6 19 28 18 29 22 14
  22470333.204   -12579361.47549  -9788478.58649  22470334.8804   22470341.2834
  24338095.404    -7292838.055 9  -5674862.254 9  24338098.306    24338104.593
  21015497.577   -11259345.55649  -8759918.50049  21015499.1874   21015504.2284
  20634205.841    -2437456.04949  -1894620.63749  20634207.4074   20634211.6894
  22608099.741     7777363.83549   6060496.78749  22608100.5874   22608105.9514
  22222914.069    10419508.53449   8114454.22749  22222915.9814   22222921.9064
 96  2 12 18 17 30.0000000  0  6 19 28 18 29 22 14
  22458955.904   -12639154.78849  -9835070.76049  22458956.6284   22458963.1994
  24326103.958    -7355863.277 9  -5723972.782 9  24326104.895    24326111.514
  21005902.477   -11309769.35049  -8799209.77449  21005903.9334   21005909.1014
  20636127.405    -2427356.02049  -1886750.49849  20636129.3354   20636133.8524
  22624675.140     7864469.46349   6128371.26749  22624676.6234   22624681.4374
  22241595.925    10517683.76349   8190954.35949  22241598.1424   22241604.0334
 96  2 12 18 18  0.0000000  0  6 19 28 18 29 22 14
  22447618.649   -12698727.97549  -9881491.40349  22447620.3254   22447626.6024
  24314154.060    -7418658.115 9  -5772903.792 9  24314155.343    24314161.594
  20996366.988   -11359879.77549  -8838256.86249  20996368.0924   20996373.0674
  20638121.109    -2416876.21249  -1878584.42549  20638123.2694   20638127.9154
  22641318.760     7951928.62149   6196521.22549  22641318.9034   22641324.5164
  22260331.657    10616137.91449   8267671.84449  22260333.3394   22260339.2604
 96  2 12 18 18 30.0000000  0  6 19 28 18 29 22 14
  22436325.354   -12758073.14749  -9927734.37049  22436327.5104   22436333.5924
  24302249.575    -7481220.548 9  -5821653.691 9  24302250.382    24302256.402
  20986889.608   -11409680.58949  -8877062.69349  20986891.3844   20986896.5764
  20640187.369    -2406021.04749  -1870125.87349  20640188.9254   20640193.1814
  22658029.688     8039746.97149   6264951.07349  22658030.7854   22658035.8454
  22279122.122    10714878.45749   8344612.49549  22279122.8244   22279128.9544
 96  2 12 18 19  0.0000000  0  6 19 28 18 29 22 14
  22425076.594   -12817189.78249  -9973799.25849  22425078.0574   22425083.7904
  24290391.093    -7543538.451 9  -5870213.041 9  24290391.780    24290397.736
  20977470.708   -11459179.65149  -8915633.39849  20977472.1294   20977477.2114
  20642322.928    -2394797.33349  -1861380.13149  20642324.6284   20642329.2944
  22674812.444     8127942.31249   6333674.68549  22674813.4424   22674818.6984
  22297970.756    10813940.80949   8421803.92749  22297973.6854   22297979.8164
 96  2 12 18 19 30.0000000  0  6 19 28 18 29 22 14
  22413865.632   -12876100.22549 -10019703.48849  22413867.7064   22413873.7144
  24278577.416    -7605615.787 9  -5918584.958 9  24278578.474    24278584.650
  20968103.446   -11508403.92149  -8953989.97649  20968104.9324   20968109.9744
  20644528.351    -2383211.34249  -1852352.10449  20644529.8174   20644534.1324
  22691667.083     8216511.83449   6402689.86149  22691667.8544   22691673.1764
  22316883.369    10913323.44149   8499244.91449  22316885.2504   22316891.9364
 96  2 12 18 20  0.0000000  0  6 19 28 18 29 22 14
  22402691.435   -12934819.80149 -10065458.98249  22402693.7694   22402699.5684
  24266811.760    -7667446.382 9  -5966764.603 9  24266812.453    24266818.943
  20958785.969   -11557367.71449  -8992143.58749  20958787.6124   20958792.6614
  20646800.704    -2371267.60849  -1843045.32349  20646802.5664   20646806.8624
  22708593.700     8305461.97049   6472001.62249  22708594.5484   22708599.5154
  22335858.520    11013036.47749   8576943.35949  22335860.1374   22335866.7774
 96  2 12 18 20 30.0000000  0  6 19 28 18 29 22 14
  22391546.450   -12993388.13249 -10111096.62849  22391548.2624   22391554.2334
  24255092.550    -7729034.497 9  -6014755.299 9  24255092.710    24255098.921
  20949515.408   -11606083.45449  -9030103.90649  20949516.9924   20949522.1594
  20649137.670    -2358982.88449  -1833472.81249  20649140.2314   20649144.6704
  22725585.671     8394761.19949   6541585.39549  22725587.6674   22725592.9224
  22354895.231    11113078.22349   8654897.93249  22354897.2804   22354904.0414
 96  2 12 18 21  0.0000000  0  6 19 28 18 29 22 14
  22380429.370   -13051812.71249 -10156622.26149  22380430.8434   22380435.9104
  24243418.269    -7790373.175 9  -6062551.634 9  24243420.342    24243426.258
  20940295.626   -11654534.23549  -9067857.76849  20940297.2244   20940302.5214
  20651540.269    -2346359.08949  -1823636.09949  20651542.3634   20651546.8654
  22742644.459     8484401.65049   6611435.06449  22742645.6554   22742651.1134
  22373993.868    11213439.12849   8733101.20349  22373995.1784   22374002.5104
 96  2 12 18 21 30.0000000  0  6 19 28 18 29 22 14
  22369336.514   -13110102.88049 -10202043.15649  22369338.3974   22369344.0514
  24231794.131    -7851469.075 9  -6110158.800 9  24231793.728    24231800.040
  20931128.309   -11702710.19849  -9105397.48949  20931129.9014   20931134.9024
  20654006.079    -2333404.07349  -1813541.29249  20654007.4684   20654012.1214
  22759762.253     8574354.17049   6681527.89749  22759763.0974   22759768.3554
  22393145.869    11314082.59949   8811524.65549  22393147.9534   22393153.3264
 96  2 12 18 22  0.0000000  0  7 19 28 18 29 22 14 31
  22358275.240   -13168228.16449 -10247335.57049  22358277.6844   22358283.1454
  24220216.575    -7912304.857 9  -6157563.282 9  24220217.704    24220223.216
  20922018.708   -11750580.04049  -9142698.67249  20922020.3614   20922025.4054
  20656540.164    -2320082.47549  -1803160.82849  20656542.7284   20656547.0134
  22776939.892     8664624.09049   6751868.05549  22776941.3404   22776946.0824
  22412353.156    11415021.30449   8890178.16449  22412355.8894   22412361.9584
  24686786.103    -4656985.64459  -3611498.44259  24686787.1834   24686794.3784
 96  2 12 18 22 30.0000000  0  7 19 28 18 29 22 14 31
  22347253.324   -13226146.69649 -10292466.88349  22347255.5294   22347261.5624
  24208690.981    -7972868.217 9  -6204755.482 9  24208692.161    24208698.543
  20912971.704   -11798124.66549  -9179746.43649  20912972.8684   20912977.9004
  20659150.153    -2306373.89449  -1792478.82349  20659151.5254   20659155.6974
  22794179.549     8755219.12749   6822461.55649  22794180.8054   22794186.1854
  22431616.899    11516247.28249   8969055.51449  22431618.6764   22431624.0614
  24670395.588    -4743108.35749  -3678606.91349  24670397.9944   24670406.5544
 96  2 12 18 23  0.0000000  0  7 19 28 18 29 22 14 31
  22336274.179   -13283841.19049 -10337423.61849  22336277.1214   22336282.8354
  24197213.346    -8033177.547 9  -6251749.753 9  24197215.784    24197222.360
  20903983.406   -11845356.47449  -9216550.45249  20903985.0984   20903990.0714
  20661828.333    -2292292.69749  -1781506.47349  20661830.9204   20661835.2144
  22811480.243     8846128.79649   6893300.22849  22811480.2714   22811485.6314
  22450926.887    11617723.33349   9048127.74349  22450928.7194   22450934.7544
  24654000.702    -4829263.91249  -3745740.99949  24654003.8984   24654011.0524
 96  2 12 18 23 30.0000000  0  7 19 28 18 29 22 14 31
  22325339.922   -13341302.21849 -10382198.42749  22325342.3914   22325348.7884
  24185786.417    -8093233.019 9  -6298546.199 9  24185787.556    24185794.118
  20895052.906   -11892286.31249  -9253119.16549  20895054.6204   20895059.7024
  20664581.188    -2277828.91549  -1770235.99549  20664583.5014   20664587.8374
  22828838.488     8937355.72349   6964386.10349  22828840.0794   22828845.5434
  22470284.362    11719452.37649   9127397.12149  22470286.8244   22470293.2544
  24637599.923    -4915457.06049  -3812904.37049  24637601.8504   24637607.1644
 96  2 12 18 24  0.0000000  0  7 19 28 18 29 22 14 31
  22314451.055   -13398525.32449 -10426787.84449  22314453.0164   22314458.9854
  24174407.413    -8153034.464 9  -6345144.715 9  24174407.668    24174414.023
  20886179.580   -11938918.81549  -9289456.18549  20886180.6714   20886185.9114
  20667406.067    -2262986.78849  -1758670.71249  20667407.4574   20667411.9624
  22846261.059     9028912.45949   7035728.97549  22846262.5324   22846268.2264
  22489691.993    11821441.85749   9206869.42049  22489694.2884   22489701.1764
  24621192.534    -5001683.27349  -3880093.55949  24621192.6224   24621199.6924
 96  2 12 18 24 30.0000000  0  7 19 28 18 29 22 14 31
  22303606.311   -13455513.87949 -10471194.49349  22303608.6124   22303614.8514
  24163077.897    -8212563.585 9  -6391531.035 9  24163079.923    24163085.802
  20877364.623   -11985240.19949  -9325550.77349  20877366.0834   20877371.1974
  20670297.890    -2247786.75149  -1746826.53349  20670300.2634   20670304.5924
  22863752.311     9120821.25149   7107346.18449  22863752.2324   22863757.6624
  22509154.433    11923710.05649   9286558.90649  22509155.7334   22509163.0384
  24604776.834    -5087924.71349  -3947294.56549  24604781.6044   24604788.3404
 96  2 12 18 25  0.0000000  0  7 19 28 18 29 22 14 31
  22292802.402   -13512288.91649 -10515434.76449  22292804.6354   22292810.6874
  24151802.701    -8271813.990 9  -6437700.147 9  24151804.852    24151810.353
  20868610.892   -12031241.96049  -9361396.30749  20868612.2734   20868617.2744
  20673257.290    -2232235.85449  -1734708.95549  20673259.3944   20673263.9584
  22881308.836     9213085.36049   7179240.24849  22881309.7844   22881315.2804
  22528672.119    12026278.79749   9366482.57849  22528674.2884   22528680.6394
  24588370.756    -5174168.92249  -4014497.74349  24588369.7234   24588376.7414
 96  2 12 18 25 30.0000000  0  7 19 28 18 29 22 14 31
  22282035.115   -13568874.12849 -10559527.12349  22282036.5444   22282042.9244
  24140581.361    -8330785.405 9  -6483651.857 9  24140582.832    24140588.616
  20859915.387   -12076937.70549  -9397003.38249  20859916.6734   20859921.8104
  20676281.979    -2216343.51149  -1722325.31649  20676283.9144   20676288.1704
  22898934.608     9305706.87049   7251412.81749  22898935.1704   22898940.9234
  22548248.655    12129146.24649   9446638.99849  22548249.8234   22548255.5694
  24571955.186    -5260419.31549  -4081705.76849  24571956.3544   24571964.0724
 96  2 12 18 26  0.0000000  0  7 19 28 18 29 22 14 31
  22271298.868   -13625297.15649 -10603493.10249  22271299.8894   22271306.0084
  24129410.151    -8389490.665 9  -6529396.198 9  24129411.865    24129417.339
  20851275.722   -12122338.32949  -9432380.49549  20851277.3574   20851282.3214
  20679364.970    -2200141.09349  -1709700.05949  20679367.0424   20679371.3514
  22916623.154     9398658.48449   7323842.60749  22916623.1894   22916628.2084
  22567874.487    12232283.47349   9527005.62449  22567876.4194   22567881.7624
  24555540.198    -5346684.12149  -4148925.02549  24555541.4274   24555548.6724
 96  2 12 18 26 30.0000000  0  7 19 28 18 29 22 14 31
  22260595.685   -13681541.00249 -10647319.46449  22260597.1354   22260602.6294
  24118294.051    -8447907.264 9  -6574915.599 9  24118295.316    24118301.123
  20842696.549   -12167422.66949  -9467511.14949  20842697.9624   20842702.9114
  20682513.480    -2183594.16649  -1696806.35849  20682515.7034   20682520.2014
  22934372.099     9491937.69249   7396527.66549  22934373.9564   22934379.1854
  22587553.176    12335695.03049   9607586.01249  22587554.3394   22587561.0104
  24539125.604    -5432944.26449  -4216140.68949  24539126.7894   24539133.5394
 96  2 12 18 27  0.0000000  0  8 19 28 18 29 22 14 31 27
  22249924.464   -13737617.06749 -10691015.08149  22249926.1514   22249931.6834
  24107229.972    -8506051.228 9  -6620222.578 9  24107230.859    24107237.131
  20834174.367   -12212205.43049  -9502406.80849  20834175.9014   20834180.9584
  20685731.036    -2166686.81049  -1683631.81149  20685733.2334   20685737.7894
  22952180.660     9585515.84149   7469445.66749  22952181.3904   22952186.6094
  22607276.899    12439345.87849   9688352.87149  22607278.2814   22607284.8454
  24522707.261    -5519214.65049  -4283364.36349  24522709.7784   24522717.4404
  25143428.531    -4626819.79959  -3586323.10459  25143429.6114   25143437.4004
 96  2 12 18 27 30.0000000  0  8 19 28 18 29 22 14 31 27
  22239287.071   -13793518.06449 -10734574.28649  22239288.3234   22239294.2124
  24096220.088    -8563909.913 9  -6665307.270 9  24096220.688    24096226.923
  20825711.180   -12256682.73649  -9537064.45249  20825712.5384   20825717.4034
  20689021.925    -2149394.55349  -1670157.34049  20689023.8394   20689028.1764
  22970046.270     9679401.28049   7542603.11349  22970046.7024   22970051.8804
  22627042.832    12543224.30049   9769297.06449  22627045.2414   22627052.1024
  24506294.088    -5605486.06149  -4350588.81549  24506292.7444   24506299.8664
  25128623.316    -4704617.69449  -3646944.80549  25128625.2994   25128632.8754
 96  2 12 18 28  0.0000000  0  8 19 28 18 29 22 14 31 27
  22228682.716   -13849240.25649 -10777994.16449  22228684.7034   22228690.4254
  24085264.381    -8621478.249 9  -6710165.693 9  24085265.805    24085271.442
  20817307.947   -12300841.04249  -9571473.52449  20817309.3444   20817314.1994
  20692389.359    -2131696.59249  -1656366.72849  20692391.8364   20692396.1934
  22987967.522     9773576.97949   7615986.72849  22987968.0104   22987972.9904
  22646856.022    12647341.79349   9850427.55549  22646858.0524   22646865.3714
  24489873.907    -5691748.74549  -4417806.49149  24489876.4034   24489885.3724
  25113832.539    -4782343.44749  -3707510.31849  25113833.1364   25113841.8724
 96  2 12 18 28 30.0000000  0  8 19 28 18 29 22 14 31 27
  22218116.069   -13904772.29749 -10821265.87249  22218117.6884   22218123.5434
  24074367.549    -8678748.735 9  -6754792.031 9  24074368.046    24074373.323
  20808966.110   -12344675.37149  -9605630.14749  20808967.8054   20808973.1694
  20695839.878    -2113563.85049  -1642237.33549  20695842.1164   20695846.7544
  23005943.868     9868046.85549   7689599.57249  23005944.6784   23005950.7834
  22666716.943    12751711.77549   9931754.78149  22666719.1884   22666726.0014
  24473463.083    -5777994.00149  -4485010.57849  24473465.4704   24473473.0814
  25099055.343    -4859993.74149  -3768017.02749  25099057.8534   25099066.0064
 96  2 12 18 29  0.0000000  0  8 19 28 18 29 22 14 31 27
  22207581.993   -13960125.75449 -10864398.42649  22207584.2954   22207590.2844
  24063524.196    -8735729.055 9  -6799192.264 9  24063524.925    24063530.708
  20800684.558   -12388194.75549  -9639541.35749  20800686.2654   20800691.3224
  20699369.776    -2095017.48449  -1627785.63449  20699371.2394   20699375.6274
  23023977.662     9962811.48449   7763442.09449  23023978.6344   23023983.5264
  22686625.800    12856329.81449  10013275.29449  22686627.3814   22686634.8134
  24457054.716    -5864225.70149  -4552204.12749  24457056.5284   24457063.4464
  25084293.633    -4937576.04949  -3828470.76349  25084295.1694   25084301.9224
 96  2 12 18 29 30.0000000  0  8 19 28 18 29 22 14 31 27
  22197085.528   -14015284.10449 -10907378.95849  22197088.0804   22197093.7524
  24052736.809    -8792408.882 9  -6843358.371 9  24052738.573    24052744.566
  20792465.203   -12431389.29949  -9673199.45049  20792466.5464   20792471.9084
  20702975.455    -2076069.03149  -1613020.62149  20702976.8044   20702981.6904
  23042065.305    10057868.28949   7837512.28149  23042066.7424   23042072.9144
  22706582.811    12961206.62449  10094997.43249  22706585.0074   22706591.9404
  24440649.959    -5950438.83749  -4619383.21949  24440649.9254   24440657.6054
  25069549.680    -5015064.86049  -3888851.64649  25069551.0624   25069555.8214
 96  2 12 18 30  0.0000000  0  8 19 28 18 29 22 14 31 27
  22186628.422   -14070239.47349 -10950201.31549  22186630.5154   22186636.1064
  24042008.016    -8848798.706 9  -6887298.471 9  24042008.288    24042014.587
  20784305.833   -12474267.75649  -9706611.23749  20784307.3684   20784312.3824
  20706654.263    -2056737.85349  -1597957.37849  20706655.7044   20706659.9944
  23060206.143    10153199.19049   7911796.06049  23060207.5894   23060213.5514
  22726590.244    13066334.17949  10176914.97149  22726590.7574   22726596.9764
  24424241.015    -6036651.30749  -4686561.77149  24424244.5964   24424251.9694
  25054816.185    -5092476.25149  -3949172.16949  25054818.6334   25054825.0394
 96  2 12 18 30 30.0000000  0  8 19 28 18 29 22 14 31 27
  22176212.828   -14124978.70549 -10992855.25549  22176213.7524   22176219.2864
  24031331.793    -8904895.754 9  -6931010.450 9  24031333.232    24031339.516
  20776206.796   -12516829.09649  -9739775.92349  20776208.1384   20776213.2444
  20710401.991    -2037037.64049  -1582606.57949  20710404.4354   20710408.8854
  23078403.309    10248823.01149   7986308.07849  23078404.5074   23078410.0414
  22746638.279    13171691.60049  10259011.61549  22746639.7994   22746646.1044
  24407838.002    -6122861.95749  -4753738.85549  24407839.7614   24407846.4384
  25040098.645    -5169821.41249  -4009441.08749  25040100.2214   25040106.7134
 96  2 12 18 31  0.0000000  0  8 19 28 18 29 22 14 31 27
  22165839.057   -14179485.03549 -11035327.70249  22165841.5174   22165847.3274
  24020716.426    -8960684.474 9  -6974482.174 9  24020717.238    24020723.202
  20768171.562   -12559052.70549  -9772677.43749  20768173.3504   20768178.1694
  20714219.507    -2016977.06349  -1566974.97549  20714222.0094   20714226.3584
  23096660.046    10344758.76249   8061063.16749  23096660.4974   23096665.7304
  22766731.371    13277281.22949  10341289.20049  22766732.1364   22766738.9104
  24391437.227    -6209054.44249  -4820901.79149  24391438.5814   24391444.5804
  25025393.633    -5247090.47649  -4069650.69149  25025395.3714   25025402.3414
 96  2 12 18 31 30.0000000  0  8 19 28 18 29 22 14 31 27
  22155511.568   -14233761.01949 -11077620.66649  22155513.0474   22155518.8934
  24010158.019    -9016165.990 9  -7017714.524 9  24010159.333    24010165.229
  20760199.650   -12600948.62949  -9805323.61449  20760200.8174   20760205.9724
  20718106.417    -1996554.11749  -1551061.00949  20718108.3684   20718112.7364
  23114972.183    10440991.78749   8136049.89549  23114973.1804   23114978.6794
  22786868.172    13383103.98649  10423748.45349  22786870.1394   22786876.2934
  24375038.303    -6295228.03549  -4888049.98049  24375039.3374   24375046.4674
  25010703.599    -5324298.85149  -4129813.01249  25010703.4394   25010711.1714
 96  2 12 18 32  0.0000000  0  8 19 28 18 29 22 14 31 27
  22145224.179   -14287820.17549 -11119744.67149  22145225.7664   22145231.6334
  23999659.297    -9071339.842 9  -7060707.158 9  23999660.368    23999665.842
  20752289.578   -12642518.06949  -9837715.38649  20752290.3824   20752295.3164
  20722063.449    -1975757.97649  -1534856.24149  20722065.8664   20722070.3844
  23133339.457    10537517.52549   8211264.71349  23133341.4134   23133347.2504
  22807049.321    13489163.32949  10506392.05149  22807052.0234   22807059.7004
  24358644.859    -6381378.48949  -4955180.11749  24358644.6444   24358652.6874
  24996017.717    -5401463.45249  -4189941.23749  24996019.8924   24996027.2964
 96  2 12 18 32 30.0000000  0  8 19 28 18 29 22 14 31 27
  22134972.217   -14341694.16349 -11161724.39949  22134973.9084   22134979.8224
  23989217.820    -9126207.369 9  -7103461.082 9  23989219.409    23989225.072
  20744440.520   -12683764.12149  -9869855.17049  20744441.2674   20744446.3154
  20726090.984    -1954597.60649  -1518367.65549  20726092.5594   20726097.0234
  23151760.619    10634320.20949   8286695.33249  23151762.2474   23151767.9964
  22827276.114    13595452.99249  10589215.12049  22827277.8764   22827286.0124
  24342253.889    -6467508.48849  -5022294.29949  24342255.0184   24342263.3604
  24981342.851    -5478585.88649  -4250036.61149  24981343.1304   24981350.9844
 96  2 12 18 33  0.0000000  0  8 19 28 18 29 22 14 31 27
  22124752.275   -14395397.77949 -11203571.36749  22124754.6024   22124760.4264
  23978836.059    -9180762.722 9  -7145971.756 9  23978838.110    23978843.573
  20736653.200   -12724682.50449  -9901739.62549  20736655.0554   20736660.0054
  20730187.746    -1933067.27349  -1501590.79349  20730189.5734   20730193.8864
  23170231.884    10731381.95949   8362327.81949  23170232.2664   23170238.1314
  22847548.241    13701987.81249  10672229.21649  22847550.9454   22847558.1994
  24325866.712    -6553618.07849  -5089392.59549  24325867.5424   24325876.5604
  24966674.912    -5555662.66849  -4310096.40149  24966676.8104   24966683.0484
 96  2 12 18 33 30.0000000  0  8 19 28 18 29 22 14 31 27
  22114564.160   -14448940.26049 -11245292.77449  22114565.9774   22114571.8534
  23968516.274    -9235001.617 9  -7188235.831 9  23968516.525    23968522.597
  20728928.636   -12765275.82249  -9933370.78549  20728930.1904   20728935.4184
  20734356.714    -1911159.48549  -1484519.80049  20734358.4554   20734362.9674
  23188751.067    10828694.98849   8438156.11949  23188750.4094   23188755.9714
  22867866.780    13808761.28449  10755429.28249  22867869.4704   22867876.9734
  24309485.380    -6639711.86949  -5156478.52649  24309487.1454   24309493.2614
  24952016.302    -5632692.26949  -4370119.41849  24952019.1024   24952024.1514
 96  2 12 18 34  0.0000000  0  8 19 28 18 29 22 14 31 27
  22104405.224   -14502329.03649 -11286894.41449  22104406.0964   22104412.1314
  23958254.221    -9288926.571 9  -7230255.287 9  23958254.794    23958261.386
  20721266.846   -12805541.50149  -9964746.64349  20721267.9124   20721272.9954
  20738594.991    -1888886.99349  -1467164.63649  20738596.8764   20738601.3264
  23207314.732    10926255.25849   8514177.05749  23207315.6364   23207321.5774
  22888227.748    13915746.87949  10838794.63249  22888228.7724   22888235.0834
  24293103.223    -6725795.68949  -5223556.73049  24293104.9574   24293109.2454
  24937367.047    -5709671.94449  -4430103.52949  24937368.6294   24937375.8164
 96  2 12 18 34 30.0000000  0  8 19 28 18 29 22 14 31 27
  22094278.373   -14555543.96649 -11328360.57949  22094279.5244   22094285.5824
  23948055.158    -9342523.716 9  -7272019.288 9  23948055.633    23948061.636
  20713669.200   -12845463.54549  -9995854.72749  20713671.1244   20713675.9654
  20742902.235    -1866252.42149  -1449527.33249  20742904.0854   20742908.3654
  23225930.312    11024080.37149   8590404.37149  23225931.4094   23225936.5754
  22908626.244    14022944.45449  10922325.16249  22908626.9694   22908634.4504
  24276727.347    -6811848.80449  -5290610.95749  24276728.7034   24276735.5064
  24922730.547    -5786585.95449  -4490036.48449  24922733.5264   24922740.6014
 96  2 12 18 35  0.0000000  0  8 19 28 18 29 22 14 31 27
  22084189.471   -14608558.38949 -11369670.51149  22084191.4544   22084197.4014
  23937918.456    -9395785.982 9  -7313522.367 9  23937920.200    23937926.296
  20706140.692   -12885029.05849 -10026685.00049  20706142.2604   20706147.4244
  20747281.820    -1843235.38049  -1431591.98949  20747284.0564   20747288.8284
  23244598.458    11122178.80949   8666844.67749  23244599.4654   23244604.5154
  22929064.905    14130352.13249  11006019.41249  22929066.3124   22929073.2764
  24260364.088    -6897841.60049  -5357618.20249  24260364.3664   24260371.5764
  24908109.503    -5863422.83849  -4549909.33049  24908111.9934   24908119.2184
 96  2 12 18 35 30.0000000  0  8 19 28 18 29 22 14 31 27
  22074139.839   -14661364.24149 -11410817.92749  22074142.8944   22074148.6714
  23927847.077    -9448712.262 9  -7354763.610 9  23927848.613    23927854.660
  20698679.823   -12924239.58849 -10057238.65949  20698680.7164   20698685.7424
  20751735.941    -1819831.53549  -1413355.24449  20751737.6554   20751742.2224
  23263315.365    11220542.72649   8743491.84749  23263316.8994   23263322.9644
  22949542.995    14237967.16249  11089875.21649  22949544.6884   22949551.9984
  24244013.164    -6983762.54749  -5424569.47249  24244014.4544   24244020.9274
  24893504.966    -5940172.75049  -4609714.41749  24893506.8494   24893514.1504
 96  2 12 18 36  0.0000000  0  8 19 28 18 29 22 14 31 27
  22064127.908   -14713984.09349 -11451820.40649  22064129.3994   22064135.3394
  23917834.503    -9501327.295 9  -7395762.321 9  23917836.349    23917842.367
  20691281.602   -12963115.90149 -10087531.89249  20691282.7914   20691287.9034
  20756259.641    -1796062.15249  -1394833.66249  20756260.8974   20756265.5604
  23282079.584    11319144.83349   8820324.61549  23282080.1974   23282085.9354
  22970056.935    14345768.96249  11173876.58349  22970059.5434   22970066.2184
  24227673.527    -7069623.29949  -5491473.84849  24227676.8064   24227683.1274
  24878911.701    -6016861.77749  -4669472.06749  24878912.8114   24878920.5544
 96  2 12 18 36 30.0000000  0  8 19 28 18 29 22 14 31 27
  22054152.463   -14766406.12649 -11492668.73949  22054153.8154   22054159.8504
  23907884.950    -9553619.277 9  -7436509.320 9  23907885.277    23907891.284
  20683948.548   -13001652.41049 -10117560.34249  20683949.2644   20683954.4834
  20760854.291    -1771911.40649  -1376014.92349  20760856.8124   20760861.2034
  23300890.083    11417992.75349   8897348.93149  23300890.9874   23300896.0824
  22990608.776    14453769.98149  11258033.17149  22990610.8824   22990617.6024
  24211349.396    -7155408.36749  -5558319.21949  24211351.7644   24211358.1394
  24864331.787    -6093478.82949  -4729173.61149  24864333.3014   24864340.8594
 96  2 12 18 37  0.0000000  0  8 19 28 18 29 22 14 31 27
  22044215.765   -14818622.44749 -11533356.77649  22044217.6684   22044223.2984
  23897998.204    -9605573.179 9  -7476992.872 9  23897998.900    23898004.895
  20676680.921   -13039842.73649 -10147319.03549  20676681.9604   20676687.1854
  20765528.812    -1747350.29049  -1356876.38249  20765530.3094   20765535.0314
  23319747.872    11517097.05449   8974573.03749  23319749.1014   23319754.7394
  23011199.316    14561977.62649  11342350.75449  23011202.2204   23011209.3084
  24195041.186    -7241109.07249  -5625098.86849  24195042.7344   24195049.0084
  24849766.713    -6170012.65749  -4788810.31449  24849768.9844   24849776.8384
 96  2 12 18 37 30.0000000  0  8 19 28 18 29 22 14 31 27
  22034320.629   -14870622.45949 -11573876.25449  22034322.1924   22034327.8944
  23888181.233    -9657160.412 9  -7517190.714 9  23888182.050    23888187.863
  20669481.738   -13077670.93049 -10176795.54849  20669483.3864   20669488.5664
  20770282.344    -1722370.27449  -1337411.44849  20770284.1034   20770288.5534
  23338663.663    11616494.21249   9052025.34449  23338664.5004   23338669.7354
  23031834.297    14670405.94749  11426840.30849  23031835.8194   23031842.2314
  24178751.473    -7326718.07849  -5691807.08949  24178752.2194   24178758.9944
  24835221.008    -6246453.20949  -4848374.32849  24835222.8334   24835230.4304
 96  2 12 18 38  0.0000000  0  8 19 28 18 29 22 14 31 27
  22024461.056   -14922433.01249 -11614248.09149  22024462.9944   22024468.9264
  23878428.973    -9708405.550 9  -7557121.973 9  23878430.404    23878436.723
  20662346.855   -13115164.10549 -10206011.00849  20662348.9414   20662354.0094
  20775109.188    -1697006.31649  -1317647.33349  20775110.7484   20775114.8914
  23357631.177    11716170.34949   9129695.02749  23357632.1094   23357637.6964
  23052501.831    14779014.60249  11511470.38049  23052502.4554   23052509.8274
  24162471.437    -7412260.54249  -5758463.45849  24162473.5514   24162479.4474
  24820685.077    -6322838.87049  -4907895.58849  24820687.5654   24820694.7194
 96  2 12 18 38 30.0000000  0  8 19 28 18 29 22 14 31 27
  22014640.272   -14974043.35949 -11654463.93249  22014641.9784   22014647.7484
  23868745.375    -9759292.823 9  -7596774.351 9  23868746.701    23868753.078
  20655278.685   -13152311.03049 -10234956.66649  20655279.8694   20655285.1444
  20780011.401    -1671243.32849  -1297572.31449  20780013.5274   20780017.9004
  23376652.829    11816132.59349   9207587.66249  23376654.3224   23376659.2954
  23073204.189    14887812.93049  11596248.23949  23073206.6474   23073214.0664
  24146208.909    -7497726.26049  -5825060.04349  24146209.9214   24146217.1704
  24806163.609    -6399152.98549  -4967361.09549  24806165.2894   24806172.2584
 96  2 12 18 39  0.0000000  0  8 19 28 18 29 22 14 31 27
  22004853.485   -15025470.95649 -11694537.37149  22004855.5804   22004861.0284
  23859129.237    -9809825.166 9  -7636150.167 9  23859131.013    23859136.759
  20648275.879   -13189111.94949 -10263632.70849  20648276.9914   20648282.3914
  20784989.320    -1645084.11249  -1277188.52349  20784991.1594   20784995.5244
  23395728.499    11916370.85349   9285695.37049  23395728.3914   23395734.2574
  23093943.939    14996793.60049  11681168.19749  23093944.8414   23093952.2194
  24129957.653    -7583126.85649  -5891605.87749  24129959.1124   24129966.1424
  24791651.365    -6475412.04249  -5026783.69749  24791654.0184   24791661.0064
 96  2 12 18 39 30.0000000  0  8 19 28 18 29 22 14 31 27
  21995099.549   -15076733.20449 -11734481.95849  21995100.6684   21995106.3174
  23849579.302    -9860013.232 9  -7675257.714 9  23849580.532    23849586.120
  20641335.987   -13225579.11149 -10292048.67849  20641337.5764   20641342.9634
  20790037.391    -1618555.91149  -1256517.21149  20790039.2094   20790043.9054
  23414849.132    12016857.84149   9363996.88049  23414850.1924   23414856.0484
  23114714.134    15105945.23949  11766221.37549  23114716.4114   23114722.2644
  24113717.783    -7668472.68549  -5958109.07149  24113718.6544   24113724.9184
  24777150.204    -6551620.08049  -5086166.55049  24777151.7814   24777159.1794
 96  2 12 18 40  0.0000000  0  8 19 28 18 29 22 14 31 27
  21985379.955   -15127809.18249 -11774281.39849  21985381.2894   21985387.1174
  23840096.323    -9909848.593 9  -7714090.388 9  23840097.152    23840102.705
  20634462.393   -13261700.48449 -10320195.20549  20634464.0864   20634469.1284
  20795159.988    -1591636.17149  -1235540.80249  20795162.0004   20795166.6934
  23434014.997    12117570.30749   9442474.08149  23434015.8184   23434021.6634
  23135521.788    15215283.28049  11851419.79949  23135522.5664   23135529.7294
  24097491.135    -7753741.85249  -6024552.53749  24097491.7504   24097498.8354
  24762661.030    -6627758.37049  -5145495.05049  24762663.0854   24762669.9224
 96  2 12 18 40 30.0000000  0  8 19 28 18 29 22 14 31 27
  21975699.380   -15178681.22249 -11813921.93249  21975700.4014   21975706.3204
  23830683.011    -9959311.957 9  -7752633.201 9  23830684.581    23830689.742
  20627657.485   -13297459.72749 -10348059.55249  20627658.9984   20627664.2004
  20800361.768    -1564301.07549  -1214240.73849  20800363.6854   20800368.1284
  23453221.831    12218502.70449   9521122.67049  23453223.2924   23453229.2814
  23156362.612    15324819.14349  11936772.37449  23156366.0524   23156372.8334
  24081283.304    -7838918.97349  -6090924.28049  24081283.2744   24081289.5504
  24748188.196    -6703815.80649  -5204760.52749  24748190.2244   24748196.9384
 96  2 12 18 41  0.0000000  0  8 19 28 18 29 22 14 31 27
  21966054.052   -15229361.12149 -11853412.74149  21966056.4544   21966062.0064
  23821338.761   -10008420.536 9  -7790899.531 9  23821339.195    23821345.133
  20620920.810   -13332864.18149 -10375647.43449  20620921.9454   20620927.1014
  20805637.114    -1536579.23649  -1192639.31949  20805638.9384   20805643.5224
  23472467.013    12319631.66149   9599924.41649  23472466.9264   23472472.8044
  23177241.536    15434527.59749  12022259.42149  23177243.5674   23177250.2074
  24065086.411    -7924022.53649  -6157238.68549  24065088.1844   24065095.1884
  24733726.244    -6779820.02249  -5263984.53449  24733726.5114   24733733.7934
 96  2 12 18 41 30.0000000  0  8 19 28 18 29 22 14 31 27
  21956452.312   -15279823.17549 -11892733.80449  21956454.0064   21956459.7284
  23812063.209   -10057162.977 9  -7828880.544 9  23812063.955    23812069.932
  20614253.718   -13367896.84849 -10402945.61849  20614255.3914   20614260.7274
  20810986.275    -1508470.44649  -1170736.38749  20810988.0794   20810992.4784
  23491748.432    12420969.96649   9678889.27449  23491750.7194   23491757.0644
  23198153.094    15544419.98349  12107889.79849  23198155.1734   23198161.7874
  24048911.927    -8009024.79349  -6223474.17449  24048912.8974   24048920.4054
  24719273.132    -6855760.91649  -5323159.20749  24719275.1724   24719282.5024
 96  2 12 18 42  0.0000000  0  8 19 28 18 29 22 14 31 27
  21946890.677   -15330073.99349 -11931890.26449  21946891.5444   21946897.5444
  23802855.233   -10105547.983 9  -7866583.044 9  23802856.571    23802862.365
  20607658.557   -13402557.83149 -10429954.17249  20607659.6264   20607664.7424
  20816406.226    -1479986.70949  -1148541.27849  20816408.3514   20816412.7504
  23511072.097    12522509.68149   9758011.08249  23511073.3484   23511078.9734
  23219097.567    15654478.14549  12193649.33349  23219098.7184   23219105.1094
  24032755.183    -8093925.94749  -6289630.89449  24032756.7894   24032763.0934
  24704831.430    -6931656.76849  -5382298.78049  24704833.5364   24704840.7284
 96  2 12 18 42 30.0000000  0  8 19 28 18 29 22 14 31 27
  21937365.732   -15380121.94849 -11970888.65249  21937367.6264   21937373.5234
  23793717.851   -10153564.582 9  -7903998.474 9  23793719.169    23793725.061
  20601135.707   -13436833.33349 -10456662.35349  20601137.1804   20601142.2884
  20821897.846    -1451128.71149  -1126054.54249  20821899.6644   20821904.3984
  23530439.843    12624283.27049   9837315.12849  23530439.7474   23530445.5414
  23240074.407    15764711.60649  12279545.49049  23240075.0764   23240082.1064
  24016618.441    -8178729.35749  -6355711.45949  24016619.3534   24016625.9534
  24690398.049    -7007500.68549  -5441397.88849  24690400.6514   24690406.5744
 96  2 12 18 43  0.0000000  0  8 19 28 18 29 22 14 31 27
  21927879.871   -15429968.51349 -12009730.11549  21927882.0044   21927887.8374
  23784653.794   -10201200.438 9  -7941117.219 9  23784654.272    23784660.048
  20594690.571   -13470702.92449 -10483054.24249  20594691.9394   20594696.9704
  20827461.395    -1421892.03649  -1103272.72149  20827463.2354   20827467.9454
  23549857.044    12726326.39349   9916829.18949  23549858.2914   23549864.0294
  23261087.174    15875140.85449  12365594.20349  23261089.7234   23261096.1124
  24000503.316    -8263421.01349  -6421704.95349  24000502.8854   24000509.6204
  24675983.715    -7083258.76649  -5500430.09349  24675983.7894   24675991.4174
 96  2 12 18 43 30.0000000  0  8 19 28 18 29 22 14 31 27
  21918426.549   -15479648.54449 -12048441.81449  21918428.1844   21918434.0144
  23775654.510   -10248484.547 9  -7977961.862 9  23775656.135    23775661.844
  20588314.157   -13504209.74749 -10509163.45249  20588315.8374   20588321.1734
  20833092.447    -1392300.83349  -1080214.65049  20833094.2084   20833098.7764
  23569319.854    12828604.13249   9996526.09549  23569321.8104   23569327.4184
  23282131.724    15985726.00749  12451764.39249  23282133.7304   23282139.5274
  23984400.086    -8348024.18949  -6487629.46849  23984403.6534   23984410.2324
  24661578.525    -7158950.75749  -5559410.82449  24661580.4084   24661587.0054
 96  2 12 18 44  0.0000000  0  8 19 28 18 29 22 14 31 27
  21909007.653   -15529147.20549 -12087012.17949  21909008.7294   21909014.7504
  23766729.293   -10295392.383 9  -8014513.315 9  23766729.933    23766735.751
  20582010.329   -13537339.82549 -10534979.09649  20582011.4714   20582016.5554
  20838797.954    -1362316.48849  -1056850.24749  20838800.2464   20838804.7664
  23588828.676    12931120.15849  10076408.68149  23588828.8614   23588835.9014
  23303207.860    16096480.69849  12538066.68649  23303208.6184   23303216.0104
  23968322.717    -8432529.35649  -6553477.65249  23968323.5574   23968328.8344
  24647193.895    -7234543.24649  -5618314.01449  24647195.4784   24647202.6374
 96  2 12 18 44 30.0000000  0  8 19 28 18 29 22 14 31 27
  21899623.363   -15578462.37949 -12125439.58549  21899624.6124   21899630.5244
  23757873.617   -10341922.545 9  -8050770.478 9  23757875.204    23757880.900
  20575777.346   -13570093.74649 -10560501.63349  20575778.4414   20575783.6844
  20844580.067    -1331931.70149  -1033173.80649  20844582.4134   20844586.8114
  23608380.729    13033864.55649  10156469.21749  23608380.8664   23608387.2984
  23324314.272    16207404.05049  12624500.41149  23324317.0644   23324324.6474
  23952256.827    -8516940.38249  -6619252.46349  23952259.8444   23952267.0744
  24632826.067    -7310044.26349  -5677145.93449  24632828.2654   24632835.0444
 96  2 12 18 45  0.0000000  0  8 19 28 18 29 22 14 31 27
  21890275.812   -15627577.99349 -12163711.48449  21890278.1594   21890283.9914
  23749092.334   -10388069.966 9  -8086729.399 9  23749093.995    23749099.357
  20569617.334   -13602461.77349 -10585723.47349  20569619.1324   20569624.3034
  20850439.616    -1301139.79949  -1009180.13149  20850441.9144   20850446.5414
  23627970.224    13136814.00549  10236689.52349  23627972.3954   23627977.7044
  23345453.375    16318483.67549  12711055.90049  23345454.3874   23345462.5184
  23936218.040    -8601236.01249  -6684937.37149  23936218.8384   23936225.4834
  24618474.204    -7385462.84849  -5735913.62149  24618477.2254   24618483.3864
 96  2 12 18 45 30.0000000  0  8 19 28 18 29 22 14 31 27
  21880969.917   -15676485.78649 -12201821.45149  21880971.4354   21880977.1814
  23740383.052   -10433836.280 9  -8122391.355 9  23740384.530    23740390.151
  20563528.890   -13634458.75249 -10610656.18349  20563530.3854   20563535.1994
  20856377.070    -1269937.39249   -984866.58049  20856379.3534   20856384.0594
  23647594.640    13239935.89249  10317044.22449  23647595.2084   23647600.7094
  23366618.459    16429700.29349  12797718.11349  23366618.7524   23366625.9874
  23920197.265    -8685421.81649  -6750536.68349  23920199.4474   23920206.4334
  24604134.415    -7460825.58749  -5794637.78349  24604134.4014   24604141.8274
 96  2 12 18 46  0.0000000  0  8 19 28 18 29 22 14 31 27
  21871702.683   -15725186.07649 -12239769.72749  21871703.9584   21871710.0064
  23731749.457   -10479217.265 9  -8157753.080 9  23731748.821    23731754.643
  20557512.504   -13666077.12949 -10635293.88549  20557513.5784   20557518.6284
  20862394.027    -1238323.81849   -960232.63249  20862395.1044   20862399.8274
  23667251.876    13343235.00949  10397537.00349  23667251.9274   23667257.9624
  23387808.679    16541062.14949  12884493.51549  23387810.1114   23387817.2604
  23904198.923    -8769496.48949  -6816049.41849  23904200.4554   23904207.2744
  24589802.562    -7536139.74449  -5853324.11349  24589804.3564   24589811.0794
 96  2 12 18 46 30.0000000  0  8 19 28 18 29 22 14 31 27
  21862475.494   -15773673.01349 -12277551.75849  21862477.3574   21862483.2634
  23723187.117   -10524201.572 9  -8192805.697 9  23723188.456    23723194.044
  20551571.116   -13697296.58249 -10659620.73149  20551572.6634   20551577.7804
  20868488.072    -1206298.67649   -935277.99249  20868489.3284   20868494.0574
  23686946.646    13446733.08849  10478184.83549  23686947.0724   23686953.3044
  23409028.886    16652575.56449  12971387.03449  23409029.4284   23409037.1314
  23888222.093    -8853447.65749  -6881465.88549  23888224.8874   23888231.6474
  24575479.769    -7611404.04949  -5911971.62149  24575480.1654   24575487.8554
 96  2 12 18 47  0.0000000  0  8 19 28 18 29 22 14 31 27
  21853283.288   -15821978.49049 -12315192.38749  21853284.7384   21853290.8754
  23714698.639   -10568807.004 9  -8227563.071 9  23714700.341    23714705.984
  20545700.977   -13728144.89349 -10683658.37749  20545702.5424   20545707.4674
  20874656.411    -1173882.23849   -910018.44949  20874658.0904   20874662.8024
  23706676.098    13550412.77549  10558974.18149  23706676.9224   23706682.3974
  23430273.911    16764214.45649  13058378.32949  23430274.6464   23430281.2654
  23872267.971    -8937297.95449  -6946803.75949  23872268.6764   23872275.3464
  24561166.463    -7686624.84249  -5970585.23149  24561167.9164   24561173.6634
 96  2 12 18 47 30.0000000  0  8 19 28 18 29 22 14 31 27
  21844127.547   -15870093.55749 -12352684.64649  21844128.8814   21844135.0084
  23706285.994   -10613019.891 9  -8262014.561 9  23706286.928    23706292.552
  20539901.802   -13758623.69249 -10707408.09249  20539902.7584   20539907.7794
  20880901.101    -1141065.84649   -884447.26049  20880902.7394   20880907.4634
  23726443.623    13654295.75149  10639921.93249  23726445.4164   23726451.6664
  23451544.149    16875995.27149  13145480.21649  23451546.4014   23451553.0234
  23856332.913    -9021031.64149  -7012050.78949  23856334.0454   23856340.7814
  24546866.116    -7761768.70449  -6029138.88749  24546868.4104   24546874.4704
 96  2 12 18 48  0.0000000  0  8 19 28 18 29 22 14 31 27
  21835004.501   -15918034.58049 -12390041.28549  21835006.4004   21835012.1244
  23697946.646   -10656845.950 9  -8296164.630 9  23697946.901    23697952.467
  20534172.269   -13788730.25549 -10730867.75249  20534173.4054   20534178.9284
  20887218.954    -1107864.12949   -858575.81649  20887220.9614   20887225.7294
  23746249.972    13758378.64449  10721025.46449  23746251.0164   23746257.6904
  23472840.577    16987907.41449  13232684.42249  23472841.8484   23472850.5624
  23840419.441    -9104652.62149  -7077210.00349  23840421.7264   23840428.7174
  24532580.346    -7836835.63749  -6087632.59049  24532583.0834   24532589.2014
 96  2 12 18 48 30.0000000  0  8 19 28 18 29 22 14 31 27
  21825913.904   -15965804.98149 -12427264.96949  21825915.8014   21825921.7934
  23689680.115   -10700279.694 9  -8330009.028 9  23689681.881    23689687.448
  20528513.578   -13818467.12649 -10754039.34349  20528514.6634   20528519.8964
  20893611.369    -1074273.01949   -832400.94049  20893612.8574   20893617.8114
  23766093.697    13862653.04049  10802278.22949  23766094.2244   23766100.2484
  23494159.777    17099942.84849  13319984.70049  23494161.7524   23494168.3514
  23824530.641    -9188155.17749  -7142276.96849  23824532.7974   23824539.4564
  24518313.737    -7911822.64449  -6146063.99649  24518313.3294   24518321.1734
 96  2 12 18 49  0.0000000  0  8 19 28 18 29 22 14 31 27
  21816858.541   -16013389.81649 -12464344.05849  21816860.4344   21816866.5544
  23681492.648   -10743306.322 9  -8363536.207 9  23681493.965    23681499.602
  20522925.395   -13847829.49049 -10776919.11149  20522927.0354   20522932.4274
  20900078.809    -1040285.33849   -805917.06149  20900080.4914   20900085.3374
  23785972.105    13967120.45249  10883681.37249  23785973.9594   23785980.0104
  23515506.782    17212108.39249  13407386.37449  23515507.4754   23515513.3904
  23808669.896    -9271509.52449  -7207228.40749  23808669.4824   23808676.8824
  24504058.557    -7986715.76449  -6204422.26049  24504062.0564   24504068.8054
 96  2 12 18 49 30.0000000  0  8 19 28 18 29 22 14 31 27
  21807837.573   -16060794.02549 -12501282.39549  21807839.8344   21807845.7394
  23673381.383   -10785932.897 9  -8396751.661 9  23673381.978    23673388.085
  20517409.586   -13876819.51749 -10799508.74349  20517410.6714   20517415.9334
  20906621.216    -1005906.30749   -779128.23149  20906622.9884   20906627.6654
  23805886.519    14071767.23949  10965224.31549  23805887.5194   23805893.6854
  23536872.026    17324387.85449  13494876.82349  23536872.3164   23536879.2644
  23792834.144    -9354718.56949  -7272066.65149  23792836.4924   23792840.9874
  24489822.483    -8061540.69349  -6262727.38749  24489822.8604   24489829.7804
 96  2 12 18 50  0.0000000  0  8 19 28 18 29 22 14 31 27
  21798851.021   -16108025.23049 -12538085.92049  21798852.0194   21798857.8664
  23665347.881   -10828148.474 9  -8429646.865 9  23665349.036    23665354.618
  20511966.952   -13905422.50349 -10821796.78949  20511967.8064   20511972.9014
  20913241.266     -971116.43949   -752019.25049  20913243.1894   20913247.9564
  23825834.643    14176594.09149  11046907.54049  23825836.0804   23825842.0794
  23558258.599    17436777.55049  13582453.14349  23558259.3794   23558266.3384
  23777027.890    -9437780.16849  -7336790.02049  23777029.6924   23777036.1304
  24475592.801    -8136308.91549  -6320988.30549  24475595.4904   24475602.4294
 96  2 12 18 50 30.0000000  0  8 19 28 18 29 22 14 31 27
  21789894.067   -16155093.08349 -12574762.15849  21789895.4194   21789901.2404
  23657391.121   -10869960.203 9  -8462227.397 9  23657392.552    23657397.917
  20506596.399   -13933643.33749 -10843787.05549  20506597.5934   20506602.8684
  20919938.263     -935925.66649   -724597.88749  20919939.9294   20919944.7124
  23845815.399    14281588.59849  11128721.42449  23845815.4234   23845821.3854
  23579665.841    17549269.87449  13670109.42049  23579666.6984   23579673.6514
  23761253.608    -9520688.59649  -7401393.99749  23761252.2994   23761259.4614
  24461373.439    -8211029.23549  -6379211.90149  24461375.9724   24461383.8294
 96  2 12 18 51  0.0000000  0  8 19 28 18 29 22 14 31 27
  21780970.787   -16201983.71049 -12611300.29449  21780972.5094   21780978.2774
  23649512.570   -10911365.181 9  -8494490.977 9  23649513.304    23649518.873
  20501301.571   -13961464.12349 -10865465.59049  20501303.4534   20501308.4494
  20926709.546     -900340.24949   -696868.99849  20926711.5384   20926716.2024
  23865827.322    14386757.08149  11210670.87649  23865827.9524   23865834.3304
  23601089.752    17661866.45949  13757846.94649  23601092.5534   23601100.0144
  23745503.637    -9603442.91749  -7465877.89549  23745505.0244   23745512.4864
  24447165.223    -8285702.18349  -6437398.57749  24447166.7304   24447172.6614
 96  2 12 18 51 30.0000000  0  8 19 28 18 29 22 14 31 27
  21772083.992   -16248686.07549 -12647691.73749  21772085.4064   21772091.0394
  23641712.711   -10952354.292 9  -8526430.522 9  23641713.512    23641718.830
  20496084.351   -13988884.72749 -10886832.30649  20496085.3014   20496090.2944
  20933558.047     -864352.29149   -668826.44849  20933559.7264   20933564.4824
  23885875.208    14492107.80949  11292762.31549  23885875.2854   23885881.0204
  23622538.696    17774575.71849  13845672.26649  23622540.9684   23622547.9654
  23729787.011    -9686043.32549  -7530241.87149  23729787.4334   23729793.4394
  24432964.360    -8360329.13949  -6495549.42249  24432964.8024   24432972.7384
 96  2 12 18 52  0.0000000  0  8 19 28 18 29 22 14 31 27
  21763240.174   -16295163.18049 -12683907.64049  21763241.1504   21763246.8204
  23633997.828   -10992897.070 9  -8558022.273 9  23633998.090    23634003.367
  20490947.744   -14015879.59649 -10907867.26649  20490948.6004   20490953.4924
  20940484.805     -827950.73549   -640461.61049  20940486.8044   20940491.5364
  23905962.540    14597673.60449  11375021.34849  23905964.2204   23905969.8294
  23644014.356    17887434.87849  13933614.38749  23644017.1004   23644024.9934
  23714103.616    -9768451.71149  -7594456.22149  23714105.8034   23714111.4274
  24418776.530    -8434879.84249  -6553640.84249  24418778.3494   24418786.3474
 96  2 12 18 52 30.0000000  0  8 19 28 18 29 22 14 31 27
  21754435.781   -16341425.36249 -12719956.08049  21754437.4284   21754443.0704
  23626360.477   -11033024.334 9  -8589290.261 9  23626362.371    23626367.491
  20485887.359   -14042473.05549 -10928589.44649  20485887.9864   20485892.7774
  20947481.700     -791183.31849   -611811.68949  20947483.3924   20947488.2894
  23926086.117    14703415.05149  11457417.23749  23926086.5314   23926092.4994
  23665517.150    18000424.48149  14021658.16049  23665519.1284   23665526.1494
  23698454.194    -9850701.25449  -7658546.77049  23698453.6624   23698460.7804
  24404601.770    -8509376.29349  -6611690.00849  24404602.4564   24404609.1854
 96  2 12 18 53  0.0000000  0  8 19 28 18 29 22 14 31 27
  21745674.006   -16387466.63649 -12755832.37849  21745675.9834   21745681.7544
  23618804.751   -11072734.390 9  -8620233.159 9  23618805.659    23618811.189
  20480899.230   -14068681.93349 -10949011.95149  20480900.6774   20480905.5264
  20954549.619     -754041.46049   -582869.99049  20954551.1384   20954555.8664
  23946240.655    14809334.29349  11539951.69349  23946242.0024   23946247.1574
  23687041.708    18113540.75349  14109800.65249  23687044.3524   23687051.1794
  23682831.111    -9932793.93749  -7722515.09349  23682832.4754   23682839.2164
  24390434.333    -8583815.06749  -6669694.22449  24390437.6204   24390444.3394
 96  2 12 18 53 30.0000000  0  8 19 28 18 29 22 14 31 27
  21736953.694   -16433299.23149 -12791546.06549  21736954.6604   21736960.3514
  23611327.960   -11112026.896 9  -8650850.697 9  23611328.601    23611333.976
  20475984.630   -14094511.31849 -10969138.74949  20475985.5334   20475990.4944
  20961690.044     -716517.75349   -553630.74049  20961691.7014   20961696.4704
  23966429.479    14915424.94849  11622619.70149  23966430.4964   23966436.0894
  23708592.588    18226780.33149  14198039.21849  23708593.2734   23708599.8574
  23667240.091   -10014722.61549  -7786355.60849  23667242.1794   23667249.2184
  24376282.249    -8658193.39549  -6727651.31749  24376284.1044   24376290.8254
 96  2 12 18 54  0.0000000  0  8 19 28 18 29 22 14 31 27
  21728269.421   -16478930.34949 -12827102.76549  21728271.2744   21728277.1074
  23603929.896   -11150897.852 9  -8681139.757 9  23603931.534    23603936.856
  20471145.691   -14119936.32349 -10988950.44449  20471147.3044   20471152.1934
  20968907.165     -678592.95449   -524078.95249  20968908.5454   20968913.6474
  23986649.770    15021680.72249  11705416.37649  23986651.1694   23986657.0774
  23730162.214    18340142.54149  14286373.33749  23730164.5524   23730172.4334
  23651682.901   -10096482.97649  -7850064.96449  23651682.8204   23651689.9104
  24362144.226    -8732489.80549  -6785544.58949  24362145.7224   24362152.0064
 96  2 12 18 54 30.0000000  0  8 19 28 18 29 22 14 31 27
  21719625.596   -16524354.52249 -12862498.20849  21719627.3344   21719633.1914
  23596616.791   -11189332.389 9  -8711088.745 9  23596617.860    23596623.234
  20466388.747   -14144936.30649 -11008430.95549  20466389.7874   20466394.9424
  20976207.386     -640229.55749   -494185.40949  20976208.9974   20976213.6064
  24006901.875    15128108.52949  11788347.09349  24006903.4644   24006909.0664
  23751758.200    18453626.67649  14374802.45549  23751760.2844   23751767.2754
  23636156.802   -10178068.75249  -7913638.25049  23636158.2974   23636164.2024
  24348027.498    -8806679.61649  -6843354.79449  24348027.3214   24348034.4864
 96  2 12 18 55  0.0000000  0  8 19 28 18 29 22 14 31 27
  21711017.081   -16569593.93649 -12897749.68149  21711018.5374   21711024.2654
  23589382.695   -11227343.427 9  -8740707.734 9  23589384.533    23589390.130
  20461709.661   -14169522.09549 -11027588.71649  20461711.4984   20461716.3364
  20983588.885     -601437.92049   -463958.17449  20983590.8224   20983595.3484
  24027186.221    15234695.22549  11871401.62249  24027185.9894   24027191.6894
  23773370.331    18567203.41549  14463303.74249  23773374.0134   23773381.1214
  23620665.192   -10259480.09249  -7977075.57949  23620665.8564   23620672.8904
  24333923.268    -8880788.40249  -6901101.86149  24333925.2774   24333931.9244
 96  2 12 18 55 30.0000000  0  8 19 28 18 29 22 14 31 27
  21702444.234   -16614644.72049 -12932854.18049  21702445.5244   21702451.1514
  23582232.902   -11264919.928 9  -8769988.124 9  23582234.081    23582239.319
  20457115.727   -14193668.36849 -11046403.99649  20457116.5404   20457121.5604
  20991053.072     -562212.97549   -433393.29749  20991054.8774   20991059.7934
  24047497.248    15341435.78249  11954576.05549  24047497.9074   24047504.2664
  23795003.670    18680881.36849  14551883.88349  23795005.8974   23795013.1154
  23605206.844   -10340708.78249  -8040370.57549  23605208.0074   23605215.3734
  24319838.339    -8954812.10349  -6958782.61349  24319839.3054   24319846.4694
 96  2 12 18 56  0.0000000  0  8 19 28 18 29 22 14 31 27
  21693905.761   -16659512.29049 -12967815.91049  21693907.4174   21693913.2324
  23575164.574   -11302064.309 9  -8798931.798 9  23575165.479    23575171.104
  20452602.031   -14217383.66449 -11064883.45149  20452603.5634   20452608.1464
  20998598.924     -522559.20449   -402494.28149  20998600.8594   20998605.6924
  24067836.531    15448319.39949  12037861.93949  24067837.3684   24067843.3764
  23816654.443    18794653.58449  14640537.50049  23816655.5954   23816663.9744
  23589783.910   -10421761.75449  -8103528.64549  23589784.3064   23589791.0654
  24305766.997    -9028753.86149  -7016399.52149  24305768.6434   24305775.8024
 96  2 12 18 56 30.0000000  0  8 19 28 18 29 22 14 31 27
  21685404.377   -16704187.38449 -13002627.66449  21685406.0594   21685411.7624
  23568180.647   -11338768.061 9  -8827532.117 9  23568181.131    23568186.449
  20448172.386   -14240666.21249 -11083025.70149  20448173.2254   20448177.9574
  21006222.035     -482501.87449   -371280.80249  21006223.5694   21006228.3194
  24088203.680    15555348.20549  12121260.97349  24088203.8724   24088210.3654
  23838322.173    18908519.03149  14729263.74949  23838323.3934   23838330.5124
  23574395.988   -10502627.93949  -8166541.15249  23574396.2554   23574403.8544
  24291709.158    -9102623.25549  -7073960.03949  24291711.7574   24291718.1714
 96  2 12 18 57  0.0000000  0  8 19 28 18 29 22 14 31 27
  21676938.458   -16748676.81549 -13037294.74749  21676940.0834   21676945.9734
  23561279.171   -11375032.802 9  -8855790.370 9  23561280.085    23561285.646
  20443822.329   -14263525.82149 -11100838.39449  20443823.2184   20443827.9784
  21013917.566     -442059.95449   -339767.63949  21013919.4074   21013924.2074
  24108596.552    15662516.25349  12204768.48649  24108597.3904   24108603.7254
  23860007.060    19022485.28249  14818068.55249  23860009.6034   23860018.7304
  23559042.883   -10583298.14949  -8229400.94249  23559044.1254   23559052.2714
  24277663.975    -9176436.31949  -7131476.67349  24277665.2334   24277671.9624
 96  2 12 18 57 30.0000000  0  8 19 28 18 29 22 14 31 27
  21668500.403   -16793018.81449 -13071846.95049  21668501.9624   21668507.6854
  23554456.148   -11410887.972 9  -8883729.463 9  23554457.304    23554462.941
  20439542.959   -14286008.51549 -11118357.38349  20439544.9244   20439549.7244
  21021681.202     -401261.81449   -307976.91249  21021682.9204   21021687.7184
  24129013.683    15769798.81749  12288365.26049  24129013.0264   24129019.0224
  23881709.259    19136517.79549  14906924.97749  23881711.1274   23881718.1934
  23543721.859   -10663815.95049  -8292141.95149  23543722.4174   23543729.9604
  24263623.110    -9250215.03849  -7188966.53649  24263625.5234   24263632.6144
 96  2 12 18 58  0.0000000  0  8 19 28 18 29 22 14 31 27
  21660100.694   -16837159.11949 -13106241.98449  21660102.5904   21660108.2484
  23547721.166   -11446279.878 9  -8911307.585 9  23547722.205    23547727.483
  20435348.477   -14308056.55749 -11135537.68149  20435349.2234   20435353.9314
  21029520.118     -360066.84249   -275876.95949  21029522.2884   21029527.0034
  24149460.847    15877254.14549  12372096.64149  24149460.9554   24149467.1824
  23903426.966    19250648.60649  14995858.01049  23903428.9794   23903437.0894
  23528439.558   -10744120.22049  -8354716.59649  23528441.0574   23528448.1884
  24249598.815    -9323920.14749  -7246399.05049  24249599.6294   24249607.0624
 96  2 12 18 58 30.0000000  0  8 19 28 18 29 22 14 31 27
  21651742.123   -16881085.88049 -13140470.62449  21651743.2784   21651749.2944
  23541074.692   -11481207.749 9  -8938524.121 9  23541075.844    23541081.421
  20431234.876   -14329668.40749 -11152378.08849  20431236.5244   20431241.4694
  21037434.813     -318474.78649   -243467.57449  21037436.9854   21037441.7924
  24169940.520    15984877.12149  12455958.67249  24169941.0004   24169947.2924
  23925162.155    19364865.81049  15084858.36649  23925163.7014   23925171.5874
  23513203.269   -10824197.04549  -8417113.98849  23513203.5514   23513209.5054
  24235584.614    -9397556.93649  -7303778.32149  24235587.7324   24235593.8224
 96  2 12 18 59  0.0000000  0  8 19 28 18 29 22 14 31 27
  21643418.710   -16924824.30849 -13174552.51049  21643420.2504   21643426.0534
  23534510.752   -11515697.606 9  -8965399.331 9  23534512.483    23534517.760
  20427198.985   -14350881.05049 -11168907.43049  20427199.9454   20427204.9134
  21045424.711     -276489.60849   -210751.86049  21045426.5624   21045431.3214
  24190444.625    16092637.22349  12539927.54549  24190446.2324   24190453.0634
  23946908.658    19479144.84049  15173906.88449  23946910.6464   23946917.9874
  23498001.157   -10904067.74149  -8479350.77549  23498004.4314   23498010.2274
  24221583.134    -9471145.25749  -7361119.82349  24221583.6044   24221590.7664
 96  2 12 18 59 30.0000000  0  8 19 28 18 29 22 14 31 27
  21635133.028   -16968360.40849 -13208476.74149  21635135.7534   21635141.4144
  23528035.614   -11549731.316 9  -8991919.100 9  23528036.108    23528041.114
  20423240.289   -14371681.16349 -11185115.31749  20423241.8894   20423246.6844
  21053493.859     -234087.97449   -177711.65249  21053495.3854   21053500.2234
  24210978.616    16200537.97749  12624006.02049  24210979.4194   24210985.7314
  23968665.987    19593472.36349  15262993.19649  23968667.0944   23968674.4014
  23482847.243   -10983709.14649  -8541408.90949  23482849.5444   23482854.8184
  24207590.786    -9544662.72649  -7418406.12649  24207594.7094   24207599.7344
 96  2 12 19  0  0.0000000  0  8 19 28 18 29 22 14 31 27
  21626886.683   -17011702.63349 -13242249.90149  21626887.8954   21626893.4654
  23521645.754   -11583310.758 9  -9018084.886 9  23521646.207    23521651.469
  20419361.517   -14392064.78749 -11200998.66649  20419362.9074   20419367.9234
  21061641.956     -191266.93449   -144344.62849  21061643.8514   21061648.5634
  24231534.637    16308556.05249  12708175.91749  24231534.7944   24231541.0434
  23990428.753    19707842.13549  15352112.44049  23990430.8344   23990438.2154
  23467738.044   -11063108.17449  -8603278.17349  23467739.2594   23467745.6024
  24193616.179    -9618114.57549  -7475641.29349  24193616.9314   24193623.3204
 96  2 12 19  0 30.0000000  0  8 19 28 18 29 22 14 31 27
  21618665.752   -17054903.00649 -13275912.53249  21618667.3014   21618672.9604
  23515333.937   -11616474.874 9  -9043927.052 9  23515335.266    23515340.395
  20415553.138   -14412081.59849 -11216596.19249  20415553.9554   20415558.7954
  21069865.966     -148049.14949   -110668.44749  21069867.7114   21069872.8634
  24252104.154    16416645.05649  12792401.07549  24252103.4334   24252109.8994
  24012198.507    19822238.42649  15441252.31949  24012197.8074   24012206.4604
  23452665.004   -11142314.22749  -8664997.07249  23452667.4214   23452673.9674
  24179645.416    -9691521.75049  -7532841.66349  24179647.2154   24179654.1304
 96  2 12 19  1  0.0000000  0  8 19 28 18 29 22 14 31 27
  21610483.202   -17097902.91049 -13309418.95049  21610484.6044   21610490.4174
  23509116.377   -11649151.567 9  -9069389.402 9  23509117.475    23509122.512
  20411827.636   -14431655.46149 -11231848.55649  20411829.2064   20411834.2754
  21078177.137     -104377.61449    -76638.70149  21078178.4314   21078183.1144
  24272699.205    16524876.68849  12876737.35149  24272699.5204   24272705.4774
  24033984.623    19936731.62249  15530467.73349  24033986.7454   24033993.1864
  23437641.643   -11221267.77549  -8726519.21449  23437642.5994   23437649.8764
  24165699.580    -9764816.06849  -7589954.07949  24165700.3494   24165705.9384
 96  2 12 19  1 30.0000000  0  8 19 28 18 29 22 14 31 27
  21602332.039   -17140734.21149 -13342793.99049  21602333.7954   21602339.7484
  23502985.990   -11681364.258 9  -9094490.185 9  23502987.266    23502992.376
  20408186.012   -14450796.35049 -11246763.53949  20408186.9284   20408191.9354
  21086566.619      -60290.26749    -42284.93749  21086567.8994   21086572.4554
  24293317.251    16633228.33849  12961167.17149  24293319.1314   24293324.7704
  24055784.115    20051281.34549  15619727.17949  24055784.5664   24055792.2304
  23422658.701   -11300001.81549  -8787870.33149  23422660.0154   23422666.5904
  24151765.959    -9838032.48649  -7647005.80349  24151767.0574   24151773.9754
 96  2 12 19  2  0.0000000  0  8 19 28 18 29 22 14 31 27
  21594216.366   -17183386.39349 -13376029.45949  21594217.5214   21594223.4014
  23496944.244   -11713115.299 9  -9119231.243 9  23496945.285    23496950.669
  20404629.566   -14469484.43849 -11261325.69249  20404630.7684   20404635.5164
  21095031.635      -15807.51349     -7623.07349  21095032.7454   21095037.7604
  24313958.218    16741697.96749  13045688.90949  24313958.1674   24313965.5794
  24077596.090    20165900.96249  15709041.08549  24077596.5534   24077603.4424
  23407716.745   -11378528.64149  -8849059.98549  23407717.3654   23407723.8664
  24137846.921    -9911175.03849  -7703999.98449  24137848.0074   24137855.4034
 96  2 12 19  2 30.0000000  0  8 19 28 18 29 22 14 31 27
  21586138.119   -17225836.79549 -13409107.69449  21586139.5664   21586145.1314
  23490991.012   -11744402.671 9  -9143611.002 9  23490991.477    23490996.639
  20401160.432   -14487715.76249 -11275531.92949  20401161.5374   20401166.0084
  21103566.081       29045.43449     27327.24549  21103567.9504   21103572.6904
  24334621.118    16850285.98649  13130302.89949  24334622.5454   24334629.1574
  24099417.888    20280589.88849  15798408.99649  24099420.3434   24099427.8764
  23392810.319   -11456855.53549  -8910093.86149  23392811.9524   23392817.9584
  24123944.246    -9984242.64149  -7760935.74049  24123943.8914   24123951.1774
 96  2 12 19  3  0.0000000  0  8 19 28 18 29 22 14 31 27
  21578101.860   -17268066.58749 -13442014.02649  21578103.2794   21578109.2514
  23485124.617   -11775227.213 9  -9167630.113 9  23485125.693    23485130.967
  20397775.395   -14505502.41249 -11289391.66349  20397776.7194   20397781.5934
  21112169.718       74255.23049     62555.62549  21112171.1254   21112176.1034
  24355307.257    16958988.92249  13215006.45149  24355308.9604   24355313.2004
  24121253.649    20395319.49149  15887808.59649  24121253.7634   24121260.5384
  23377946.531   -11534970.53749  -8970962.64649  23377946.9284   23377952.2444
  24110050.067   -10057243.75549  -7817819.71149  24110053.3514   24110058.2884
 96  2 12 19  3 30.0000000  0  8 19 28 18 29 22 14 31 27
  21570105.646   -17310085.15549 -13474755.76249  21570107.6184   21570113.5064
  23479347.039   -11805593.720 9  -9191292.317 9  23479347.113    23479352.291
  20394472.354   -14522863.44949 -11302919.75149  20394473.1064   20394477.7864
  21120841.661      119828.59249     98067.31149  21120843.5064   21120848.4334
  24376016.121    17067805.43849  13299798.51049  24376016.0534   24376021.4124
  24143090.803    20510081.71449  15977233.61449  24143092.8594   24143098.9694
  23363121.095   -11612870.55549  -9031663.91649  23363123.0934   23363128.5734
  24096172.900   -10130181.00449  -7874653.91649  24096173.7894   24096180.7114
 96  2 12 19  4  0.0000000  0  8 19 28 18 29 22 14 31 27
  21562153.248   -17351876.37349 -13507320.34249  21562154.7974   21562160.7774
  23473657.222   -11835491.795 9  -9214589.509 9  23473658.044    23473662.719
  20391249.243   -14539800.24649 -11316117.26249  20391250.0004   20391255.0044
  21129587.290      165783.81049    133876.54349  21129588.4144   21129593.3894
  24396745.478    17176745.32349  13384686.72149  24396746.0054   24396752.0834
  24164939.628    20624892.92949  16066696.80049  24164938.8254   24164947.2504
  23348341.004   -11690542.60749  -9092187.55549  23348342.7004   23348348.5824
  24082307.386   -10203039.68549  -7931426.89849  24082308.7644   24082314.5444
 96  2 12 19  4 30.0000000  0  8 19 28 18 29 22 14 31 27
  21554240.283   -17393459.92049 -13539723.10449  21554241.9494   21554247.6894
  23468056.599   -11864921.308 9  -9237521.589 9  23468057.534    23468062.787
  20388103.472   -14556331.17949 -11328998.52249  20388104.3684   20388109.3174
  21138410.157      212148.63149    170004.95949  21138411.4524   21138416.2734
  24417502.650    17285819.79049  13469679.78549  24417503.1664   24417508.1034
  24186794.470    20739742.71449  16156190.06249  24186795.3084   24186801.9424
  23333605.576   -11767981.71649  -9152529.68649  23333607.5304   23333613.3534
  24068455.606   -10275829.41049  -7988146.15549  24068455.9584   24068462.5794
 96  2 12 19  5  0.0000000  0  8 19 28 18 29 22 14 31 27
  21546361.339   -17434864.55449 -13571986.45749  21546363.0774   21546368.6464
  23462545.743   -11893883.960 9  -9260089.890 9  23462546.365    23462551.409
  20385034.190   -14572460.40849 -11341566.76649  20385035.0094   20385039.8254
  21147315.020      258944.45049    206469.21949  21147316.3654   21147320.8124
  24438283.835    17395033.22349  13554781.12949  24438284.7394   24438291.2744
  24208654.273    20854614.65149  16245700.56849  24208654.7584   24208661.7684
  23318913.672   -11845183.88749  -9212687.21949  23318915.0264   23318921.0334
  24054615.038   -10348563.96849  -8044822.41249  24054616.2174   24054622.7094
 96  2 12 19  5 30.0000000  0  8 19 28 18 29 22 14 31 27
  21538514.208   -17476102.18749 -13604119.67149  21538515.6124   21538521.3174
  23457122.531   -11922379.518 9  -9282294.216 9  23457123.745    23457128.540
  20382047.114   -14588156.77449 -11353797.70849  20382048.1844   20382052.8494
  21156302.472      306175.23149    243272.40749  21156304.0274   21156308.8924
  24459091.977    17504380.14249  13639986.49049  24459093.3374   24459098.8974
  24230516.913    20969511.50149  16335230.51049  24230518.3894   24230525.6664
  23304266.916   -11922156.86849  -9272666.13649  23304267.0854   23304273.1524
  24040782.859   -10421250.97149  -8101461.60849  24040783.8474   24040790.4244
 96  2 12 19  6  0.0000000  0  8 19 28 18 29 22 14 31 27
  21530701.081   -17517162.07749 -13636114.38849  21530702.2234   21530707.7874
  23451790.251   -11950404.879 9  -9304132.158 9  23451790.681    23451795.695
  20379147.587   -14603396.11049 -11365672.53149  20379148.0274   20379152.7864
  21165371.740      353833.52749    280408.72049  21165373.3094   21165378.2544
  24479924.303    17613846.89649  13725285.26649  24479923.9674   24479930.0014
  24252384.613    21084428.09949  16424775.83149  24252386.5724   24252392.9964
  23289663.585   -11998895.19249  -9332462.20549  23289664.8834   23289671.2724
  24026961.942   -10493885.07649  -8158059.58649  24026962.9384   24026969.1564
 96  2 12 19  6 30.0000000  0  8 19 28 18 29 22 14 31 27
  21522923.991   -17558028.59149 -13667958.41949  21522925.4474   21522931.1934
  23446549.607   -11977940.387 9  -9325588.396 9  23446550.588    23446556.028
  20376337.933   -14618157.18149 -11377174.67449  20376339.2564   20376344.1414
  21174525.521      401933.08049    317888.87349  21174526.5574   21174531.2844
  24500778.227    17723440.46349  13810682.82749  24500779.4454   24500784.5384
  24274261.635    21199371.58249  16514342.10349  24274259.8274   24274267.8984
  23275110.602   -12075370.52049  -9392053.33949  23275110.6684   23275118.1064
  24013154.156   -10566450.19749  -8214603.82649  24013154.6834   24013158.9434
 96  2 12 19  7  0.0000000  0  8 19 28 18 29 22 14 31 27
  21515182.357   -17598712.16749 -13699659.90449  21515183.5734   21515189.3734
  23441401.059   -12004997.572 9  -9346671.923 9  23441401.819    23441407.502
  20373619.934   -14632442.25349 -11388305.90949  20373620.9064   20373625.6304
  21183756.247      450439.16849    355685.80449  21183756.9754   21183761.8934
  24521652.506    17833129.25849  13896154.57649  24521652.2454   24521659.0014
  24296136.075    21314327.67449  16603918.20349  24296134.6134   24296142.3854
  23260605.795   -12151597.12349  -9451450.66149  23260606.1804   23260613.5384
  23999355.864   -10638948.85549  -8271096.26349  23999358.0074   23999364.0214
 96  2 12 19  7 30.0000000  0  8 19 28 18 29 22 14 31 27
  21507475.985   -17639209.71149 -13731216.42749  21507477.3684   21507483.2384
  23436342.518   -12031579.584 9  -9367385.193 9  23436343.509    23436349.405
  20370992.337   -14646252.15549 -11399066.88449  20370992.9704   20370997.7444
  21193059.916      499336.67949    393787.74749  21193061.5914   21193066.3894
  24542539.522    17942897.68949  13981688.38549  24542540.4964   24542546.3824
  24318010.730    21429306.57449  16693512.06849  24318015.0254   24318022.4664
  23246148.569   -12227570.35949  -9510650.55749  23246149.0234   23246155.0404
  23985575.616   -10711370.79249  -8327528.90649  23985576.7314   23985583.3284
 96  2 12 19  8  0.0000000  0  8 19 28 18 29 22 14 31 27
  21499804.791   -17679525.14649 -13762631.04549  21499805.2714   21499811.0564
  23431376.419   -12057681.316 9  -9387724.216 9  23431376.649    23431381.953
  20368450.907   -14659606.78749 -11409473.10249  20368451.9094   20368456.4484
  21202440.676      548630.28249    432198.32549  21202442.2444   21202447.1384
  24563442.877    18052736.82849  14067277.28549  24563442.6644   24563447.6184
  24339897.780    21544311.65249  16783126.32449  24339899.8974   24339906.1084
  23231743.120   -12303272.21849  -9569638.99049  23231743.1794   23231749.5264
  23971810.021   -10783710.82649  -8383897.72449  23971810.8864   23971817.3034
 96  2 12 19  8 30.0000000  0  8 19 28 18 29 22 14 31 27
  21492165.867   -17719663.14949 -13793907.40749  21492167.4174   21492172.6814
  23426500.495   -12083301.151 9  -9407687.739 9  23426501.049    23426506.870
  20365993.795   -14672519.38249 -11419534.87449  20365994.7594   20365999.5404
  21211898.405      598328.70549    470924.35149  21211899.3094   21211904.1254
  24584359.135    18162647.67049  14152922.05849  24584357.6394   24584364.4704
  24361787.207    21659343.46749  16872761.42349  24361789.5044   24361797.8944
  23217388.806   -12378704.23649  -9628417.15349  23217390.1094   23217396.3604
  23958057.559   -10855977.88849  -8440209.69349  23958058.2954   23958064.8484
 96  2 12 19  9  0.0000000  0  8 19 28 18 29 22 14 31 27
  21484562.920   -17759621.07249 -13825043.44949  21484564.0014   21484569.4924
  23421716.913   -12108439.856 9  -9427276.359 9  23421717.601    23421723.130
  20363620.032   -14684990.53349 -11429252.66849  20363621.5234   20363626.2624
  21221429.960      648421.53949    509957.71649  21221431.5554   21221436.5314
  24605284.557    18272616.41149  14238611.95149  24605284.2134   24605289.9774
  24383686.254    21774408.47949  16962422.42449  24383685.9034   24383693.2254
  23203085.692   -12453865.04649  -9686983.97749  23203086.8294   23203093.9434
  23944318.847   -10928175.90449  -8496467.86449  23944319.7224   23944326.7704
 96  2 12 19  9 30.0000000  0  8 19 28 18 29 22 14 31 27
  21476998.427   -17799372.85449 -13856018.86049  21476999.4414   21477005.0164
  23417026.850   -12133084.407 9  -9446479.909 9  23417027.599    23417033.398
  20361332.532   -14697015.03149 -11438622.41649  20361333.3584   20361338.0654
  21231040.073      698919.22549    549306.54249  21231041.1854   21231045.8294
  24626224.969    18382653.17949  14324354.84249  24626223.4244   24626229.4204
  24405588.482    21889509.59749  17052111.53049  24405589.9384   24405596.5574
  23188838.809   -12528734.73749  -9745323.95549  23188839.6984   23188846.6904
  23930590.994   -11000307.80449  -8552674.50449  23930593.2514   23930599.8814
 96  2 12 19 10  0.0000000  0  8 19 28 18 29 22 14 31 27
  21469470.550   -17838932.10749 -13886844.25349  21469471.4884   21469477.1454
  23412429.062   -12157250.900 9  -9465310.955 9  23412429.053    23412434.732
  20359124.883   -14708614.51549 -11447660.98849  20359126.0494   20359130.9214
  21240722.235      749798.50349    588952.72149  21240723.5054   21240727.8264
  24647172.890    18492739.71249  14410136.50349  24647172.1574   24647178.1404
  24427491.285    22004614.21749  17141803.37649  24427491.8304   24427500.9614
  23174641.685   -12603344.23449  -9803461.17349  23174642.3514   23174649.2364
  23916872.988   -11072406.51349  -8608855.31549  23916873.7914   23916880.4504
 96  2 12 19 10 30.0000000  0  8 19 28 18 29 22 14 31 27
  21461981.924   -17878287.93149 -13917511.12049  21461982.3674   21461987.9674
  23407922.948   -12180931.688 9  -9483763.521 9  23407922.681    23407928.214
  20357000.064   -14719782.73949 -11456363.50849  20357000.5914   20357005.5074
  21250475.717      801057.59649    628894.86249  21250477.3554   21250482.4784
  24668132.694    18602887.44249  14495965.84349  24668132.0434   24668138.3404
  24449397.038    22119729.67349  17231503.67049  24449397.6564   24449405.7524
  23160494.175   -12677693.13549  -9861395.35749  23160494.4634   23160499.2014
  23903160.025   -11144464.59049  -8665004.43449  23903160.9484   23903168.2354
 96  2 12 19 11  0.0000000  0  8 19 28 18 29 22 14 31 27
  21454531.171   -17917439.60949 -13948018.92049  21454531.9174   21454537.7324
  23403509.716   -12204119.641 9  -9501832.056 9  23403510.452    23403515.473
  20354958.154   -14730513.79749 -11464725.38349  20354958.7104   20354963.7274
  21260302.180      852692.38449    669129.74349  21260302.9934   21260308.0684
  24689104.807    18713104.63149  14581849.31849  24689106.0614   24689112.1644
  24471308.133    22234853.86549  17321210.75149  24471306.0504   24471313.9784
  23146398.307   -12751764.96749  -9919113.64949  23146399.0794   23146404.1254
  23889460.674   -11216464.21149  -8721108.01749  23889460.1434   23889466.2464
 96  2 12 19 11 30.0000000  0  8 19 28 18 29 22 14 31 27
  21447116.719   -17956402.02149 -13978379.23549  21447117.6794   21447123.2514
  23399190.410   -12226819.878 9  -9519520.544 9  23399190.627    23399196.058
  20352997.093   -14740819.37349 -11472755.71449  20352997.7134   20353002.7344
  21270198.218      904698.72149    709654.15549  21270199.5144   21270204.5384
  24710096.118    18823402.16349  14667795.39849  24710094.5214   24710101.1944
  24493207.082    22349960.63949  17410904.25949  24493210.0094   24493218.8344
  23132354.157   -12825565.00149  -9976620.15949  23132355.0804   23132360.3034
  23875770.565   -11288397.88749  -8777160.22549  23875771.8304   23875777.9204
 96  2 12 19 12  0.0000000  0  8 19 28 18 29 22 14 31 27
  21439738.570   -17995174.50049 -14008591.54949  21439739.4494   21439745.1964
  23394966.132   -12249017.702 9  -9536817.548 9  23394966.397    23394971.866
  20351118.989   -14750687.50149 -11480445.18249  20351119.8374   20351124.7584
  21280168.922      957093.30949    750481.09349  21280170.0624   21280174.8774
  24731101.306    18933794.39649  14753815.26249  24731102.5704   24731108.7134
  24515111.484    22465063.17449  17500594.44949  24515113.7364   24515121.0654
  23118366.874   -12899073.74049 -10033899.68849  23118366.3104   23118373.1254
  23862102.258   -11360232.31049  -8833135.08049  23862101.8994   23862108.7484
 96  2 12 19 12 30.0000000  0  8 19 28 18 29 22 14 31 27
  21432394.349   -18033766.74349 -14038663.42549  21432395.9524   21432401.3694
  23390837.161   -12270713.135 9  -9553723.058 9  23390837.848    23390843.411
  20349327.589   -14760102.16449 -11487781.29849  20349328.2804   20349333.0444
  21290213.700     1009880.00049    791613.56949  21290214.9704   21290220.1394
  24752125.390    19044278.08349  14839906.40849  24752126.8304   24752132.4434
  24537015.115    22580149.55749  17590272.05749  24537013.8454   24537021.4774
  23104435.374   -12972274.28149 -10090939.05749  23104435.5904   23104443.6244
  23848453.007   -11431958.08249  -8889025.28449  23848452.8744   23848459.5234
 96  2 12 19 13  0.0000000  0  8 19 28 18 29 22 14 31 27
  21425083.149   -18072191.54149 -14068604.81849  21425083.5984   21425089.4604
  23386802.108   -12291918.657 9  -9570246.816 9  23386802.632    23386808.190
  20347622.740   -14769060.21349 -11494761.60549  20347623.8864   20347628.4484
  21300331.305     1063046.47649    833041.96649  21300332.3774   21300337.3404
  24773164.598    19154838.03249  14926056.98849  24773165.6514   24773171.0944
  24558907.506    22695200.67249  17679922.20449  24558906.8074   24558915.5604
  23090561.335   -13045183.98349 -10147751.80949  23090561.8894   23090569.1494
  23834822.103   -11503588.62649  -8944841.27949  23834822.2434   23834829.1424
 96  2 12 19 13 30.0000000  0  8 19 28 18 29 22 14 31 27
  21417803.831   -18110439.56049 -14098408.46549  21417805.3944   21417811.0714
  23382863.002   -12312625.116 9  -9586381.697 9  23382862.505    23382867.718
  20346007.804   -14777547.18749 -11501374.84649  20346008.4834   20346013.4024
  21310524.627     1116612.80349    874781.93849  21310525.6484   21310530.6234
  24794218.411    19265473.07149  15012266.07249  24794218.6394   24794224.1754
  24580795.914    22810231.67049  17769556.65649  24580796.6004   24580805.7524
  23076743.488   -13117802.96749 -10204338.02449  23076743.4484   23076749.9054
  23821206.489   -11575138.50449  -9000594.42049  23821206.6804   23821213.5614
 96  2 12 19 14  0.0000000  0  8 19 28 18 29 22 14 31 27
  21410560.308   -18148507.39449 -14128071.70849  21410561.5264   21410566.8424
  23379016.921   -12332826.869 9  -9602123.294 9  23379018.047    23379023.594
  20344486.196   -14785544.99149 -11507606.92049  20344486.4714   20344491.6884
  21320797.007     1170598.24449    916848.48849  21320798.6504   21320803.7444
  24815282.579    19376171.31749  15098524.40649  24815283.2944   24815289.0024
  24602686.992    22925259.60049  17859188.72549  24602686.0764   24602693.8344
  23062980.693   -13190127.86149 -10260695.09449  23062981.7454   23062987.1394
  23807601.237   -11646631.26249  -9056303.04549  23807602.0034   23807608.5614
 96  2 12 19 14 30.0000000  0  8 19 28 18 29 22 14 31 27
  21403349.936   -18186398.33449 -14157597.11449  21403350.9254   21403356.5294
  23375268.418   -12352527.573 9  -9617474.465 9  23375269.041    23375274.382
  20343056.267   -14793056.84249 -11513460.33049  20343057.2364   20343062.2204
  21331150.919     1225006.14049    959244.22749  21331152.3994   21331157.5554
  24836359.711    19486932.89749  15184832.12949  24836361.7864   24836366.1204
  24624574.337    23040284.47449  17948818.38349  24624575.6664   24624582.9194
  23049270.237   -13262172.69849 -10316833.95649  23049271.3554   23049277.5984
  23794005.106   -11718079.46949  -9111976.97149  23794005.5904   23794012.7344
 96  2 12 19 15  0.0000000  0  8 19 28 18 29 22 14 31 27
  21396177.276   -18224092.60549 -14186969.26449  21396177.9484   21396183.4534
  23371617.736   -12371711.995 9  -9632423.333 9  23371618.586    23371623.844
  20341717.814   -14800091.06649 -11518941.56449  20341718.5464   20341723.4474
  21341587.296     1279848.31449   1001978.37549  21341588.3494   21341593.4664
  24857451.997    19597770.73849  15271199.26149  24857452.4154   24857459.1754
  24646464.125    23155324.02749  18038459.49849  24646466.5094   24646473.6894
  23035617.562   -13333920.98849 -10372741.72949  23035617.6214   23035623.1304
  23780418.881   -11789467.62749  -9167604.10249  23780421.4674   23780427.8124
 96  2 12 19 15 30.0000000  0  8 19 28 18 29 22 14 31 27
  21389038.380   -18261605.96349 -14216200.44349  21389039.3594   21389045.0044
  23368064.810   -12390386.280 9  -9646974.686 9  23368064.907    23368070.506
  20340467.825   -14806660.83849 -11524060.88149  20340468.6774   20340473.5354
  21352103.554     1335112.18449   1045041.12249  21352104.5564   21352109.7154
  24878556.688    19708671.37849  15357615.33849  24878556.3004   24878561.8714
  24668356.225    23270353.73149  18128092.91849  24668355.7094   24668364.1124
  23022022.232   -13405364.17149 -10428411.73349  23022021.9614   23022028.3574
  23766844.948   -11860800.54749  -9223188.18849  23766846.5684   23766853.6334
 96  2 12 19 16  0.0000000  0  8 19 28 18 29 22 14 31 27
  21381932.656   -18298946.77649 -14245297.17349  21381933.5394   21381939.1674
  23364606.786   -12408553.973 9  -9661131.294 9  23364607.674    23364613.277
  20339306.047   -14812767.80349 -11528819.57349  20339306.7234   20339311.5674
  21362695.840     1390772.31949   1088412.62449  21362696.4504   21362701.7014
  24899671.355    19819635.44449  15444080.84549  24899672.1104   24899678.4334
  24690239.264    23385359.22549  18217707.51949  24690240.3664   24690248.5944
  23008486.516   -13476495.39749 -10483838.63649  23008486.6084   23008492.1404
  23753283.925   -11932064.36749  -9278718.42049  23753286.0114   23753293.2854
 96  2 12 19 16 30.0000000  0  8 19 28 18 29 22 14 31 27
  21374861.329   -18336106.20649 -14274252.56749  21374862.3774   21374867.7834
  23361246.758   -12426211.038 9  -9674890.015 9  23361247.112    23361252.747
  20338231.492   -14818411.22649 -11533217.06249  20338232.5184   20338237.5224
  21373357.958     1446804.17749   1132073.79249  21373358.9644   21373363.9954
  24920800.326    19930668.14649  15530599.82149  24920800.5934   24920806.4754
  24712114.672    23500336.17249  18307299.86349  24712119.5744   24712127.8124
  22995012.010   -13547302.44549 -10539012.96549  22995013.2984   22995018.3504
  23739740.871   -12003238.13249  -9334178.49149  23739741.9994   23739748.3114
 96  2 12 19 17  0.0000000  0  7 19 28 18 29 14 31 27
  21367823.180   -18373090.65649 -14303071.60549  21367824.3274   21367829.6554
  23357982.393   -12443362.092 9  -9688254.435 9  23357983.681    23357988.983
  20337246.914   -14823588.92849 -11537251.64849  20337247.1514   20337252.2004
  21384087.820     1503190.21249   1176010.92849  21384088.7484   21384093.9494
  24733992.913    23615280.53649  18396866.84149  24733994.3814   24734001.5234
  22981599.257   -13617783.01449 -10593932.90249  22981600.9664   22981606.3614
  23726210.215   -12074340.40849  -9389582.85749  23726211.9614   23726218.1544
 96  2 12 19 17 30.0000000  0  7 19 28 18 29 14 31 27
  21360822.727   -18409879.98549 -14331738.60049  21360823.7014   21360829.1934
  23354819.459   -12459991.121 9  -9701212.086 9  23354819.555    23354824.694
  20336354.952   -14828275.91049 -11540903.85549  20336355.3844   20336360.3544
  21394889.010     1559952.72249   1220241.43249  21394890.5814   21394895.7684
  24755864.281    23730211.33249  18486423.21649  24755862.9354   24755871.9764
  22968252.361   -13687924.84949 -10648588.88649  22968253.2974   22968258.9834
  23712694.437   -12145368.77249  -9444929.61049  23712695.7604   23712701.9614
 96  2 12 19 18  0.0000000  0  7 19 28 18 29 14 31 27
  21353858.442   -18446476.38249 -14360255.26349  21353859.5564   21353865.1514
  23351749.252   -12476120.382 9  -9713780.313 9  23351750.056    23351755.394
  20335551.026   -14832501.03749 -11544196.18049  20335551.4624   20335556.1974
  21405759.112     1617071.80849   1264749.78549  21405759.9164   21405765.0164
  24777724.335    23845109.26449  18575954.01449  24777728.2464   24777735.8574
  22954964.913   -13757749.67449 -10702997.84649  22954966.2074   22954971.0664
  23699188.968   -12216339.92649  -9500231.80049  23699189.6664   23699196.3524
 96  2 12 19 18 30.0000000  0  7 19 28 18 29 14 31 27
  21346935.040   -18482860.08049 -14388606.18449  21346935.9414   21346941.6424
  23348778.093   -12491733.950 9  -9725946.703 9  23348778.910    23348784.125
  20334835.271   -14836260.10749 -11547125.34449  20334836.0324   20334841.0054
  21416702.181     1674581.25849   1309562.31049  21416703.7044   21416708.9004
  24799584.929    23959977.13249  18665461.36349  24799587.4234   24799595.3724
  22941740.466   -13827243.78549 -10757149.12549  22941741.9604   22941747.7974
  23685697.656   -12287238.00449  -9555477.04149  23685699.2574   23685704.8404
 96  2 12 19 19  0.0000000  0  7 19 28 18 29 14 31 27
  21340051.452   -18519032.81249 -14416792.71649  21340052.2244   21340058.0734
  23345906.224   -12506827.264 9  -9737707.706 9  23345906.599    23345911.904
  20334209.280   -14839551.02749 -11549689.71249  20334209.6814   20334214.4024
  21427725.264     1732508.95449   1354700.74649  21427726.9804   21427731.7164
  24821434.803    24074798.23449  18754932.26449  24821436.8744   24821444.6884
  22928580.267   -13896400.38949 -10811037.39649  22928581.3504   22928587.6224
  23672218.241   -12358066.42449  -9610667.98949  23672220.5464   23672226.8004
 96  2 12 19 19 30.0000000  0  7 19 28 18 29 14 31 27
  21333207.050   -18554999.61449 -14444818.78849  21333208.1234   21333213.7884
  23343132.443   -12521405.792 9  -9749067.581 9  23343132.767    23343137.579
  20333670.588   -14842382.05049 -11551895.72549  20333671.2034   20333676.2234
  21438827.858     1790851.86649   1400162.73549  21438829.2604   21438834.0814
  24843272.667    24189545.34149  18844345.48149  24843272.4724   24843281.6964
  22915484.926   -13965222.52949 -10864665.06449  22915484.7104   22915490.7114
  23658755.939   -12428818.80449  -9665799.68149  23658756.5244   23658763.3424
 96  2 12 19 20  0.0000000  0  7 19 28 18 29 14 31 27
  21326401.496   -18590763.58349 -14472686.80349  21326402.4894   21326408.1314
  23340456.625   -12535464.777 9  -9760022.622 9  23340457.181    23340462.334
  20333221.303   -14844743.12449 -11553735.53449  20333221.8804   20333226.7944
  21450009.255     1849611.41249   1445949.38449  21450011.0424   21450015.9584
  24865093.065    24304227.57749  18933708.16849  24865094.7764   24865103.4504
  22902451.962   -14033710.15149 -10918032.05349  22902451.6514   22902457.9614
  23645308.534   -12499484.41149  -9720863.76049  23645309.6024   23645314.7164
 96  2 12 19 20 30.0000000  0  7 19 28 18 29 14 31 27
  21319629.720   -18626348.51349 -14500415.31649  21319631.0344   21319636.2484
  23337879.137   -12549007.899 9  -9770575.693 9  23337880.165    23337885.101
  20332861.550   -14846632.04149 -11555207.43049  20332862.3344   20332867.3584
  21461271.629     1908794.75549   1492066.23849  21461272.8554   21461278.1064
  24886903.907    24418846.26549  19023021.34349  24886907.4914   24886915.2934
  22889479.514   -14101876.01149 -10971148.32249  22889480.5394   22889487.4254
  23631872.562   -12570090.57149  -9775881.52649  23631872.9714   23631879.7554
 96  2 12 19 21  0.0000000  0  6 19 28 18 29 31 27
  21312895.174   -18661738.75949 -14527992.12449  21312896.2094   21312902.0194
  23335403.103   -12562026.005 9  -9780719.660 9  23335402.762    23335407.861
  20332594.392   -14848033.03749 -11556299.12849  20332595.5354   20332600.6734
  21472614.712     1968406.94149   1538517.26349  21472616.7674   21472621.7644
  22876571.262   -14169709.51349 -11024005.63649  22876572.5484   22876577.6724
  23618448.923   -12640636.44649  -9830852.31949  23618448.8994   23618455.3204
 96  2 12 19 21 30.0000000  0  6 19 28 18 29 31 27
  21306199.480   -18696926.41649 -14555411.07449  21306200.4044   21306206.0054
  23333025.520   -12574515.130 9  -9790451.443 9  23333026.076    23333031.305
  20332419.908   -14848950.72449 -11557014.21649  20332421.1764   20332426.1604
  21484038.161     2028434.47149   1585291.93849  21484039.5244   21484044.4584
  22863726.812   -14237203.32449 -11076598.23849  22863729.0744   22863734.7234
  23605038.246   -12711103.76049  -9885761.88649  23605039.6864   23605046.7884
 96  2 12 19 22  0.0000000  0  6 19 28 18 29 31 27
  21299539.991   -18731920.54049 -14582679.21749  21299540.9754   21299546.8754
  23330748.970   -12586480.871 9  -9799775.396 9  23330748.931    23330754.185
  20332334.511   -14849400.56449 -11557364.75249  20332335.6754   20332340.6044
  21495537.835     2088863.50449   1632379.47249  21495539.0294   21495543.9434
  22850950.479   -14304352.13949 -11128922.01049  22850951.2344   22850957.7764
  23591642.744   -12781500.18249  -9940616.21649  23591643.6064   23591649.5074
 96  2 12 19 22 30.0000000  0  6 19 28 18 29 31 27
  21292916.519   -18766727.57949 -14609801.58349  21292917.8124   21292923.3684
  23328569.869   -12597926.636 9  -9808694.178 9  23328570.831    23328575.915
  20332335.305   -14849395.56949 -11557360.87649  20332336.3824   20332341.4304
  21507110.758     2149680.78749   1679769.53649  21507112.2724   21507117.2244
  22838239.286   -14371144.94449 -11180968.35349  22838240.9244   22838247.0604
  23578259.976   -12851825.82549  -9995415.38949  23578261.3804   23578267.4214
 96  2 12 19 23  0.0000000  0  6 19 28 18 29 31 27
  21286329.994   -18801341.95549 -14636773.81849  21286330.5944   21286336.2024
  23326493.268   -12608842.156 9  -9817199.780 9  23326494.081    23326498.961
  20332423.447   -14848927.83949 -11556996.41949  20332425.2814   20332430.3034
  21518755.268     2210870.69249   1727449.95749  21518756.2044   21518761.2704
  22825602.436   -14437558.67049 -11232719.32549  22825602.6474   22825608.7574
  23564896.261   -12922055.29849 -10050139.62749  23564896.7774   23564903.8134
 96  2 12 19 23 30.0000000  0  6 19 28 18 29 31 27
  21279775.935   -18835782.29549 -14663610.44149  21279777.1594   21279782.5624
  23324517.314   -12619225.939 9  -9825291.045 9  23324517.854    23324523.378
  20332601.284   -14847998.48749 -11556272.25749  20332602.1954   20332607.3564
  21530467.961     2272424.52549   1775413.95449  21530469.6544   21530474.6594
  22813036.630   -14503589.84849 -11284172.17549  22813037.4744   22813043.2044
  23551547.887   -12992197.60549 -10104795.93249  23551548.4434   23551555.8464
 96  2 12 19 24  0.0000000  0  6 19 28 18 29 31 27
  21273253.117   -18870058.48649 -14690319.16049  21273254.5164   21273260.0774
  23322641.405   -12629080.657 9  -9832970.051 9  23322642.164    23322647.731
  20332868.436   -14846595.91949 -11555179.35749  20332869.3264   20332874.1244
  21542253.812     2334357.17549   1823673.11749  21542255.0294   21542259.9064
  22800542.820   -14569246.86349 -11335333.45449  22800542.9354   22800548.9644
  23538212.128   -13062277.70349 -10159403.76749  23538212.8484   23538219.5374
 96  2 12 19 24 30.0000000  0  6 19 28 18 29 31 27
  21266763.723   -18904162.26849 -14716893.53049  21266764.3724   21266770.1934
  23320868.962   -12638398.933 9  -9840231.038 9  23320869.372    23320874.447
  20333230.597   -14844692.89349 -11553696.49149  20333231.4804   20333236.2054
  21554114.408     2396684.51349   1872239.83849  21554115.8564   21554120.6884
  22788119.478   -14634528.11049 -11386201.92449  22788120.1954   22788126.5104
  23524888.307   -13132299.93849 -10213966.51349  23524888.4674   23524895.3134
 96  2 12 19 25  0.0000000  0  6 19 28 18 29 31 27
  21260305.296   -18938095.44449 -14743334.96449  21260307.1294   21260312.9234
  23319196.202   -12647188.000 9  -9847079.661 9  23319196.593    23319201.902
  20333688.294   -14842286.34649 -11551821.27349  20333689.1614   20333694.4404
  21566047.548     2459395.42249   1921105.44949  21566049.2564   21566054.4704
  22775766.525   -14699446.37549 -11436787.52749  22775767.0494   22775772.4104
  23511569.126   -13202285.07149 -10268500.35549  23511570.8634   23511576.9894
 96  2 12 19 25 30.0000000  0  6 19 28 18 29 31 27
  21253886.431   -18971831.60349 -14769622.87749  21253887.5984   21253893.5334
  23317626.454   -12655437.638 9  -9853507.945 9  23317626.799    23317631.990
  20334244.141   -14839364.40649 -11549544.44849  20334245.4064   20334250.3504
  21578057.292     2522507.89149   1970283.96249  21578059.0514   21578064.1984
  22763483.373   -14763998.21949 -11487087.60849  22763483.2794   22763489.5604
  23498260.722   -13272226.49949 -10323000.12049  23498261.3124   23498268.2844
 96  2 12 19 26  0.0000000  0  6 19 28 18 29 31 27
  21247507.329   -19005353.98249 -14795744.21249  21247508.5664   21247514.2274
  23316160.323   -12663141.752 9  -9859511.143 9  23316160.833    23316166.300
  20334901.248   -14835912.49349 -11546854.65949  20334902.4724   20334907.3044
  21590144.260     2586020.66049   2019774.38849  21590145.1724   21590150.4014
  22751270.137   -14828177.00549 -11537096.99149  22751270.2734   22751276.3104
  23484963.063   -13342098.44849 -10377445.76249  23484964.8564   23484970.9064
 96  2 12 19 26 30.0000000  0  6 19 28 18 29 31 27
  21241167.517   -19038668.08949 -14821703.25749  21241169.2274   21241174.6974
  23314795.156   -12670313.888 9  -9865099.807 9  23314796.181    23314801.435
  20335655.890   -14831950.45649 -11543767.37249  20335655.9954   20335661.2394
  21602298.032     2649888.71549   2069541.66849  21602298.6744   21602303.8334
  22739125.978   -14891991.03349 -11586822.14149  22739126.4204   22739132.7954
  23471680.160   -13411907.60649 -10431842.47649  23471680.7564   23471687.0384
 96  2 12 19 27  0.0000000  0  6 19 28 18 29 31 27
  21234871.078   -19071760.00149 -14847489.15949  21234871.9704   21234877.5614
  23313534.853   -12676940.252 9  -9870263.191 9  23313535.205    23313540.438
  20336505.427   -14827482.78649 -11540286.07949  20336506.2654   20336511.4084
  21614519.019     2714115.51649   2119588.48549  21614520.6674   21614525.6004
  22727055.205   -14955422.36449 -11636249.10949  22727056.1244   22727062.3234
  23458413.163   -13481624.81749 -10486167.54349  23458414.1634   23458420.0274
 96  2 12 19 27 30.0000000  0  7 19 28 18 29  2 31 27
  21228613.473   -19104639.29549 -14873109.38949  21228615.4084   21228620.5544
  23312377.353   -12683016.674 9  -9874998.047 9  23312378.507    23312384.161
  20337452.148   -14822505.49949 -11536407.68949  20337453.5494   20337458.3694
  21626812.049     2778713.27149   2169924.36249  21626813.1304   21626818.6014
  25212051.891    -4078613.97259  -3163535.56159  25212049.8244   25212058.3274
  22715062.882   -15018445.39549 -11685357.92049  22715063.5504   22715069.4874
  23445166.167   -13551237.62949 -10540411.26549  23445167.4584   23445173.2784
 96  2 12 19 28  0.0000000  0  7 19 28 18 29  2 31 27
  21222391.398   -19137338.69749 -14898589.44049  21222392.7464   21222398.4044
  23311322.491   -12688564.233 9  -9879320.812 9  23311323.132    23311328.400
  20338492.014   -14817042.13849 -11532150.53549  20338493.0904   20338498.0644
  21639171.534     2843662.18349   2220533.86549  21639172.8904   21639177.8144
  25194503.424    -4170816.50549  -3235381.67249  25194504.7464   25194512.1434
  22703144.566   -15081072.03249 -11734157.85049  22703145.1644   22703150.8894
  23431933.908   -13620768.24849 -10594590.94549  23431935.7454   23431942.1994
 96  2 12 19 28 30.0000000  0  7 19 28 18 29  2 31 27
  21216204.369   -19169846.57049 -14923920.24649  21216206.5294   21216212.0324
  23310370.055   -12693567.320 9  -9883219.315 9  23310370.991    23310376.216
  20339623.561   -14811096.44249 -11527517.53549  20339624.7044   20339629.6284
  21651601.025     2908978.96149   2271430.02249  21651602.0954   21651607.4374
  25176983.872    -4262900.17449  -3307135.15249  25176981.3584   25176990.1344
  22691305.911   -15143284.86849 -11782635.32949  22691306.5634   22691312.9694
  23418718.593   -13690218.52549 -10648708.01649  23418720.4764   23418725.7554
 96  2 12 19 29  0.0000000  0  7 19 28 18 29  2 31 27
  21210052.424   -19202178.87249 -14949114.24649  21210053.8814   21210059.5484
  23309521.444   -12698029.302 9  -9886696.189 9  23309521.805    23309527.144
  20340843.931   -14804681.59349 -11522518.96249  20340845.4764   20340850.6134
  21664103.887     2974682.22949   2322627.33349  21664105.4484   21664110.5594
  25159476.343    -4354884.62649  -3378811.30849  25159477.6144   25159485.8904
  22679544.210   -15205093.32749 -11830797.73449  22679545.0844   22679551.4104
  23405517.240   -13759588.30349 -10702762.37249  23405518.9404   23405525.1374
 96  2 12 19 29 30.0000000  0  7 19 28 18 29  2 31 27
  21203935.711   -19234325.55849 -14974163.60449  21203936.7304   21203942.6644
  23308777.859   -12701935.991 9  -9889740.366 9  23308778.572    23308783.727
  20342157.886   -14797779.32349 -11517140.57849  20342158.9724   20342163.7724
  21676683.668     3040790.74949   2374140.42249  21676685.1804   21676690.2784
  25141988.763    -4446763.35149  -3450405.06649  25141992.6854   25142002.3434
  22667859.981   -15266493.29549 -11878641.82349  22667861.0184   22667867.0564
  23392332.545   -13828874.13649 -10756751.29849  23392334.5474   23392340.8494
 96  2 12 19 30  0.0000000  0  7 19 28 18 29  2 31 27
  21197853.777   -19266285.38749 -14999067.36249  21197854.7884   21197860.5504
  23308137.793   -12705297.400 9  -9892359.657 9  23308138.823    23308143.956
  20343560.163   -14790409.74949 -11511398.06749  20343561.1304   20343566.3064
  21689338.967     3107293.64049   2425960.81249  21689340.3814   21689345.8424
  25124527.346    -4538548.05949  -3521925.50849  25124526.0464   25124535.2804
  22656246.098   -15327521.57949 -11926196.27549  22656247.7284   22656254.2304
  23379160.838   -13898092.75549 -10810687.84549  23379162.5584   23379168.7824
 96  2 12 19 30 30.0000000  0  7 19 28 18 29  2 31 27
  21191807.161   -19298056.10249 -15023823.75749  21191808.8404   21191814.6374
  23307601.654   -12708113.225 9  -9894553.830 9  23307602.801    23307608.238
  20345053.115   -14782564.16349 -11505284.64149  20345054.2184   20345059.2364
  21702070.964     3174204.74849   2478099.29649  21702072.8584   21702078.0424
  25107077.766    -4630221.38749  -3593359.16249  25107082.3664   25107091.1924
  22644703.996   -15388175.42149 -11973458.95949  22644705.9174   22644711.1854
  23366001.289   -13967242.11049 -10864570.43849  23366004.0064   23366009.9524
 96  2 12 19 31  0.0000000  0  7 19 28 18 29  2 31 27
  21185798.536   -19329633.70149 -15048429.67249  21185800.0694   21185805.8874
  23307168.622   -12710386.148 9  -9896324.964 9  23307170.517    23307176.129
  20346640.454   -14774219.41949 -11498782.25449  20346642.3354   20346647.1434
  21714883.295     3241534.49949   2530563.99649  21714885.3934   21714890.9014
  25089657.511    -4721771.81449  -3664697.05249  25089660.8314   25089669.5464
  22633235.495   -15448446.61449 -12020423.46349  22633236.3974   22633242.1374
  23352859.841   -14036307.33249 -10918387.46649  23352861.6584   23352867.3114
 96  2 12 19 31 30.0000000  0  7 19 28 18 29  2 31 27
  21179830.891   -19360993.69049 -15072866.02249  21179832.3804   21179838.1034
  23306843.649   -12712098.125 9  -9897658.992 9  23306844.721    23306850.180
  20348329.755   -14765344.69749 -11491866.90149  20348331.0374   20348335.8984
  21727778.477     3309294.18049   2583363.70849  21727779.9074   21727785.1204
  25072265.310    -4813176.83949  -3735921.63549  25072267.6264   25072276.0384
  22621845.778   -15508297.15649 -12067060.19849  22621846.7284   22621852.5114
  23339735.889   -14105274.08449 -10972127.75549  23339737.4694   23339743.5104
 96  2 12 19 32  0.0000000  0  7 19 28 18 29  2 31 27
  21173905.957   -19392129.82249 -15097127.93649  21173907.3534   21173912.9444
  23306625.869   -12713248.292 9  -9898555.250 9  23306626.080    23306631.249
  20350121.193   -14755932.68649 -11484532.87749  20350122.1224   20350127.0004
  21740754.706     3377485.73649   2636499.94549  21740756.2514   21740761.4584
  25054897.105    -4904432.18849  -3807029.58549  25054901.3074   25054910.5744
  22610540.235   -15567706.89949 -12113353.44349  22610542.0604   22610547.9984
  23326632.771   -14174129.50249 -11025781.29349  23326634.2564   23326640.6964
 96  2 12 19 32 30.0000000  0  7 19 28 18 29  2 31 27
  21168021.065   -19423054.90349 -15121225.39749  21168022.7764   21168028.0504
  23306510.470   -12713851.662 9  -9899025.431 9  23306511.213    23306516.753
  20352013.332   -14745989.22149 -11476784.73649  20352014.2024   20352019.0114
  21753808.342     3446082.40249   2689951.85149  21753809.7594   21753815.2414
  25037561.034    -4995557.97349  -3878036.58449  25037561.5584   25037569.6844
  22599320.859   -15626669.41649 -12159298.18449  22599321.6724   22599327.7924
  23313552.006   -14242870.68549 -11079345.81749  23313553.4744   23313559.4114
 96  2 12 19 33  0.0000000  0  7 19 28 18 29  2 31 27
  21162175.365   -19453775.47949 -15145163.49849  21162176.6644   21162182.2874
  23306499.986   -12713905.728 9  -9899067.584 9  23306500.929    23306506.254
  20354005.401   -14735522.88849 -11468629.17049  20354006.1344   20354010.8124
  21766936.314     3515069.18849   2743707.74949  21766937.4814   21766942.9494
  25020244.578    -5086564.77249  -3948950.87549  25020242.6964   25020251.4404
  22588185.344   -15685184.93249 -12204894.62349  22588186.4164   22588192.4054
  23300493.397   -14311500.36549 -11132823.45449  23300493.8834   23300500.1134
 96  2 12 19 33 30.0000000  0  7 19 28 18 29  2 31 27
  21156365.031   -19484310.18749 -15168956.76649  21156366.0894   21156371.6404
  23306594.467   -12713413.198 9  -9898683.807 9  23306594.667    23306599.860
  20356091.300   -14724558.46549 -11460085.48149  20356092.3294   20356097.2844
  21780134.433     3584425.97749   2797751.96249  21780135.7944   21780141.1754
  25002945.413    -5177465.66149  -4019782.64649  25002944.8704   25002953.0644
  22577132.898   -15743264.37149 -12250151.25949  22577134.4694   22577140.5844
  23287450.258   -14380038.98049 -11186230.13149  23287451.4224   23287457.5424
 96  2 12 19 34  0.0000000  0  7 19 28 18 29  2 31 27
  21150591.153   -19514652.39649 -15192600.04049  21150592.0624   21150598.0814
  23306792.922   -12712368.417 9  -9897869.693 9  23306793.329    23306798.487
  20358271.978   -14713098.97749 -11451156.02449  20358273.1484   20358278.0244
  21793401.491     3654147.49249   2852080.37249  21793403.3184   21793408.6744
  24985672.257    -5268238.83949  -4090514.92549  24985671.6304   24985678.5404
  22566160.371   -15800929.14449 -12295084.80649  22566160.7744   22566166.9634
  23274426.585   -14448481.19749 -11239561.69749  23274427.4204   23274433.0154
 96  2 12 19 34 30.0000000  0  7 19 28 18 29  2 31 27
  21144853.639   -19544801.45549 -15216092.80849  21144855.0404   21144860.6024
  23307097.390   -12710764.168 9  -9896619.626 9  23307098.679    23307104.103
  20360547.468   -14701144.62049 -11441840.96549  20360548.1234   20360553.0524
  21806737.659     3724226.87549   2906687.64449  21806739.1344   21806744.5534
  24968421.860    -5358876.20849  -4161141.39349  24968423.5234   24968432.1404
  22555264.811   -15858186.01749 -12339700.49249  22555265.6084   22555271.3454
  23261416.885   -14516846.46849 -11292833.30049  23261417.7074   23261423.7564
 96  2 12 19 35  0.0000000  0  7 19 28 18 29  2 31 27
  21139151.443   -19574771.71549 -15239446.25549  21139152.0814   21139157.5514
  23307508.139   -12708611.974 9  -9894942.578 9  23307508.332    23307513.547
  20362910.321   -14688723.37649 -11432162.08649  20362912.0924   20362916.7624
  21820139.370     3794653.76749   2961565.70049  21820140.4394   21820146.0734
  24951198.689    -5449388.77349  -4231670.60549  24951199.8024   24951208.2124
  22544443.832   -15915051.83549 -12384011.45549  22544444.1164   22544450.1254
  23248414.795   -14585169.48549 -11346071.97749  23248416.2414   23248421.9304
 96  2 12 19 35 30.0000000  0  7 19 28 18 29  2 31 27
  21133486.356   -19604539.14949 -15262641.65449  21133487.4134   21133492.9854
  23308023.264   -12705903.651 9  -9892832.162 9  23308023.603    23308028.781
  20365365.900   -14675821.82949 -11422108.94949  20365366.8074   20365371.6974
  21833607.654     3865429.36849   3016715.48149  21833608.9364   21833614.6454
  24934001.529    -5539758.83449  -4302088.78749  24934002.8184   24934010.3724
  22533699.023   -15971514.38249 -12428008.18549  22533700.1894   22533705.2134
  23235423.177   -14653440.21549 -11399269.90949  23235424.8324   23235430.3934
 96  2 12 19 36  0.0000000  0  7 19 28 18 29  2 31 27
  21127859.402   -19634109.31749 -15285683.34149  21127860.4014   21127865.7564
  23308641.156   -12702651.285 9  -9890297.814 9  23308642.479    23308647.696
  20367912.739   -14662440.88949 -11411682.25849  20367913.0354   20367917.9754
  21847141.532     3936548.39449   3072132.85749  21847142.4594   21847147.9854
  24916831.281    -5629997.38349  -4372404.52949  24916830.6264   24916839.1324
  22523031.280   -16027571.32949 -12471688.85549  22523031.9644   22523038.3064
  23222439.724   -14721671.19149 -11452436.86349  23222440.5534   23222446.5504
 96  2 12 19 36 30.0000000  0  7 19 28 18 29  2 31 27
  21122270.208   -19663483.38049 -15308572.21949  21122270.5584   21122276.1324
  23309367.001   -12698843.247 9  -9887330.458 9  23309367.046    23309372.441
  20370554.010   -14648559.71349 -11400865.77049  20370554.6224   20370559.6454
  21860743.256     4008027.11649   3127830.51949  21860744.7614   21860749.9524
  24899682.635    -5720106.74349  -4442619.59549  24899683.6234   24899692.0454
  22512451.800   -16083167.83949 -12515010.74149  22512452.0364   22512458.6864
  23209462.444   -14789861.45749 -11505572.10449  23209464.0274   23209470.4954
 96  2 12 19 37  0.0000000  0  7 19 28 18 29  2 31 27
  21116714.685   -19692676.17849 -15331319.85149  21116715.6104   21116721.0344
  23310194.509   -12694494.469 9  -9883941.741 9  23310194.349    23310199.606
  20373289.488   -14634185.26049 -11389664.90949  20373290.3094   20373295.2494
  21874411.671     4079857.26449   3183802.01549  21874413.5494   21874418.8864
  24882560.692    -5810093.81949  -4512739.38949  24882559.3684   24882567.2314
  22501959.488   -16138303.69049 -12557973.68149  22501959.9844   22501966.3924
  23196495.263   -14858009.70649 -11558674.60849  23196496.1334   23196502.8644
 96  2 12 19 37 30.0000000  0  7 19 28 18 29  2 31 27
  21111194.582   -19721683.16749 -15353922.69249  21111195.7224   21111201.1894
  23311126.144   -12689591.285 9  -9880121.015 9  23311127.413    23311132.559
  20376123.512   -14619292.04849 -11378059.81849  20376124.3304   20376128.9714
  21888153.178     4152065.41149   3240068.06149  21888154.3024   21888159.5854
  24865462.834    -5899930.17649  -4582741.74649  24865463.0374   24865472.1084
  22491557.965   -16192965.61349 -12600567.33449  22491558.6084   22491564.0614
  23183538.345   -14926094.83749 -11611727.91349  23183540.0384   23183546.2484
 96  2 12 19 38  0.0000000  0  7 19 28 18 29  2 31 27
  21105706.615   -19750521.70949 -15376394.28149  21105707.8284   21105713.2574
  23312163.123   -12684146.466 9  -9875878.239 9  23312163.460    23312168.902
  20379051.188   -14603906.83549 -11366071.35249  20379051.9624   20379056.9534
  21901966.542     4224658.63549   3296634.15549  21901968.2814   21901973.7454
  24848394.493    -5989633.10549  -4652640.15249  24848394.0904   24848401.4624
  22481243.109   -16247168.60549 -12642803.37549  22481243.9534   22481249.9284
  23170591.492   -14994134.46749 -11664745.77449  23170592.5934   23170598.6194
 96  2 12 19 38 30.0000000  0  7 19 28 18 29  2 31 27
  21100254.201   -19779173.25149 -15398720.15849  21100255.6804   21100261.0884
  23313305.093   -12678145.871 9  -9871202.398 9  23313305.606    23313310.616
  20382074.271   -14588019.26249 -11353691.44449  20382075.4684   20382080.1224
  21915857.208     4297647.66149   3353508.66949  21915857.5964   21915863.3834
  24831352.911    -6079182.03049  -4722418.56949  24831353.0134   24831361.6424
  22471014.311   -16300918.63749 -12684686.48549  22471015.9324   22471021.4864
  23157659.212   -15062094.13649 -11717701.34049  23157660.3854   23157666.1864
 96  2 12 19 39  0.0000000  0  7 19 28 18 29  2 31 27
  21094837.643   -19807638.28749 -15420900.70349  21094838.9704   21094844.5034
  23314550.666   -12671595.336 9  -9866098.034 9  23314551.963    23314557.147
  20385190.140   -14571647.13449 -11340933.95449  20385190.7754   20385195.6524
  21929820.762     4371031.66849   3410690.96749  21929822.4544   21929827.6604
  24814341.582    -6168574.14049  -4792074.75649  24814342.6134   24814351.3234
  22460866.505   -16354252.66849 -12726245.41749  22460866.5334   22460872.7584
  23144744.757   -15129962.16449 -11770585.49349  23144745.4854   23144751.1384
 96  2 12 19 39 30.0000000  0  7 19 28 18 29  2 31 27
  21089458.436   -19835909.18149 -15442929.96649  21089459.2114   21089464.8154
  23315905.162   -12664481.210 9  -9860554.514 9  23315905.664    23315910.904
  20388398.660   -14554782.38249 -11327792.60049  20388400.3314   20388405.0564
  21943863.531     4444822.43449   3468190.22649  21943864.0624   21943869.5044
  24797361.388    -6257808.08149  -4861607.73549  24797361.2964   24797370.0984
  22450797.867   -16407161.62349 -12767473.13249  22450798.4524   22450804.1814
  23131850.146   -15197723.10349 -11823386.19349  23131850.8464   23131856.8584
 96  2 12 19 40  0.0000000  0  8 19 28 16 18 29  2 31 27
  21084114.547   -19863990.91249 -15464811.83249  21084115.2004   21084120.5954
  23317365.096   -12656810.870 9  -9854577.595 9  23317365.158    23317370.388
  25065017.030    -4685457.52059  -3633702.94159  25065017.0854   25065024.3844
  20391703.072   -14537420.17549 -11314263.62049  20391704.0544   20391708.9874
  21957978.109     4518998.71449   3525989.88149  21957979.4904   21957984.4594
  24780407.002    -6346905.11249  -4931034.00349  24780407.7434   24780415.4794
  22440811.479   -16459635.45049 -12808361.76649  22440812.4704   22440818.7544
  23118976.351   -15265379.15049 -11876105.16749  23118976.5024   23118982.2064
 96  2 12 19 40 30.0000000  0  8 19 28 16 18 29  2 31 27
  21078805.001   -19891892.00349 -15486552.93649  21078806.0034   21078811.6144
  23318930.987   -12648584.450 9  -9848167.366 9  23318930.788    23318935.974
  25052377.309    -4751874.20349  -3685456.19549  25052378.3124   25052386.4444
  20395107.264   -14519534.44749 -11300326.69949  20395107.4744   20395112.4634
  21972162.644     4593538.40149   3584072.71249  21972163.5074   21972169.0904
  24763479.561    -6435862.29249  -5000351.29149  24763479.9494   24763487.8624
  22430913.088   -16511653.57349 -12848895.31449  22430913.7084   22430919.6734
  23106122.664   -15332918.98949 -11928733.58649  23106124.0834   23106129.5184
 96  2 12 19 41  0.0000000  0  8 19 28 16 18 29  2 31 27
  21073529.367   -19919616.35849 -15508156.32649  21073530.2854   21073535.8374
  23320600.704   -12639804.945 9  -9841326.171 9  23320601.382    23320606.399
  25039817.053    -4817885.99049  -3736893.95449  25039818.4034   25039823.6914
  20398610.295   -14501120.16249 -11285977.91749  20398611.4564   20398616.6034
  21986416.908     4668443.91849   3642440.60549  21986418.1594   21986423.5294
  24746575.569    -6524686.29549  -5069564.78649  24746577.9044   24746584.9304
  22421105.072   -16563199.05549 -12889060.57149  22421105.7484   22421110.8874
  23093288.248   -15400364.73949 -11981288.68649  23093289.1194   23093295.1384
 96  2 12 19 41 30.0000000  0  8 19 28 16 18 29  2 31 27
  21068291.892   -19947140.62649 -15529603.79649  21068292.2484   21068297.8784
  23322378.465   -12630461.635 9  -9834045.658 9  23322379.464    23322384.604
  25027335.562    -4883477.32849  -3788004.04749  25027335.0284   25027342.1104
  20402219.625   -14482154.18749 -11271199.24149  20402220.5434   20402225.4904
  22000741.517     4743723.64449   3701100.09549  22000743.4264   22000748.5704
  24729699.368    -6613379.96249  -5138676.71849  24729699.0544   24729707.7764
  22411390.527   -16614248.72649 -12928839.49149  22411390.9434   22411397.1034
  23080472.073   -15467717.24249 -12033771.12549  23080472.3094   23080478.3304
 96  2 12 19 42  0.0000000  0  8 19 28 16 18 29  2 31 27
  21063092.556   -19974460.13049 -15550891.71749  21063093.6644   21063099.3364
  23324262.191   -12620565.393 9  -9826334.294 9  23324262.492    23324267.760
  25014930.824    -4948659.39749  -3838795.22349  25014931.9554   25014937.9414
  20405932.486   -14462645.26549 -11255997.49449  20405932.9574   20405938.0054
  22015136.387     4819362.74049   3760039.60249  22015137.0474   22015142.1054
  24712844.457    -6701943.26449  -5207687.07549  24712846.4454   24712854.4214
  22401768.861   -16664807.11549 -12968235.59449  22401770.0024   22401775.5124
  23067667.352   -15535002.32649 -12086201.03749  23067668.2554   23067674.6304
 96  2 12 19 42 30.0000000  0  8 19 28 16 18 29  2 31 27
  21057935.724   -20001561.65949 -15572009.78649  21057936.5054   21057941.9114
  23326252.522   -12610105.736 9  -9818183.902 9  23326252.952    23326258.258
  25002605.548    -5013425.50349  -3889262.26449  25002606.6234   25002615.5174
  20409745.974   -14442602.82849 -11240380.02249  20409747.0374   20409752.1814
  22029596.894     4895357.91049   3819256.56949  22029598.6464   22029604.2514
  24696021.860    -6790346.37649  -5276572.58049  24696023.5254   24696031.9234
  22392239.661   -16714883.38849 -13007256.02349  22392240.6734   22392246.5654
  23054876.291   -15602220.21849 -12138578.58949  23054877.6674   23054883.7474
 96  2 12 19 43  0.0000000  0  8 19 28 16 18 29  2 31 27
  21052817.546   -20028451.66949 -15592963.03449  21052819.3544   21052824.8324
  23328347.141   -12599097.439 9  -9809606.008 9  23328347.855    23328352.910
  24990360.469    -5077778.67749  -3939407.56249  24990360.4424   24990368.7394
  20413654.103   -14422065.45549 -11224376.87949  20413655.0904   20413660.0744
  22044124.633     4971697.25449   3878741.72549  22044125.4704   22044130.9564
  24679227.639    -6878606.16849  -5345346.41649  24679228.4684   24679237.1344
  22382796.618   -16764505.50249 -13045922.58449  22382797.5974   22382803.5744
  23042092.672   -15669400.74649 -12190927.03949  23042093.1714   23042099.0724
 96  2 12 19 43 30.0000000  0  8 19 28 16 18 29  2 31 27
  21047743.148   -20055121.76049 -15613744.92349  21047744.1104   21047749.7774
  23330547.529   -12587531.966 9  -9800593.950 9  23330548.448    23330553.837
  24978193.595    -5141715.35349  -3989228.31249  24978194.2934   24978202.6234
  20417655.131   -14401039.22849 -11207992.82149  20417656.2824   20417661.3574
  22058715.846     5048373.41149   3938489.32549  22058716.5274   22058721.7894
  24662463.318    -6966707.93749  -5413997.08849  24662463.1114   24662471.1184
  22373443.811   -16813659.70249 -13084224.53549  22373444.1644   22373449.8644
  23029318.959   -15736528.26549 -12243234.17949  23029319.3964   23029325.2984
 96  2 12 19 44  0.0000000  0  8 19 28 16 18 29  2 31 27
  21042706.038   -20081591.78449 -15634370.90949  21042707.1554   21042712.7114
  23332855.088   -12575408.706 9  -9791147.255 9  23332855.439    23332860.724
  24966102.547    -5205250.80349  -4038736.43049  24966103.7704   24966111.2594
  20421748.630   -14379530.28649 -11191232.61649  20421749.3714   20421754.2224
  22073366.617     5125369.07049   3998485.89749  22073368.2804   22073373.5474
  24645733.146    -7054629.41949  -5482507.28149  24645731.9474   24645740.9994
  22364178.636   -16862344.49949 -13122160.72649  22364179.9174   22364185.2814
  23016557.948   -15803587.89549 -12295488.41649  23016558.3164   23016564.1044
 96  2 12 19 44 30.0000000  0  8 19 28 16 18 29  2 31 27
  21037701.611   -20107890.91749 -15654863.72949  21037702.4154   21037708.0734
  23335265.430   -12562739.629 9  -9781275.243 9  23335266.074    23335271.478
  24954086.956    -5268393.84249  -4087938.75849  24954088.1124   24954095.7944
  20425932.699   -14357541.19549 -11174098.26849  20425933.4154   20425938.5244
  22088080.103     5202688.28349   4058734.58649  22088081.6254   22088086.6094
  24629031.949    -7142387.22949  -5550889.92949  24629032.6674   24629040.4914
  22355001.693   -16910571.68949 -13159740.32849  22355002.4254   22355008.0434
  23003811.337   -15870568.12649 -12347680.78549  23003812.0884   23003818.4034
 96  2 12 19 45  0.0000000  0  8 19 28 16 18 29  2 31 27
  21032733.127   -20134000.32349 -15675208.71349  21032733.9274   21032739.6924
  23337783.813   -12549508.859 9  -9770965.546 9  23337783.856    23337789.223
  24942149.404    -5331132.21149  -4136825.77549  24942148.9294   24942156.6934
  20430215.093   -14335037.21749 -11156562.71449  20430216.0634   20430221.2234
  22102863.398     5280371.75449   4119267.10749  22102864.3024   22102869.8774
  24612364.156    -7229980.11249  -5619144.06049  24612364.0494   24612372.1794
  22345917.640   -16958311.43549 -13196940.10449  22345918.0834   22345923.7734
  22991085.785   -15937444.39849 -12399792.14949  22991086.5614   22991092.2454
 96  2 12 19 45 30.0000000  0  8 19 28 16 18 29  2 31 27
  21027798.879   -20159929.95149 -15695413.60649  21027799.5584   21027805.2254
  23340406.007   -12535724.249 9  -9760224.285 9  23340407.050    23340412.504
  24930284.110    -5393482.52949  -4185410.41649  24930285.0434   24930291.8664
  20434597.574   -14312009.62749 -11138619.15249  20434598.3894   20434603.0444
  22117714.540     5358414.39749   4180079.51949  22117715.1664   22117721.0344
  24595726.402    -7317408.94349  -5687270.35249  24595725.9824   24595735.2034
  22336922.459   -17005577.96449 -13233771.15149  22336923.1554   22336929.1594
  22978379.868   -16004215.09649 -12451821.24849  22978380.5104   22978386.3824
 96  2 12 19 46  0.0000000  0  8 19 28 16 18 29  2 31 27
  21022900.452   -20185671.33049 -15715471.81049  21022901.3864   21022906.8724
  23343134.976   -12521384.565 9  -9749050.494 9  23343135.860    23343141.394
  24918497.383    -5455422.25249  -4233675.12649  24918497.9984   24918505.0814
  20439081.034   -14288447.89749 -11120259.37149  20439081.5234   20439086.7674
  22132635.106     5436832.84349   4241184.77049  22132637.8294   22132642.9844
  24579121.708    -7404673.54749  -5755268.68549  24579120.8714   24579128.0324
  22328017.143   -17052376.15049 -13270237.25349  22328017.5564   22328023.5844
  22965692.883   -16070882.96449 -12503770.22349  22965693.6744   22965699.5814
 96  2 12 19 46 30.0000000  0  8 19 28 16 18 29  2 31 27
  21018043.061   -20211195.29249 -15735360.59949  21018044.3534   21018049.7684
  23345971.674   -12506482.190 9  -9737438.254 9  23345971.886    23345977.148
  24906793.478    -5516924.62149  -4281599.03949  24906794.5204   24906802.1404
  20443667.402   -14264346.26949 -11101478.89749  20443668.2064   20443673.3004
  22147634.556     5515644.05349   4302596.05249  22147635.2584   22147640.6324
  24562543.958    -7491786.09249  -5823148.53049  24562543.8424   24562552.0654
  22319203.740   -17098690.23349 -13306326.12849  22319204.4404   22319210.2204
  22953023.181   -16137461.99549 -12555649.97849  22953024.7664   22953030.1864
 96  2 12 19 47  0.0000000  0  8 19 28 16 18 29  2 31 27
  21013228.330   -20236496.06049 -15755075.47049  21013229.7474   21013235.2974
  23348912.872   -12491024.194 9  -9725393.064 9  23348913.084    23348918.425
  24895174.004    -5577991.54649  -4329183.64249  24895173.0584   24895181.0624
  20448350.210   -14239737.74049 -11082303.43249  20448350.9794   20448356.2504
  22162698.673     5594807.84549   4364282.07549  22162699.7014   22162704.8704
  24545994.514    -7578747.29349  -5890910.45449  24545996.1864   24546004.7864
  22310481.556   -17144524.10449 -13342040.81049  22310482.4634   22310488.3304
  22940367.188   -16203970.40449 -12607474.69849  22940368.0564   22940373.8634
 96  2 12 19 47 30.0000000  0  8 19 28 16 18 29  2 31 27
  21008458.879   -20261560.41749 -15774606.12649  21008460.1854   21008465.6574
  23351960.709   -12475005.218 9  -9712910.741 9  23351961.601    23351966.799
  24883638.464    -5638604.87449  -4376414.79149  24883639.1434   24883646.4994
  20453127.187   -14214631.87349 -11062740.43549  20453128.4364   20453133.5684
  22177828.099     5674313.69349   4426234.63849  22177829.0994   22177834.4514
  24529475.473    -7665547.70449  -5958547.07149  24529478.2714   24529486.1894
  22301854.747   -17189858.55149 -13377366.31049  22301855.8094   22301861.3374
  22927725.541   -16270401.86749 -12659239.46749  22927726.4664   22927732.3654
 96  2 12 19 48  0.0000000  0  8 19 28 16 18 29  2 31 27
  21003728.619   -20286421.10649 -15793978.08349  21003729.3924   21003734.8814
  23355112.007   -12458446.053 9  -9700007.498 9  23355112.815    23355117.436
  24872188.114    -5698777.58349  -4423302.60149  24872189.0304   24872196.4184
  20457994.282   -14189054.98549 -11042810.41049  20457995.7124   20458000.6724
  22193016.198     5754130.71149   4488429.67249  22193017.7294   22193023.0524
  24512985.351    -7752213.34249  -6026078.67949  24512986.5424   24512993.9564
  22293324.050   -17234688.23849 -13412298.49849  22293324.9094   22293329.7784
  22915093.887   -16336780.65849 -12710963.18149  22915095.1674   22915101.0074
 96  2 12 19 48 30.0000000  0  8 19 28 16 18 29  2 31 27
  20999037.255   -20311075.73149 -15813189.47049  20999037.8084   20999043.1964
  23358369.379   -12441328.505 9  -9686669.152 9  23358370.146    23358375.044
  24860822.933    -5758500.22449  -4469839.71949  24860824.3334   24860830.4854
  20462953.011   -14162995.58449 -11022504.39449  20462954.5554   20462959.6804
  22208264.183     5834257.96349   4550866.45349  22208265.6834   22208271.1134
  24496522.543    -7838722.96249  -6093488.71549  24496524.1154   24496532.6304
  22284892.646   -17278993.96949 -13446822.40049  22284893.5834   22284899.0724
  22902475.553   -16403088.66149 -12762631.74649  22902476.8354   22902483.2814
 96  2 12 19 49  0.0000000  0  8 19 28 16 18 29  2 31 27
  20994382.568   -20335532.52549 -15832246.70049  20994383.7224   20994389.1904
  23361734.136   -12423645.971 9  -9672890.558 9  23361734.972    23361740.070
  24849544.537    -5817777.77249  -4516030.01149  24849543.5184   24849550.8194
  20468007.334   -14136437.40949 -11001809.72149  20468008.2194   20468013.3654
  22223573.433     5914708.69649   4613555.28549  22223574.4514   22223580.1944
  24480095.197    -7925058.68549  -6160763.25449  24480094.3654   24480102.8264
  22276563.149   -17322769.07649 -13480932.82849  22276563.6124   22276568.9344
  22889875.124   -16469306.18049 -12814229.78749  22889876.0324   22889881.8654
 96  2 12 19 49 30.0000000  0  8 19 28 16 18 29  2 31 27
  20989760.962   -20359817.05549 -15851169.70649  20989762.5414   20989768.0054
  23365205.296   -12405408.888 9  -9658679.855 9  23365205.621    23365210.594
  24838342.986    -5876635.86849  -4561893.45749  24838343.5394   24838349.7064
  20473158.089   -14109370.89549 -10980718.94749  20473158.9954   20473164.2054
  22238947.623     5995500.66449   4676510.00649  22238948.7924   22238954.5424
  24463694.942    -8011230.29049  -6227909.89749  24463696.9434   24463705.0804
  22268331.306   -17366024.97749 -13514638.66649  22268332.1734   22268337.5094
  22877287.460   -16535455.58949 -12865774.77349  22877288.2444   22877294.7334
 96  2 12 19 50  0.0000000  0  8 19 28 16 18 29  2 31 27
  20985160.945   -20383994.41149 -15870009.20449  20985161.5764   20985167.1194
  23368771.250   -12386666.253 9  -9644075.225 9  23368772.031    23368777.216
  24827211.682    -5935128.69849  -4607472.28249  24827212.9394   24827219.6994
  20478396.422   -14081842.49849 -10959268.26549  20478397.5694   20478402.6164
  22254379.014     6076593.32249   4739699.02449  22254380.7524   22254386.0784
  24447322.590    -8097272.40849  -6294955.65849  24447323.0954   24447331.7194
  22260186.143   -17408827.12749 -13547990.93349  22260187.3624   22260192.8254
  22864701.824   -16601593.08149 -12917310.47449  22864702.6634   22864708.9154
 96  2 12 19 50 30.0000000  0  8 19 28 16 18 29  2 31 27
  20980590.240   -20408011.48649 -15888723.81349  20980591.4994   20980596.9864
  23372440.073   -12367390.501 9  -9629055.180 9  23372440.054    23372445.271
  24816153.822    -5993235.93449  -4652750.62349  24816155.4554   24816162.3504
  20483727.240   -14053827.58849 -10937438.48549  20483728.4834   20483733.6314
  22269875.035     6158029.98249   4803156.10749  22269877.4054   22269883.5834
  24430979.927    -8183150.00549  -6361873.21049  24430980.9174   24430990.4304
  22252130.148   -17451161.91249 -13580979.01149  22252130.8914   22252136.4394
  22852125.595   -16667682.60649 -12968808.79849  22852126.4054   22852132.3794
 96  2 12 19 51  0.0000000  0  8 19 28 16 18 29  2 31 27
  20976048.398   -20431877.75849 -15907320.90249  20976049.6654   20976055.0344
  23376204.817   -12347598.871 9  -9613633.148 9  23376206.146    23376211.709
  24805168.129    -6050970.93349  -4697738.90849  24805168.0074   24805176.3434
  20489150.143   -14025333.34249 -10915235.19049  20489150.8414   20489156.2074
  22285437.319     6239801.78249   4866874.34649  22285438.1084   22285443.9084
  24414665.974    -8268885.25249  -6428679.84049  24414666.0384   24414674.1774
  22244161.646   -17493037.78049 -13613609.49249  22244162.4854   22244167.7584
  22839555.928   -16733736.23849 -13020279.14449  22839557.0234   22839562.6824
 96  2 12 19 51 30.0000000  0  8 19 28 16 18 29  2 31 27
  20971543.944   -20455552.19849 -15925768.51349  20971544.5994   20971549.9784
  23380076.086   -12327254.763 9  -9597780.603 9  23380077.647    23380082.807
  24794261.407    -6108279.44949  -4742394.88049  24794263.0544   24794270.4204
  20494668.897   -13996329.46749 -10892634.77749  20494670.2234   20494675.2684
  22301066.413     6321933.14049   4930872.76449  22301066.9124   22301072.8514
  24398387.176    -8354432.68149  -6495340.12449  24398387.6124   24398396.0924
  22236286.425   -17534418.66449 -13645854.27149  22236287.7714   22236293.3334
  22827000.112   -16799711.59549 -13071688.50249  22827002.3004   22827007.9344
 96  2 12 19 52  0.0000000  0  8 19 28 16 18 29  2 31 27
  20967077.307   -20479019.88349 -15944055.02249  20967079.2234   20967084.4114
  23384053.184   -12306357.258 9  -9581496.844 9  23384054.514    23384059.353
  24783440.522    -6165144.27649  -4786705.11749  24783442.3504   24783448.8904
  20500286.346   -13966809.29649 -10869632.05849  20500287.5484   20500292.8764
  22316760.661     6404410.18349   4995140.52849  22316762.2324   22316767.8414
  24382140.591    -8439801.74849  -6561861.42349  24382141.5444   24382149.9424
  22228506.704   -17575302.62749 -13677711.83449  22228507.6184   22228513.2284
  22814466.919   -16865579.16349 -13123013.87049  22814467.7724   22814473.7364
 96  2 12 19 52 30.0000000  0  8 19 28 16 18 29  2 31 27
  20962652.408   -20502274.23149 -15962175.28749  20962653.5804   20962659.1724
  23388137.319   -12284900.167 9  -9564777.045 9  23388137.552    23388142.551
  24772707.831    -6221546.22349  -4830654.65649  24772709.6904   24772716.4404
  20506005.223   -13936756.55249 -10846214.34749  20506006.2694   20506011.6234
  22332519.687     6487221.94449   5059669.11549  22332520.2754   22332526.1824
  24365924.733    -8525013.93449  -6628260.48749  24365926.6194   24365935.3924
  22220823.069   -17615678.41749 -13709173.43049  22220824.4344   22220829.6364
  22801956.390   -16931319.97949 -13174240.46649  22801957.9554   22801963.8564
 96  2 12 19 53  0.0000000  0  8 19 28 16 18 29  2 31 27
  20958266.290   -20525324.09349 -15980136.21649  20958267.4104   20958273.0084
  23392328.334   -12262874.962 9  -9547614.561 9  23392328.680    23392334.131
  24762067.481    -6277464.29249  -4874227.15149  24762068.3794   24762075.5854
  20511827.861   -13906160.50949 -10822373.28549  20511828.5094   20511833.9104
  22348340.733     6570362.95049   5124454.27549  22348341.9744   22348347.8824
  24349741.361    -8610065.28249  -6694534.21549  24349741.8044   24349750.1144
  22213239.973   -17655530.47349 -13740226.92049  22213240.8544   22213246.1354
  22789471.479   -16996929.88049 -13225365.05049  22789473.0184   22789478.7534
 96  2 12 19 53 30.0000000  0  8 19 28 16 18 29  2 31 27
  20953920.041   -20548166.07149 -15997935.16249  20953920.8104   20953926.4474
  23396625.933   -12240287.394 9  -9530013.874 9  23396626.939    23396632.188
  24751518.246    -6332897.94949  -4917422.17149  24751519.5834   24751527.1294
  20517749.273   -13875040.09249 -10798123.62349  20517750.5684   20517755.9824
  22364223.894     6653831.45449   5189494.60749  22364225.6864   22364231.3414
  24333587.286    -8694952.50949  -6760680.05749  24333588.2194   24333597.0384
  22205754.618   -17694865.53749 -13770877.56749  22205755.4334   22205760.9994
  22777009.632   -17062414.48449 -13276392.00549  22777011.5244   22777017.4614
 96  2 12 19 54  0.0000000  0  8 19 28 16 18 29  2 31 27
  20949613.603   -20570793.11049 -16015566.61749  20949615.1524   20949620.4764
  23401031.062   -12217141.929 9  -9511978.457 9  23401031.646    23401036.695
  24741060.547    -6387856.19249  -4960246.74849  24741060.9184   24741068.5894
  20523770.084   -13843403.72149 -10773471.91149  20523770.7194   20523776.1704
  22380168.283     6737622.96149   5254786.65049  22380170.7874   22380176.7854
  24317464.223    -8779689.80049  -6826709.06549  24317464.5204   24317471.3934
  22198367.348   -17733686.62849 -13801127.71749  22198368.1314   22198373.7004
  22764569.804   -17127789.33249 -13327333.43549  22764571.2574   22764576.9104
 96  2 12 19 54 30.0000000  0  8 19 28 16 18 29  2 31 27
  20945350.527   -20593198.14849 -16033025.08649  20945351.5634   20945357.1674
  23405543.000   -12193429.678 9  -9493501.390 9  23405543.794    23405549.027
  24730692.518    -6442342.70449  -5002703.74749  24730691.9194   24730699.3974
  20529887.547   -13811253.59849 -10748419.87449  20529888.5844   20529894.0904
  22396177.317     6821746.45449   5320337.38549  22396178.9904   22396184.9214
  24301370.501    -8864256.11349  -6892604.84049  24301370.7594   24301378.8884
  22191083.355   -17771966.23849 -13830955.94549  22191084.0034   22191089.4714
  22752146.663   -17193073.68349 -13378204.34449  22752147.6304   22752153.9064
 96  2 12 19 55  0.0000000  0  8 19 28 16 18 29  2 31 27
  20941131.196   -20615369.78349 -16050301.68149  20941132.5294   20941137.9224
  23410161.803   -12169152.388 9  -9474584.036 9  23410163.471    23410169.192
  24720410.455    -6496377.03749  -5044808.40049  24720409.6964   24720418.4794
  20536102.117   -13778597.75949 -10722973.77649  20536102.8884   20536108.4674
  22412250.429     6906211.92249   5386154.58449  22412252.4404   22412258.6244
  24285313.579    -8948626.18949  -6958347.71649  24285315.8204   24285323.6654
  22183903.325   -17809693.52449 -13860353.78549  22183904.1644   22183909.7914
  22739736.268   -17258289.10049 -13429021.54549  22739737.6964   22739743.6064
 96  2 12 19 55 30.0000000  0  8 19 28 16 18 29  2 31 27
  20936952.841   -20637328.12549 -16067412.07449  20936953.8474   20936959.2744
  23414887.047   -12144329.264 9  -9455241.350 9  23414887.513    23414892.377
  24710206.035    -6549990.93049  -5086585.44849  24710208.5354   24710214.9554
  20542410.039   -13745447.24649 -10697142.22149  20542411.3264   20542416.8854
  22428386.687     6991000.83649   5452223.80449  22428386.9244   22428393.3814
  24269295.135    -9032816.01249  -7023950.10349  24269294.9174   24269303.0394
  22176825.154   -17846889.55649 -13889337.66749  22176826.3574   22176831.4814
  22727336.051   -17323455.62649 -13479800.64949  22727336.7994   22727343.0044
 96  2 12 19 56  0.0000000  0  8 19 28 16 18 29  2 31 27
  20932813.033   -20659082.60849 -16084363.61549  20932814.1654   20932819.6174
  23419717.062   -12118947.851 9  -9435463.629 9  23419717.357    23419722.376
  24700086.506    -6603181.56449  -5128032.66549  24700086.1354   24700092.6544
  20548817.611   -13711778.90349 -10670907.16149  20548818.1064   20548823.9004
  22444581.730     7076109.79249   5518542.40449  22444582.8354   22444588.7034
  24253308.614    -9116821.58849  -7089408.93149  24253309.0804   24253316.9014
  22169849.917   -17883545.15949 -13917900.43249  22169851.1124   22169856.3994
  22714947.164   -17388558.73849 -13530530.33949  22714948.1274   22714953.9024
 96  2 12 19 56 30.0000000  0  8 19 28 16 18 29  2 31 27
  20928707.219   -20680658.13349 -16101175.71149  20928708.3484   20928713.8904
  23424652.429   -12093010.696 9  -9415252.862 9  23424652.674    23424658.310
  24690047.075    -6655939.96549  -5169143.09349  24690045.7144   24690053.4534
  20555321.622   -13677597.58549 -10644272.37749  20555322.3274   20555328.0054
  22460838.338     7161539.35849   5585110.84849  22460839.7814   22460845.4974
  24237358.003    -9200641.04249  -7154722.71349  24237358.6424   24237366.5734
  22162977.802   -17919655.50249 -13946038.32449  22162979.2744   22162984.8384
  22702570.379   -17453597.97249 -13581210.24749  22702571.7894   22702577.6594
 96  2 12 19 57  0.0000000  0  8 19 28 16 18 29  2 31 27
  20924634.934   -20702056.51549 -16117849.77049  20924636.3444   20924642.0044
  23429694.789   -12066508.852 9  -9394602.091 9  23429696.027    23429701.534
  24680094.882    -6708236.48149  -5209893.61349  24680095.0504   24680101.5464
  20561925.763   -13642893.10649 -10617229.93749  20561926.7284   20561932.3814
  22477157.445     7247301.34749   5651938.32249  22477158.9724   22477165.2424
  24221444.480    -9284263.04949  -7219882.65549  24221446.1054   24221454.4994
  22156208.612   -17955228.19249 -13973757.26949  22156210.0544   22156215.3264
  22690212.884   -17518541.49749 -13631815.57149  22690213.2874   22690219.3294
 96  2 12 19 57 30.0000000  0  8 19 28 16 18 29  2 31 27
  20920593.343   -20723298.00149 -16134401.57149  20920594.5524   20920599.8894
  23434845.551   -12039448.259 9  -9373515.920 9  23434845.748    23434850.751
  24670234.096    -6760050.42349  -5250268.09449  24670234.9234   24670242.2944
  20568628.545   -13607671.60649 -10589784.61649  20568629.3024   20568634.8464
  22493539.233     7333385.42149   5719016.77049  22493540.6254   22493546.6044
  24205569.973    -9367690.61749  -7284891.07449  24205570.0754   24205578.5374
  22149541.485   -17990265.41249 -14001058.95549  22149542.4974   22149547.6044
  22677875.070   -17583372.46649 -13682333.18949  22677876.3854   22677882.3764
 96  2 12 19 58  0.0000000  0  8 19 28 16 18 29  2 31 27
  20916581.314   -20744378.81549 -16150828.17749  20916582.9654   20916588.3154
  23440101.410   -12011826.663 9  -9351992.598 9  23440101.537    23440106.674
  24660471.523    -6811353.40449  -5290244.44749  24660472.2204   24660480.8334
  20575426.851   -13571942.66549 -10561943.89549  20575428.1804   20575433.6494
  22509984.402     7419806.41249   5786357.74949  22509986.3094   22509991.8494
  24189734.346    -9450915.12549  -7349741.27349  24189732.6824   24189740.6764
  22142980.544   -18024744.48349 -14027925.71249  22142981.2664   22142986.7324
  22665558.417   -17648098.70449 -13732769.20149  22665559.2924   22665565.1734
 96  2 12 19 58 30.0000000  0  8 19 28 16 18 29  2 31 27
  20912603.968   -20765283.70449 -16167117.69349  20912604.5894   20912610.1594
  23445462.090   -11983649.896 9  -9330036.681 9  23445463.491    23445468.705
  24650805.742    -6862146.70449  -5329823.63649  24650805.8934   24650813.3464
  20582321.305   -13535713.66849 -10533713.52249  20582322.3454   20582327.8904
  22526496.248     7506576.21849   5853970.53949  22526498.1384   22526503.8724
  24173935.344    -9533929.29449  -7414427.57349  24173935.8864   24173943.3264
  22136527.684   -18058653.22849 -14054348.06649  22136528.6584   22136533.8754
  22653259.076   -17712731.11449 -13783132.09649  22653260.4164   22653266.1144
 96  2 12 19 59  0.0000000  0  8 19 28 16 18 29  2 31 27
  20908665.040   -20785978.29149 -16183243.34049  20908666.7304   20908672.3044
  23450931.021   -11954915.747 9  -9307646.437 9  23450931.568    23450936.773
  24641235.184    -6912440.81149  -5369013.83849  24641235.7504   24641243.4364
  20589313.035   -13498973.74849 -10505085.02249  20589313.7174   20589319.1164
  22543072.873     7593689.05649   5921850.64349  22543075.2084   22543080.7694
  24158180.268    -9616720.64349  -7478940.24349  24158181.2734   24158188.9674
  22130184.420   -18091989.05649 -14080323.98849  22130184.8794   22130190.1994
  22640979.440   -17777261.54249 -13833415.52049  22640980.2254   22640986.1314
 96  2 12 19 59 30.0000000  0  8 19 28 16 18 29  2 31 27
  20904768.497   -20806457.32749 -16199201.02349  20904769.9144   20904775.3174
  23456501.590   -11925638.025 9  -9284832.632 9  23456502.927    23456507.935
  24631756.386    -6962253.44649  -5407828.88349  24631756.4544   24631763.9624
  20596398.049   -13461740.24649 -10476071.91149  20596399.2954   20596404.5264
  22559712.608     7681125.25849   5989982.71149  22559713.3584   22559718.8884
  24142465.211    -9699312.84349  -7543297.74749  24142464.5144   24142472.5154
  22123947.887   -18124758.51049 -14105858.57949  22123949.0254   22123954.1604
  22628715.124   -17841712.21249 -13883636.79549  22628715.7524   22628721.3224
 96  2 12 20  0  0.0000000  0  8 19 28 16 18 29  2 31 27
  20900918.482   -20826690.90249 -16214967.43849  20900919.3874   20900924.9954
  23462179.382   -11895801.880 9  -9261583.693 9  23462180.141    23462185.555
  24622369.405    -7011587.58449  -5446271.05249  24622368.5194   24622374.9634
  20603579.732   -13424003.31249 -10446666.52749  20603580.3154   20603585.7924
  22576414.567     7768896.86849   6058376.12149  22576416.5084   22576421.5584
  24126783.687    -9781708.83249  -7607502.35749  24126784.9804   24126792.6784
  22117819.618   -18156964.73249 -14130954.28449  22117820.6984   22117826.0444
  22616467.320   -17906077.42649 -13933791.46949  22616467.5044   22616473.5444
 96  2 12 20  0 30.0000000  0  8 19 28 16 18 29  2 31 27
  20897113.517   -20846685.22949 -16230547.43249  20897114.6664   20897120.0264
  23467960.374   -11865428.004 9  -9237915.742 9  23467960.605    23467965.634
  24613064.221    -7060474.91149  -5484365.06649  24613066.6004   24613072.7554
  20610853.062   -13385777.86749 -10416880.47949  20610854.2354   20610859.7354
  22593172.540     7856958.38649   6126995.45749  22593173.4844   22593179.4234
  24111135.529    -9863933.72449  -7671573.65449  24111137.7594   24111145.4644
  22111789.522   -18188653.84849 -14155647.04949  22111790.0924   22111795.3314
  22604235.641   -17970351.36549 -13983875.03149  22604236.6564   22604242.3814
 96  2 12 20  1  0.0000000  0  8 19 28 16 18 29  2 31 27
  20893351.979   -20866453.09349 -16245950.96249  20893352.9824   20893358.5364
  23473842.798   -11834512.864 9  -9213826.030 9  23473843.704    23473848.466
  24603851.420    -7108899.73449  -5522098.69249  24603850.8174   24603857.8744
  20618221.412   -13347060.46849 -10386711.08649  20618221.9834   20618227.4914
  22609985.067     7945309.40249   6195840.35549  22609986.0064   22609992.2774
  24095524.274    -9945991.63149  -7735514.82349  24095522.3174   24095530.3604
  22105856.708   -18219832.49549 -14179942.05949  22105857.4334   22105862.6414
  22592023.774   -18034523.92349 -14033879.59349  22592024.9734   22592030.8984
 96  2 12 20  1 30.0000000  0  8 19 28 16 18 29  2 31 27
  20889629.810   -20886012.56249 -16261192.10249  20889631.1234   20889636.5024
  23479830.501   -11803049.637 9  -9189309.237 9  23479830.925    23479835.828
  24594725.209    -7156845.69149  -5559459.17549  24594728.1534   24594733.9304
  20625684.186   -13307843.23849 -10356152.21149  20625684.8944   20625690.6264
  22626855.166     8033966.22849   6264923.54849  22626856.7924   22626862.8344
  24079938.702   -10027885.39849  -7799328.07649  24079939.2934   24079947.1534
  22100022.251   -18250491.76249 -14203832.36349  22100022.6874   22100027.6884
  22579830.018   -18098597.83749 -14083807.28649  22579831.8824   22579837.8554
 96  2 12 20  2  0.0010000  0  8 19 28 16 18 29  2 31 27
  20885947.489   -20905363.92549 -16276271.08149  20885948.5914   20885954.0134
  23485922.383   -11771036.229 9  -9164363.732 9  23485922.205    23485927.835
  24585694.504    -7204313.19249  -5596446.83849  24585694.7074   24585701.5004
  20633243.781   -13268116.29149 -10325196.15249  20633244.5714   20633249.9204
  22643786.705     8122935.35149   6334250.09349  22643787.3694   22643793.5864
  24064385.549   -10109603.65849  -7863004.57549  24064388.1364   24064395.8674
  22094289.061   -18280618.31049 -14227307.55549  22094289.7394   22094294.9324
  22567656.473   -18162579.00849 -14133662.70949  22567656.9264   22567662.4924
 96  2 12 20  2 30.0010000  0  8 19 28 16 18 29  2 31 27
  20882304.313   -20924507.93149 -16291188.48449  20882305.5414   20882310.8474
  23492118.893   -11738473.618 9  -9138990.282 9  23492119.171    23492124.226
  24576755.664    -7251291.32749  -5633053.17649  24576755.8184   24576762.5644
  20640901.817   -13227875.02949 -10293839.33849  20640902.2914   20640907.7564
  22660775.995     8212220.83549   6403823.16149  22660778.0034   22660783.8124
  24048873.311   -10191132.55549  -7926533.51949  24048873.9174   24048882.0604
  22088664.560   -18310178.91149 -14250341.74849  22088664.7954   22088670.0264
  22555501.127   -18226454.19349 -14183435.55849  22555501.7384   22555507.6214
 96  2 12 20  3  0.0010000  0  8 19 28 16 18 29  2 31 27
  20878699.678   -20943451.38049 -16305949.60449  20878700.6604   20878706.2454
  23498418.993   -11705362.668 9  -9113189.554 9  23498419.997    23498424.991
  24567906.514    -7297786.14649  -5669282.89549  24567907.4364   24567914.2334
  20648657.974   -13187111.83849 -10262075.80749  20648659.0654   20648664.5964
  22677832.844     8301846.60249   6473661.37349  22677833.5234   22677839.1904
  24033394.950   -10272468.33249  -7989911.98749  24033396.1164   24033404.6634
  22083149.982   -18339157.05249 -14272922.09149  22083150.2074   22083155.5824
  22543361.803   -18290244.11549 -14233141.96349  22543362.5644   22543369.0064
 96  2 12 20  3 30.0010000  0  8 19 28 16 18 29  2 31 27
  20875136.471   -20962175.86649 -16320540.10149  20875137.6544   20875142.9564
  23504823.112   -11671710.201 9  -9086966.865 9  23504823.672    23504829.247
  24559149.145    -7343807.71549  -5705143.86749  24559149.8904   24559157.4354
  20656513.409   -13145833.20249 -10229910.63649  20656514.2594   20656519.6554
  22694947.893     8391787.97149   6543745.52449  22694948.3384   22694954.4924
  24017954.518   -10353612.25949  -8053140.95849  24017955.1654   24017963.2524
  22077746.341   -18367552.26649 -14295048.20049  22077746.5174   22077752.2644
  22531238.794   -18353948.75749 -14282781.92449  22531240.3674   22531246.0154
 96  2 12 20  4  0.0010000  0  8 19 28 16 18 29  2 31 27
  20871619.252   -20980661.53049 -16334944.51149  20871619.7844   20871625.3254
  23511332.353   -11637505.689 9  -9060314.013 9  23511332.572    23511337.851
  24550483.673    -7389349.81449  -5740631.19549  24550483.2404   24550490.7954
  20664467.807   -13104031.94449 -10197338.23749  20664468.7954   20664474.4234
  22712123.851     8482051.30349   6614080.53649  22712125.5224   22712131.3384
  24002553.141   -10434546.07049  -8116206.20749  24002553.6044   24002561.3034
  22072457.192   -18395347.16249 -14316706.54249  22072457.7714   22072462.9454
  22519138.362   -18417537.16149 -14332331.31649  22519139.7494   22519145.5044
 96  2 12 20  4 30.0010000  0  8 19 28 16 18 29  2 31 27
  20868143.510   -20998923.67549 -16349174.73949  20868144.6214   20868150.1024
  23517945.009   -11602756.977 9  -9033237.104 9  23517945.294    23517950.140
  24541904.264    -7434424.88349  -5775754.61649  24541905.8614   24541913.0444
  20672521.770   -13061708.05649 -10164358.59249  20672522.7224   20672528.4054
  22729358.980     8572618.23849   6684652.12649  22729359.3164   22729365.7154
  23987192.327   -10515267.43249  -8179105.90149  23987192.7934   23987200.4084
  22067276.879   -18422569.25149 -14337918.53349  22067277.5894   22067282.5454
  22507060.162   -18481008.01049 -14381789.10049  22507061.6954   22507067.4324
 96  2 12 20  5  0.0010000  0  8 19 28 16 18 29  2 31 27
  20864711.590   -21016960.16049 -16363229.13049  20864712.3684   20864717.7994
  23524659.740   -11567466.604 9  -9005738.113 9  23524660.599    23524665.923
  24533418.159    -7479029.70949  -5810511.61149  24533417.2884   24533425.9054
  20680674.151   -13018867.51249 -10130976.35749  20680675.0334   20680680.7154
  22746644.340     8663459.63449   6755437.57349  22746646.2534   22746652.5074
  23971873.789   -10595768.12949  -8241833.64449  23971874.1634   23971881.6544
  22062201.917   -18449234.88549 -14358696.92949  22062203.2874   22062208.2574
  22495003.271   -18544370.99749 -14431162.83549  22495004.1964   22495009.5494
 96  2 12 20  5 30.0010000  0  8 19 28 16 18 29  2 31 27
  20861319.421   -21034785.32549 -16377118.85949  20861320.4414   20861325.8804
  23531476.933   -11531640.202 9  -8977821.436 9  23531478.033    23531483.511
  24525017.585    -7523165.67949  -5844903.23849  24525019.5934   24525026.4914
  20688921.802   -12975526.87949 -10097204.44749  20688922.5984   20688928.1184
  22763981.162     8754557.67049   6826423.00949  22763982.1184   22763988.0004
  23956593.672   -10676061.44349  -8304399.79749  23956594.3774   23956601.8314
  22057233.897   -18475346.10849 -14379043.32649  22057234.2534   22057239.5984
  22482964.855   -18607635.68449 -14480459.98349  22482965.2164   22482970.9224
 96  2 12 20  6  0.0010000  0  8 19 28 16 18 29  2 31 27
  20857964.906   -21052414.77149 -16390856.08249  20857965.7074   20857971.0524
  23538397.161   -11495280.565 9  -8949489.247 9  23538397.289    23538402.412
  24516710.476    -7566826.57149  -5878924.70349  24516710.5444   24516718.1084
  20697263.697   -12931688.22549 -10063044.46349  20697264.7614   20697270.3404
  22781366.800     8845926.51849   6897619.48049  22781367.8764   22781374.9384
  23941353.586   -10756146.32349  -8366803.52149  23941354.9194   23941361.9964
  22052369.118   -18500910.73349 -14398963.79549  22052369.3784   22052374.5304
  22470941.106   -18670816.04749 -14529691.42049  22470942.1574   22470948.1884
 96  2 12 20  6 30.0010000  0  8 19 28 16 18 29  2 31 27
  20854647.155   -21069849.54449 -16404441.61449  20854647.6974   20854653.1434
  23545418.836   -11458383.589 9  -8920738.348 9  23545418.399    23545423.875
  24508496.339    -7609996.74249  -5912563.76549  24508495.7934   24508502.9684
  20705700.209   -12887353.64749 -10028498.03349  20705701.2334   20705706.8314
  22798807.107     8937576.01149   6969034.63249  22798809.5124   22798814.8824
  23926154.720   -10836023.57249  -8429045.46249  23926155.5934   23926162.4594
  22047608.823   -18525926.09749 -14418456.27549  22047609.0364   22047614.3064
  22458932.969   -18733921.29749 -14578864.32649  22458933.8534   22458939.5974
 96  2 12 20  7  0.0010000  0  8 19 28 16 18 29  2 31 27
  20851365.974   -21087089.04249 -16417874.98249  20851367.2574   20851372.8784
  23552543.207   -11420941.095 9  -8891562.370 9  23552543.701    23552548.952
  24500377.290    -7652651.43349  -5945801.16149  24500378.2694   24500385.7524
  20714230.015   -12842530.05049  -9993570.55349  20714231.0204   20714236.4734
  22816307.036     9029534.89849   7040690.85449  22816307.3764   22816313.5584
  23910992.888   -10915700.18749  -8491131.04549  23910993.2494   23911000.8844
  22042958.563   -18550366.38149 -14437500.64549  22042958.7614   22042964.0594
  22446938.936   -18796950.61049 -14627978.06049  22446939.8984   22446945.5754
 96  2 12 20  7 30.0010000  0  8 19 28 16 18 29  2 31 27
  20848119.625   -21104150.23249 -16431169.41249  20848120.7814   20848126.0064
  23559769.979   -11382961.004 9  -8861967.486 9  23559770.947    23559776.389
  24492358.221    -7694792.26449  -5978638.14549  24492360.2454   24492367.2944
  20722852.330   -12797219.72749  -9958263.80649  20722853.1314   20722858.7334
  22833867.461     9121822.18849   7112602.98249  22833870.3514   22833875.7194
  23895865.728   -10995188.47049  -8553069.89149  23895867.3864   23895873.9744
  22038414.864   -18574242.17449 -14456105.15649  22038415.1634   22038420.1974
  22434959.388   -18859902.73149 -14677031.64049  22434960.4044   22434966.4714
 96  2 12 20  8  0.0010000  0  8 19 28 16 18 29  2 31 27
  20844906.764   -21121030.89249 -16444323.16049  20844908.0484   20844913.5974
  23567099.803   -11344443.576 9  -8831953.883 9  23567100.490    23567105.726
  24484439.350    -7736415.46349  -6011071.78149  24484438.9704   24484446.2594
  20731566.791   -12751424.66149  -9922579.34949  20731567.8094   20731573.2134
  22851492.940     9214440.39749   7184772.98049  22851494.0534   22851499.8674
  23880779.310   -11074472.83649  -8614849.83249  23880779.8004   23880786.7284
  22033978.119   -18597554.25549 -14474270.41049  22033978.6184   22033984.2734
  22422996.711   -18922767.23049 -14726016.94849  22422997.4984   22423003.6104
 96  2 12 20  8 30.0010000  0  8 19 28 16 18 29  2 31 27
  20841727.834   -21137740.64449 -16457343.73949  20841728.6034   20841733.9924
  23574530.790   -11305394.517 9  -8801526.032 9  23574531.443    23574536.445
  24476612.820    -7777539.33149  -6043116.32649  24476612.6634   24476619.5304
  20740373.974   -12705146.43949  -9886518.39949  20740374.3264   20740379.8324
  22869177.359     9307374.53449   7257189.14949  22869179.2874   22869185.0404
  23865728.981   -11153558.15549  -8676474.66649  23865729.7384   23865737.4764
  22029651.083   -18620293.96249 -14491989.66449  22029651.6254   22029656.8404
  22411049.455   -18985548.40749 -14774937.32249  22411050.6424   22411056.3954
 96  2 12 20  9  0.0010000  0  8 19 28 16 18 29  2 31 27
  20838584.847   -21154255.77749 -16470212.67049  20838585.9284   20838591.3064
  23582063.930   -11265806.213 9  -8770677.991 9  23582064.848    23582070.038
  24468882.560    -7818161.75649  -6074770.14349  24468883.7684   24468889.9774
  20749276.606   -12658360.19149  -9850061.59149  20749277.3764   20749283.0994
  22886921.794     9400617.21449   7329845.74749  22886922.6044   22886928.7514
  23850721.362   -11232424.35249  -8737928.74949  23850722.1174   23850729.9014
  22025436.207   -18642445.07149 -14509250.27349  22025436.4764   22025441.4744
  22399122.364   -19048226.25149 -14823777.18249  22399123.7584   22399129.5274
 96  2 12 20  9 30.0010000  0  8 19 28 16 18 29  2 31 27
  20835481.018   -21170567.94949 -16482923.44349  20835481.8154   20835487.0764
  23589696.720   -11225694.806 9  -8739422.330 9  23589697.628    23589702.773
  24461243.619    -7858309.17349  -6106053.82849  24461243.6524   24461250.1064
  20758274.752   -12611076.37449  -9813217.07249  20758275.2734   20758280.6704
  22904717.418     9494134.19249   7402716.07049  22904718.6374   22904724.0524
  23835754.163   -11311075.52949  -8799215.28549  23835755.2154   23835762.2524
  22021329.831   -18664019.96549 -14526061.88049  22021330.7654   22021335.9554
  22387215.220   -19110799.01249 -14872535.14849  22387216.2694   22387222.2124
 96  2 12 20 10  0.0010000  0  8 19 28 16 18 29  2 31 27
  20832420.060   -21186650.60949 -16495455.37649  20832421.3214   20832426.7854
  23597431.308   -11185046.752 9  -8707748.511 9  23597432.613    23597437.949
  24453693.799    -7897976.22649  -6136963.21449  24453695.1194   24453701.2634
  20767369.711   -12563278.64649  -9775972.10049  20767370.7284   20767376.1584
  22922564.488     9587926.63249   7475801.03749  22922566.7524   22922573.3164
  23820831.713   -11389501.82149  -8860326.59349  23820831.1324   23820838.6124
  22017340.419   -18684990.06949 -14542402.22549  22017340.2914   22017345.5184
  22375329.873   -19173253.41849 -14921200.89249  22375331.4024   22375337.1664
 96  2 12 20 10 30.0010000  0  8 19 28 16 18 29  2 31 27
  20829405.084   -21202495.86749 -16507802.31949  20829406.0084   20829411.5104
  23605268.638   -11143863.150 9  -8675657.373 9  23605269.425    23605274.958
  24446238.733    -7937155.60949  -6167492.58749  24446240.6964   24446246.4704
  20776565.451   -12514956.03849  -9738318.13349  20776566.2934   20776571.7184
  22940462.099     9681972.21649   7549083.25649  22940462.7624   22940469.1434
  23805943.803   -11467722.45149  -8921277.64849  23805945.5324   23805952.8314
  22013462.914   -18705361.12249 -14558275.76649  22013463.7504   22013468.8574
  22363468.347   -19235588.68849 -14969773.79549  22363469.2854   22363475.2624
 96  2 12 20 11  0.0010000  0  8 19 28 16 18 29  2 31 27
  20826437.872   -21218085.26249 -16519949.88949  20826439.2804   20826444.6144
  23613211.001   -11102131.708 9  -8643139.348 9  23613210.864    23613215.598
  24438878.520    -7975827.80749  -6197626.74549  24438880.8314   24438887.3754
  20785862.508   -12466097.98049  -9700246.93749  20785863.8734   20785869.0704
  22958407.757     9776280.54549   7622570.22149  22958409.0814   22958414.7794
  23791102.842   -11545726.15649  -8982059.66049  23791102.3394   23791109.2014
  22009700.406   -18725132.15249 -14573681.76049  22009701.7204   22009706.8084
  22351633.292   -19297786.07349 -15018239.26049  22351633.9854   22351639.4404
 96  2 12 20 11 30.0010000  0  8 19 28 16 18 29  2 31 27
  20823516.196   -21233440.61249 -16531915.08749  20823517.3164   20823522.8364
  23621252.778   -11059866.842 9  -8610205.666 9  23621253.789    23621258.939
  24431615.293    -8013998.52249  -6227370.14649  24431616.4394   24431624.4784
  20795257.524   -12416726.37449  -9661775.56749  20795258.8244   20795264.0904
  22976403.170     9870844.93549   7696256.69549  22976405.1764   22976410.8434
  23776294.763   -11623538.87549  -9042692.87149  23776294.4864   23776302.2804
  22006048.586   -18744323.03049 -14588635.67749  22006049.5664   22006054.9504
  22339817.149   -19359877.58749 -15066622.23049  22339817.9244   22339823.8804
 96  2 12 20 12  0.0010000  0  8 19 28 16 18 29  2 31 27
  20820633.345   -21248591.03649 -16543720.60149  20820634.2244   20820639.7614
  23629395.285   -11017079.351 9  -8576864.742 9  23629395.655    23629401.139
  24424445.876    -8051671.16649  -6256725.44449  24424447.3924   24424453.9994
  20804749.658   -12366849.69949  -9622910.64149  20804750.1054   20804755.4414
  22994444.749     9965657.54149   7770136.59849  22994446.7474   22994453.2034
  23761520.679   -11701170.88649  -9103185.26549  23761522.7044   23761529.2094
  22002505.833   -18762942.85949 -14603144.61649  22002506.3614   22002511.6194
  22328015.564   -19421892.38449 -15114945.41249  22328017.1664   22328022.9164
 96  2 12 20 12 30.0010000  0  8 19 28 16 18 29  2 31 27
  20817790.665   -21263530.27749 -16555361.55849  20817791.3184   20817796.9764
  23637639.146   -10973756.355 9  -8543106.558 9  23637639.875    23637645.075
  24417376.447    -8088824.82149  -6285676.32649  24417377.1334   24417384.4534
  20814335.426   -12316471.71849  -9583655.08049  20814336.5294   20814341.9664
  23012537.587    10060735.52549   7844223.30349  23012539.5354   23012545.1704
  23746790.662   -11778587.78549  -9163510.03949  23746789.7874   23746797.3984
  21999074.341   -18780975.10049 -14617195.69249  21999075.2044   21999080.2464
  22316232.855   -19483812.61349 -15163194.90949  22316234.1294   22316239.7504
 96  2 12 20 13  0.0010000  0  8 19 28 16 18 29  2 31 27
  20814986.476   -21278261.95549 -16566840.77649  20814988.1944   20814993.6244
  23645983.597   -10929908.292 9  -8508939.224 9  23645984.058    23645989.115
  24410405.055    -8125467.11149  -6314228.75349  24410404.3844   24410412.2624
  20824011.790   -12265622.32549  -9544032.18549  20824012.9624   20824018.3694
  23030685.465    10156098.67149   7918532.20249  23030686.2634   23030692.5684
  23732101.229   -11855774.80249  -9223655.67849  23732102.0134   23732109.2274
  21995755.168   -18798416.02849 -14630786.00349  21995756.7474   21995761.2544
  22304468.111   -19545636.38749 -15211369.24649  22304469.2864   22304474.9254
 96  2 12 20 13 30.0010000  0  8 19 28 16 18 29  2 31 27
  20812225.428   -21292773.25849 -16578148.27549  20812226.3884   20812231.8574
  23654428.789   -10885524.675 9  -8474354.572 9  23654429.598    23654434.563
  24403531.265    -8161582.79949  -6342370.83249  24403531.7294   24403538.7664
  20833776.379   -12214308.91949  -9504047.72049  20833777.5884   20833783.1174
  23048886.929    10251756.45849   7993070.69249  23048889.5614   23048896.0404
  23717460.355   -11932717.09049  -9283610.63249  23717460.5664   23717467.2964
  21992553.921   -18815241.26349 -14643896.55149  21992554.7874   21992559.5614
  22292724.724   -19607351.84249 -15259459.17449  22292725.3844   22292731.1364
 96  2 12 20 14  0.0010000  0  8 19 28 16 18 29  2 31 27
  20809505.082   -21307068.95049 -16589287.76749  20809506.1404   20809511.5854
  23662975.667   -10840612.508 9  -8439358.079 9  23662976.204    23662981.907
  24396758.281    -8197177.04449  -6370106.60049  24396757.9094   24396766.4724
  20843626.786   -12162548.98849  -9463715.31649  20843626.9384   20843632.5034
  23067144.445    10347692.61349   8067826.07849  23067145.0494   23067151.5184
  23702864.604   -12009410.61549  -9343371.73949  23702866.1934   23702873.2524
  21989469.118   -18831450.33749 -14656526.96849  21989469.8244   21989474.4984
  22281003.961   -19668940.14149 -15307450.02449  22281005.2654   22281011.1074
 96  2 12 20 14 30.0010000  0  8 19 28 16 18 29  2 31 27
  20806828.597   -21321134.54149 -16600247.96249  20806829.7244   20806835.3104
  23671623.517   -10795167.247 9  -8403946.182 9  23671624.318    23671629.437
  24390086.114    -8232241.81749  -6397429.80149  24390086.1564   24390093.4124
  20853562.176   -12110335.96349  -9423029.84849  20853562.9964   20853568.2504
  23085454.492    10443914.51149   8142804.12349  23085455.7434   23085462.7334
  23688316.084   -12085856.81649  -9402940.13449  23688318.5954   23688325.7234
  21986502.189   -18847041.84849 -14668676.17549  21986502.9914   21986507.9224
  22269312.684   -19730378.78749 -15355324.26549  22269313.7604   22269319.8954
 96  2 12 20 15  0.0010000  0  8 19 28 16 18 29  2 31 27
  20804196.197   -21334972.65749 -16611030.90249  20804196.3514   20804201.9174
  23680372.091   -10749193.692 9  -8368122.635 9  23680372.391    23680378.118
  24383511.997    -8266782.18649  -6424344.36949  24383513.2394   24383521.2254
  20863587.530   -12057650.52449  -9381976.26649  20863588.6164   20863594.3234
  23103817.920    10540413.56849   8217998.12649  23103818.7834   23103825.2814
  23673812.524   -12162087.95949  -9462340.95649  23673812.1934   23673819.1944
  21983650.505   -18862027.22249 -14680353.06249  21983651.1554   21983655.9564
  22257647.375   -19791684.46449 -15403094.89549  22257648.0564   22257653.3184
 96  2 12 20 15 30.0010000  0  8 19 28 16 18 29  2 31 27
  20801601.436   -21348603.46649 -16621652.30549  20801602.7214   20801608.0084
  23689218.796   -10702703.258 9  -8331896.317 9  23689219.811    23689224.711
  24377036.184    -8300817.39949  -6450865.30449  24377037.2014   24377044.1204
  20873705.865   -12004479.36649  -9340544.21649  20873706.6554   20873712.0274
  23122228.920    10637165.85349   8293389.46249  23122230.0274   23122236.8134
  23659342.004   -12238126.26149  -9521591.51349  23659342.6994   23659349.5784
  21980912.085   -18876416.67249 -14691565.58449  21980913.1474   21980918.2704
  22246000.796   -19852883.29349 -15450782.26549  22246001.8994   22246007.5834
 96  2 12 20 16  0.0010000  0  8 19 28 16 18 29  2 31 27
  20799048.752   -21362014.50849 -16632102.45449  20799050.4814   20799055.8944
  23698165.459   -10655680.709 9  -8295255.371 9  23698167.313    23698172.540
  24370656.493    -8334338.61749  -6476985.72549  24370657.7864   24370665.5714
  20883926.155   -11950769.83249  -9298692.64149  20883927.4514   20883933.0364
  23140693.165    10734198.28949   8368999.09049  23140694.9574   23140701.1364
  23644912.128   -12313955.23949  -9580678.96749  23644912.9914   23644919.4414
  21978290.204   -18890195.28449 -14702302.13249  21978291.0804   21978296.0634
  22234378.612   -19913957.99549 -15498372.91349  22234379.8254   22234385.4504
 96  2 12 20 16 30.0010000  0  8 19 28 16 18 29  2 31 27
  20796536.385   -21375220.14849 -16642392.55749  20796537.6434   20796543.0084
  23707212.698   -10608143.071 9  -8258213.068 9  23707213.359    23707218.754
  24364371.790    -8367372.42949  -6502726.35349  24364372.1994   24364378.5114
  20894247.982   -11896529.21149  -9256427.22949  20894249.0144   20894254.4654
  23159213.172    10831513.34249   8444828.94749  23159213.3854   23159219.8654
  23630518.698   -12389594.89149  -9639618.90849  23630518.9694   23630525.8564
  21975780.580   -18903384.00749 -14712579.03149  21975781.2584   21975786.0404
  22222774.747   -19974937.10549 -15545889.07349  22222776.1674   22222781.6804
 96  2 12 20 17  0.0010000  0  8 19 28 16 18 29  2 31 27
  20794064.651   -21388208.95149 -16652513.68749  20794065.7534   20794071.3894
  23716358.614   -10560083.708 9  -8220764.215 9  23716359.057    23716364.197
  24358179.857    -8399904.58049  -6528076.07149  24358181.0884   24358187.7264
  20904671.420   -11841753.71549  -9213745.02749  20904672.6384   20904678.1964
  23177787.304    10929123.54249   8520888.78049  23177789.1474   23177794.5174
  23616164.886   -12465015.93849  -9698388.48949  23616166.9574   23616173.8314
  21973384.698   -18915972.17049 -14722387.96249  21973385.5474   21973391.0264
  22211189.781   -20035814.85149 -15593326.25149  22211191.3674   22211196.8364
 96  2 12 20 17 30.0010000  0  8 19 28 16 18 29  2 31 27
  20791635.822   -21400972.08149 -16662458.97449  20791636.9694   20791642.3594
  23725602.207   -10511500.998 9  -8182907.573 9  23725603.983    23725609.049
  24352084.395    -8431933.35349  -6553033.54749  24352085.6394   24352092.3274
  20915194.061   -11786459.87849  -9170658.93349  20915194.3684   20915199.8574
  23196418.377    11027033.66149   8597182.33649  23196420.2764   23196426.1814
  23601861.206   -12540189.55349  -9756965.28049  23601861.9414   23601868.1974
  21971104.940   -18927956.14149 -14731726.09449  21971105.4084   21971110.2274
  22199628.179   -20096572.07149 -15640669.51049  22199629.4784   22199634.8134
 96  2 12 20 18  0.0010000  0  8 19 28 16 18 29  2 31 27
  20789250.139   -21413508.58249 -16672227.66649  20789251.5014   20789256.9844
  23734944.270   -10462407.418 9  -8144652.844 9  23734946.360    23734951.390
  24346084.687    -8463457.23849  -6577597.59849  24346087.8394   24346094.0754
  20925809.114   -11730674.41149  -9127189.75349  20925810.3884   20925815.9394
  23215106.435    11125236.78449   8673704.21749  23215107.8594   23215113.4604
  23587600.291   -12615130.76649  -9815360.96149  23587600.6524   23587607.6774
  21968935.539   -18939352.83049 -14740606.59849  21968936.4874   21968941.7014
  22188088.954   -20157213.85949 -15687922.82149  22188090.0394   22188095.4764
 96  2 12 20 18 30.0010000  0  8 19 28 16 18 29  2 31 27
  20786910.009   -21425808.58249 -16681812.07249  20786910.9094   20786916.4064
  23744384.547   -10412805.890 9  -8106002.323 9  23744385.265    23744390.400
  24340188.062    -8494453.51449  -6601750.53049  24340189.4814   24340196.0994
  20936513.584   -11674424.65549  -9083358.79049  20936514.1984   20936519.7824
  23233846.427    11223718.43549   8750443.12149  23233848.4174   23233855.2654
  23573384.179   -12689837.60849  -9873574.02549  23573384.2294   23573391.7184
  21966879.262   -18950162.71249 -14749029.85649  21966879.8064   21966884.2694
  22176568.582   -20217751.60549 -15735095.06149  22176569.6944   22176575.5644
 96  2 12 20 19  0.0010000  0  8 19 28 16 18 29  2 31 27
  20784618.036   -21437848.97949 -16691194.18949  20784619.5514   20784624.8554
  23753923.556   -10362678.724 9  -8066942.215 9  23753923.977    23753929.332
  24334396.101    -8524893.64349  -6625470.10549  24334396.6934   24334403.1124
  20947308.130   -11617694.11549  -9039153.18849  20947309.5764   20947315.0574
  23252638.283    11322470.50249   8827392.72449  23252640.6104   23252646.7834
  23559216.687   -12764285.48949  -9931585.28549  23559217.5734   23559224.6164
  21964937.563   -18960364.49249 -14756979.27649  21964937.9364   21964942.5824
  22165069.631   -20278176.79749 -15782179.59249  22165071.1124   22165076.5134
 96  2 12 20 19 30.0010000  0  8 19 28 16 18 29  2 31 27
  20782373.349   -21449646.08949 -16700386.73349  20782374.7214   20782380.2364
  23763559.966   -10312041.523 9  -8027484.684 9  23763559.965    23763565.146
  24328702.132    -8554806.73849  -6648779.01649  24328704.1734   24328710.3884
  20958194.542   -11560488.89549  -8994577.70149  20958195.3784   20958200.8494
  23271475.202    11421459.23449   8904526.75049  23271477.1414   23271483.1694
  23545091.809   -12838511.61749  -9989423.76149  23545093.1294   23545099.7124
  21963109.032   -18969971.47149 -14764465.22449  21963109.8404   21963114.8074
  22153589.933   -20338506.81749 -15829189.96649  22153590.8704   22153596.1234
 96  2 12 20 20  0.0010000  0  8 19 28 16 18 29  2 31 27
  20780177.575   -21461186.84949 -16709379.52149  20780178.4604   20780184.0024
  23773294.021   -10260885.650 9  -7987622.990 9  23773294.460    23773299.861
  24323116.814    -8584169.12049  -6671658.78549  24323116.9614   24323123.4654
  20969174.000   -11502788.47949  -8949616.33849  20969175.3684   20969180.8444
  23290357.323    11520681.78549   8981842.98049  23290358.1494   23290364.2844
  23531010.042   -12912515.38549 -10047088.98149  23531010.4164   23531017.4844
  21961396.758   -18978968.23149 -14771475.67249  21961397.8964   21961402.9694
  22142126.667   -20398741.76749 -15876126.26149  22142128.1194   22142134.0134
 96  2 12 20 20 30.0010000  0  8 19 28 16 18 29  2 31 27
  20778025.122   -21472495.51149 -16718191.45349  20778026.4994   20778031.9734
  23783124.929   -10209228.597 9  -7947370.759 9  23783124.554    23783129.613
  24317628.079    -8613011.49049  -6694133.34949  24317628.0144   24317635.1664
  20980245.355   -11444614.62549  -8904286.07049  20980245.3594   20980250.9284
  23309275.832    11620106.64049   9059316.85849  23309278.9284   23309284.8164
  23516969.343   -12986296.09549 -10104580.39249  23516970.1804   23516977.0714
  21959798.264   -18987368.98749 -14778021.69949  21959799.0824   21959804.1734
  22130681.674   -20458887.97249 -15922993.40349  22130683.1134   22130688.3644
 96  2 12 20 21  0.0010000  0  8 19 28 16 18 29  2 31 27
  20775914.950   -21483587.56249 -16726834.59549  20775915.9954   20775921.3154
  23793048.050   -10157075.773 9  -7906732.214 9  23793049.202    23793054.362
  24312231.955    -8641354.14749  -6716218.53749  24312233.8294   24312240.8514
  20991404.284   -11385968.21449  -8858587.58049  20991405.2994   20991411.2344
  23328233.140    11719730.44249   9136945.74749  23328236.4964   23328243.6444
  23502970.922   -13059860.45749 -10161903.21749  23502971.9094   23502978.3674
  21958312.409   -18995176.75349 -14784105.66349  21958313.2014   21958318.0754
  22119256.066   -20518932.80649 -15969781.56549  22119256.7454   22119262.5204
 96  2 12 20 21 30.0010000  0  8 19 28 16 18 29  2 31 27
  20773845.379   -21494460.23849 -16735306.80049  20773846.5964   20773852.2914
  23803070.819   -10104407.477 9  -7865692.009 9  23803071.793    23803076.507
  24306941.943    -8669173.11349  -6737895.64849  24306941.1484   24306948.0134
  21002658.166   -11326830.61849  -8812506.35549  21002659.2624   21002664.7414
  23347238.014    11819595.15849   9214762.35349  23347240.0844   23347246.9384
  23489015.786   -13133190.12149 -10219043.16449  23489017.4254   23489024.0244
  21956946.534   -19002357.38949 -14789700.95049  21956946.7994   21956952.1684
  22107856.945   -20578831.76649 -16016456.05349  22107858.1734   22107863.7544
 96  2 12 20 22  0.0010000  0  8 19 28 16 18 29  2 31 27
  20771815.131   -21505130.27749 -16743621.10849  20771816.5454   20771821.6574
  23813190.752   -10051224.673 9  -7824250.890 9  23813191.857    23813196.863
  24301747.073    -8696460.09849  -6759158.22449  24301747.3984   24301755.8574
  21014001.193   -11267220.50249  -8766056.93449  21014002.6514   21014008.1184
  23366290.767    11919719.45749   9292781.23149  23366293.2524   23366298.9694
  23475109.596   -13206267.37149 -10275986.41749  23475110.7034   23475117.3434
  21955700.979   -19008902.81949 -14794801.28049  21955701.5424   21955706.2594
  22096487.282   -20638583.70549 -16063015.98749  22096487.7334   22096493.6244
 96  2 12 20 22 30.0010000  0  8 19 28 16 18 29  2 31 27
  20769819.180   -21515618.03449 -16751793.37849  20769820.6474   20769826.0224
  23823410.164    -9997528.064 9  -7782409.410 9  23823409.827    23823415.329
  24296652.432    -8723230.79249  -6780018.49749  24296653.6574   24296661.1834
  21025433.582   -11207144.50149  -8719244.47449  21025434.5844   21025440.1194
  23385398.016    12020119.96549   9371015.33049  23385399.5024   23385405.5004
  23461252.617   -13279092.54649 -10332733.24049  23461252.6144   23461259.9884
  21954576.173   -19014813.72149 -14799407.17249  21954576.7514   21954581.7904
  22085144.233   -20698190.04049 -16109462.46349  22085145.3234   22085150.7094
 96  2 12 20 23  0.0010000  0  8 19 28 16 18 29  2 31 27
  20767853.875   -21525947.57049 -16759842.36049  20767854.9184   20767860.1794
  23833721.921    -9943336.443 9  -7740182.204 9  23833722.415    23833727.444
  24291655.943    -8749493.33149  -6800482.81449  24291656.3784   24291663.4694
  21036953.541   -11146607.17949  -8672072.54749  21036954.1764   21036959.7124
  23404553.337    12120788.62249   9449458.37149  23404555.1124   23404561.1334
  23447437.376   -13351691.92449 -10389304.12649  23447437.1964   23447443.9404
  21953569.788   -19020102.87649 -14803528.58749  21953570.2014   21953574.9544
  22073823.731   -20757676.72049 -16155815.69749  22073825.1774   22073830.7894
 96  2 12 20 23 30.0010000  0  8 19 28 16 18 29  2 31 27
  20765921.220   -21536103.19049 -16767755.81949  20765922.3674   20765927.6344
  23844127.839    -9888648.400 9  -7697568.163 9  23844129.196    23844134.042
  24286755.095    -8775246.59949  -6820550.29449  24286756.1604   24286763.6004
  21048563.216   -11085598.99849  -8624533.71949  21048564.0004   21048569.3704
  23423762.409    12221726.47449   9528111.19449  23423763.0084   23423769.7154
  23433665.912   -13424060.66849 -10445695.28849  23433666.0654   23433672.9684
  21952682.067   -19024766.88849 -14807162.87349  21952682.5874   21952687.4394
  22062526.978   -20817046.26949 -16202077.65549  22062527.3174   22062533.0974
 96  2 12 20 24  0.0010000  0  8 19 28 16 18 29  2 31 27
  20764028.605   -21546051.42149 -16775507.68049  20764029.4714   20764034.7084
  23854630.079    -9833463.777 9  -7654567.161 9  23854630.494    23854635.178
  24281951.999    -8800491.68249  -6840221.77549  24281951.2644   24281959.1944
  21060263.580   -11024112.42949  -8576622.12749  21060264.5864   21060270.1044
  23443018.382    12322919.73549   9606963.02849  23443019.4274   23443026.6474
  23419937.123   -13496202.20149 -10501909.42249  23419938.1464   23419945.5164
  21951911.320   -19028817.12549 -14810318.89349  21951911.7974   21951916.5914
  22051248.809   -20876311.80849 -16248258.56749  22051249.6534   22051255.2964
 96  2 12 20 24 30.0010000  0  8 19 28 16 18 29  2 31 27
  20762183.467   -21555744.17049 -16783060.45949  20762184.8584   20762190.0544
  23865228.634    -9777769.679 9  -7611169.166 9  23865228.695    23865233.980
  24277247.932    -8825207.33949  -6859480.73149  24277249.0664   24277255.8044
  21072059.864   -10962122.09049  -8528317.96349  21072060.8194   21072066.4594
  23462323.493    12424367.43949   9686013.12549  23462324.6294   23462331.5214
  23406255.108   -13568107.97649 -10557939.83249  23406255.1034   23406262.1054
  21951261.076   -19032235.79049 -14812982.77349  21951261.1844   21951266.2614
  22039995.274   -20935446.36149 -16294337.41049  22039996.7614   22040002.5354
 96  2 12 20 25  0.0010000  0  8 19 28 16 18 29  2 31 27
  20760389.077   -21565176.34349 -16790410.19249  20760389.9024   20760395.1044
  23875919.196    -9721588.452 9  -7567391.592 9  23875919.820    23875924.460
  24272643.931    -8849397.03549  -6878329.83249  24272645.2684   24272652.6124
  21083948.093   -10899648.40749  -8479637.19249  21083949.0954   21083954.6724
  23481670.056    12526033.62149   9765233.44849  23481671.7874   23481677.3824
  23392612.978   -13639792.89249 -10613798.13649  23392613.1044   23392620.6584
  21950727.958   -19035038.12249 -14815166.39849  21950727.9934   21950733.1134
  22028767.336   -20994454.00549 -16340317.35849  22028768.0054   22028773.6944
 96  2 12 20 25 30.0010000  0  8 19 28 16 18 29  2 31 27
  20758646.876   -21574329.92449 -16797542.84449  20758648.1314   20758653.2894
  23886703.264    -9664919.951 9  -7523234.314 9  23886703.264    23886708.447
  24268144.894    -8873049.67149  -6896760.46349  24268144.2244   24268151.8384
  21095925.542   -10836708.18349  -8430592.87549  21095926.4204   21095932.0114
  23501057.394    12627919.78849   9844625.23249  23501059.5374   23501065.7344
  23379013.670   -13711257.11249 -10669484.48249  23379014.2814   23379020.7124
  21950309.395   -19037234.58649 -14816877.91649  21950310.2194   21950315.0064
  22017562.701   -21053330.26949 -16386194.93249  22017563.9704   22017569.4914
 96  2 12 20 26  0.0010000  0  8 19 28 16 18 29  2 31 27
  20756958.600   -21583200.28849 -16804454.80249  20756959.9994   20756965.1824
  23897580.172    -9607755.510 9  -7478690.592 9  23897581.442    23897586.631
  24263747.926    -8896147.03549  -6914758.41849  24263748.8944   24263756.2914
  21107989.320   -10773313.23649  -8381194.22449  21107990.1684   21107995.6034
  23520489.101    12730034.00449   9924194.71849  23520490.9184   23520498.3124
  23365459.059   -13782483.48949 -10724985.49949  23365460.5624   23365466.9254
  21950008.670   -19038814.56349 -14818109.05849  21950009.6854   21950014.7414
  22006386.680   -21112063.12149 -16431960.76149  22006387.8344   22006393.3734
 96  2 12 20 26 30.0010000  0  8 19 28 16 18 29  2 31 27
  20755319.404   -21591816.05449 -16811168.37649  20755320.6644   20755325.7774
  23908552.190    -9550099.234 9  -7433763.611 9  23908552.951    23908558.261
  24259459.244    -8918690.89749  -6932325.04549  24259458.9894   24259466.1654
  21120137.962   -10709470.62349  -8331446.75249  21120139.0054   21120144.4304
  23539963.060    12832365.98249  10003933.85549  23539963.7424   23539970.2244
  23351953.619   -13853461.54249 -10780293.01849  23351953.6824   23351960.4554
  21949824.860   -19039782.29549 -14818863.12249  21949825.2824   21949830.6304
  21995237.674   -21170652.36949 -16477614.69249  21995238.6064   21995243.7394
 96  2 12 20 27  0.0010000  0  8 19 28 16 18 29  2 31 27
  20753722.586   -21600207.16849 -16817706.89449  20753723.7724   20753729.1034
  23919614.684    -9491968.512 9  -7388466.924 9  23919615.017    23919620.103
  24255269.003    -8940700.97349  -6949475.75649  24255270.2194   24255278.6984
  21132369.275   -10645194.59649  -8281361.55149  21132369.9604   21132375.3974
  23559472.637    12934896.89549  10083828.01649  23559475.1004   23559482.0454
  23338489.489   -13924212.56249 -10835423.62149  23338490.3484   23338496.7394
  21949750.646   -19040168.07549 -14819163.72349  21949751.6204   21949756.7184
  21984109.327   -21229129.27749 -16523181.08749  21984110.4544   21984115.7804
 96  2 12 20 27 30.0010000  0  8 19 28 16 18 29  2 31 27
  20752169.822   -21608368.25849 -16824066.17649  20752170.7934   20752176.0824
  23930769.878    -9433351.257 9  -7342791.123 9  23930769.512    23930774.471
  24251183.371    -8962177.33749  -6966210.57749  24251184.1234   24251191.1094
  21144687.129   -10580465.06649  -8230922.96749  21144687.6624   21144693.1884
  23579024.628    13037636.55449  10163884.84349  23579025.8064   23579032.0584
  23325072.569   -13994719.44149 -10890363.99549  23325073.3824   23325079.6804
  21949791.543   -19039955.96549 -14818998.42749  21949792.2394   21949797.4624
  21973005.835   -21287480.40449 -16568649.47349  21973006.8204   21973011.9634
 96  2 12 20 28  0.0010000  0  8 19 28 16 18 29  2 31 27
  20750657.982   -21616311.46349 -16830255.67649  20750659.2364   20750664.7094
  23942015.129    -9374249.559 9  -7296737.839 9  23942016.050    23942020.687
  24247197.775    -8983135.18149  -6982541.35449  24247195.3774   24247203.6544
  21157093.582   -10515266.80349  -8180119.15149  21157094.6794   21157100.1964
  23598613.110    13140576.16649  10244097.47149  23598614.4054   23598621.2504
  23311702.456   -14064977.30149 -10945110.32649  23311703.1564   23311710.2604
  21949948.943   -19039129.56249 -14818354.46849  21949949.4854   21949954.6044
  21961925.905   -21345701.82149 -16614016.79349  21961927.7564   21961932.7994
 96  2 12 20 28 30.0010000  0  8 19 28 16 18 29  2 31 27
  20749187.197   -21624040.19449 -16836278.05449  20749188.3444   20749194.0974
  23953351.774    -9314669.638 9  -7250311.920 9  23953353.549    23953358.859
  24243303.225    -9003576.16149  -6998469.38749  24243306.0314   24243313.0494
  21169592.082   -10449583.50349  -8128937.37249  21169593.8634   21169599.5354
  23618237.478    13243707.52649  10324459.51249  23618239.5054   23618245.5664
  23298378.371   -14134996.40149 -10999670.60449  23298378.9274   23298386.0164
  21950222.808   -19037687.75949 -14817230.97049  21950223.8364   21950228.9424
  21950871.508   -21403797.67449 -16659286.26649  21950872.6244   21950877.6284
 96  2 12 20 29  0.0010000  0  8 19 28 16 18 29  2 31 27
  20747760.479   -21631537.24649 -16842119.90449  20747762.2254   20747767.3744
  23964781.452    -9254610.934 9  -7203512.916 9  23964782.623    23964787.507
  24239512.529    -9023498.74649  -7013993.46649  24239514.5694   24239521.8304
  21182184.824   -10383412.69949  -8077375.70949  21182185.7994   21182191.0144
  23637902.414    13347045.94949  10404982.90349  23637903.8994   23637910.6774
  23285098.898   -14204780.27049 -11054047.59349  23285099.7184   23285106.2964
  21950615.761   -19035619.81549 -14815619.57349  21950617.0744   21950622.0794
  21939841.059   -21461761.17649 -16704452.60549  21939842.2844   21939847.4204
 96  2 12 20 29 30.0010000  0  8 19 28 16 18 29  2 31 27
  20746377.830   -21638804.03549 -16847782.32749  20746378.8204   20746384.3904
  23976302.500    -9194073.163 9  -7156340.619 9  23976302.540    23976307.649
  24235822.453    -9042898.50149  -7029110.14149  24235823.0704   24235831.3904
  21194868.567   -10316757.20749  -8025436.37049  21194869.8764   21194875.3674
  23657609.162    13450609.05849  10485681.39049  23657611.8234   23657617.9024
  23271866.136   -14274322.18349 -11108236.05249  23271866.1154   23271872.9334
  21951131.488   -19032914.80649 -14813511.75949  21951131.9994   21951137.1524
  21928836.680   -21519589.85049 -16749513.88749  21928837.5504   21928843.2364
 96  2 12 20 30  0.0010000  0  8 19 28 16 18 29  2 31 27
  20745037.886   -21645844.04849 -16853268.04349  20745039.1154   20745044.4044
  23987912.427    -9133059.220 9  -7108797.268 9  23987912.892    23987918.051
  24232229.746    -9061773.04249  -7043817.58149  24232231.8024   24232238.1104
  21207642.534   -10249628.37949  -7973128.20949  21207644.2954   21207649.6604
  23677360.739    13554403.98749  10566560.48949  23677362.7724   23677370.3204
  23258676.285   -14343630.58149 -11162242.54349  23258677.0484   23258684.0844
  21951765.203   -19029584.62249 -14810916.79549  21951765.6674   21951770.5014
  21917853.083   -21577305.67249 -16794487.23049  21917854.7464   21917860.0414
 96  2 12 20 30 30.0010000  0  8 19 28 16 18 29  2 31 27
  20743742.599   -21652652.02949 -16858572.95449  20743743.8584   20743749.2694
  23999613.891    -9071567.044 9  -7060881.271 9  23999614.314    23999619.659
  24228740.502    -9080112.16049  -7058107.79449  24228740.6394   24228748.7424
  21220505.595   -10182033.44149  -7920456.85049  21220506.9444   21220512.5064
  23697159.165    13658435.96449  10647624.29049  23697161.2584   23697167.3584
  23245531.947   -14412706.01149 -11216067.51149  23245532.6984   23245539.0214
  21952514.938   -19025640.67849 -14807843.57249  21952516.0094   21952521.1334
  21906890.193   -21634914.16949 -16839376.94749  21906892.1264   21906897.3784
 96  2 12 20 31  0.0010000  0  9 19 28 16 18 29 12  2 31 27
  20742491.004   -21659227.59249 -16863696.76049  20742492.5704   20742497.9654
  24011405.873    -9009598.019 9  -7012593.700 9  24011406.947    24011412.070
  24225353.449    -9097914.89449  -7071980.04349  24225353.5084   24225360.4874
  21233455.519   -10113983.17849  -7867430.69249  21233456.2874   21233461.9264
  23717001.620    13762711.96249  10728878.24749  23717002.8264   23717010.5394
  24566635.465    -4272561.77519  -3310236.61319  24566637.235    24566646.955
  23232431.458   -14481549.64949 -11269711.86149  23232432.0244   23232438.5484
  21953380.770   -19021093.39749 -14804300.21249  21953381.2154   21953386.6204
  21895950.514   -21692409.21049 -16884178.25649  21895951.3604   21895956.7794
 96  2 12 20 31 30.0010000  0  9 19 28 16 18 29 12  2 31 27
  20741284.280   -21665573.25849 -16868641.42749  20741285.0574   20741290.4404
  24023289.043    -8947153.394 9  -6963935.536 9  24023289.599    24023294.540
  24222068.383    -9115185.48449  -7085437.65249  24222067.2234   24222074.3364
  21246488.357   -10045493.87649  -7814062.42349  21246489.5014   21246495.1114
  23736889.984    13867224.93549  10810316.85349  23736891.5694   23736899.2554
  24553435.891    -4341934.260 9  -3364293.061 9  24553436.087    24553445.000
  23219376.822   -14550154.75049 -11323170.33249  23219376.9494   23219383.0544
  21954360.152   -19015946.30249 -14800289.46149  21954361.1554   21954365.6644
  21885031.724   -21749786.58249 -16928887.86949  21885032.6284   21885038.2594
 96  2 12 20 32  0.0010000  0  9 19 28 16 18 29 12  2 31 27
  20740120.144   -21671687.69449 -16873405.91749  20740121.6414   20740126.8094
  24035262.745    -8884238.600 9  -6914910.998 9  24035262.100    24035266.981
  24218880.642    -9131930.08749  -7098485.38949  24218879.9314   24218888.7744
  21259602.086    -9976581.59049  -7760364.54849  21259603.2874   21259608.5564
  23756818.207    13971946.43949  10891917.95249  23756820.0454   23756826.0094
  24540262.983    -4411153.796 9  -3418230.360 9  24540264.278    24540272.772
  23206366.748   -14618519.14049 -11376441.23249  23206367.6014   23206374.2994
  21955453.585   -19010198.63949 -14795810.73749  21955454.4454   21955459.4794
  21874137.409   -21807035.20649 -16973497.16849  21874138.7954   21874144.0614
 96  2 12 20 32 30.0010000  0  9 19 28 16 18 29 12  2 31 27
  20739002.530   -21677562.50549 -16877983.68849  20739003.7464   20739008.9934
  24047320.484    -8820862.354 9  -6865526.910 9  24047321.923    24047327.405
  24215795.197    -9148147.26149  -7111122.14749  24215794.7514   24215802.6654
  21272794.134    -9907259.38749  -7706347.26649  21272794.8664   21272800.2564
  23776782.131    14076856.24949  10973665.77049  23776783.8584   23776790.0194
  24527119.181    -4480227.571 9  -3472054.053 9  24527120.216    24527128.604
  23193402.677   -14686648.57849 -11429529.05749  23193403.0794   23193409.4844
  21956664.097   -19003840.46849 -14790856.29349  21956664.4984   21956669.3594
  21863271.198   -21864138.72849 -17017993.39149  21863272.2044   21863277.4864
 96  2 12 20 33  0.0010000  0  9 19 28 16 18 29 12  2 31 27
  20737930.342   -21683194.23649 -16882372.04949  20737931.6804   20737937.1294
  24059468.278    -8757029.581 9  -6815787.086 9  24059468.967    24059474.182
  24212808.793    -9163842.17749  -7123351.94949  24212808.6714   24212815.1844
  21286063.390    -9837524.91149  -7652008.72849  21286064.4074   21286070.1504
  23796782.509    14181953.32849  11055559.52249  23796782.5014   23796789.2304
  24514001.296    -4549158.595 9  -3525766.536 9  24514002.978    24514011.568
  23180481.792   -14754546.11649 -11482436.18449  23180482.3714   23180489.1584
  21957993.029   -18996855.42449 -14785413.37949  21957993.9364   21957998.7194
  21852433.446   -21921089.26549 -17062370.41349  21852434.9204   21852440.1084
 96  2 12 20 33 30.0010000  0  9 19 28 16 18 29 12  2 31 27
  20736907.029   -21688574.78749 -16886564.67649  20736908.1304   20736913.2234
  24071702.710    -8692731.897 9  -6765684.991 9  24071704.287    24071709.903
  24209921.420    -9179009.87549  -7135170.93849  24209921.5174   24209928.9604
  21299414.933    -9767363.11449  -7597337.21749  21299416.2284   21299421.8454
  23816817.425    14287242.05049  11137602.59549  23816818.4094   23816825.2204
  24500911.945    -4617937.041 9  -3579360.101 9  24500914.243    24500922.868
  23167609.365   -14822193.65749 -11535148.50349  23167609.5904   23167616.2214
  21959447.536   -18989211.95449 -14779457.39849  21959448.0704   21959453.2174
  21841625.478   -21977885.89849 -17106627.49949  21841626.5344   21841632.0514
 96  2 12 20 34  0.0010000  0  9 19 28 16 18 29 12  2 31 27
  20735928.554   -21693716.05649 -16890570.85449  20735929.7614   20735935.1514
  24084026.899    -8627968.302 9  -6715219.872 9  24084028.292    24084033.899
  24207140.763    -9193629.84049  -7146563.10449  24207140.1574   24207147.7524
  21312852.203    -9696748.36049  -7542312.75249  21312853.9274   21312859.3314
  23836890.205    14392723.99749  11219796.22549  23836890.7484   23836898.4414
  24487854.460    -4686559.901 9  -3632832.450 9  24487856.069    24487864.466
  23154781.697   -14889600.96849 -11587673.65149  23154782.4524   23154788.7264
  21961028.079   -18980905.21949 -14772984.59349  21961029.0684   21961033.8744
  21830847.077   -22034532.09949 -17150767.37049  21830847.5394   21830852.5674
 96  2 12 20 34 30.0010000  0  9 19 28 16 18 29 12  2 31 27
  20734992.327   -21698635.94049 -16894404.52549  20734993.2514   20734998.5804
  24096437.745    -8562752.653 9  -6664402.486 9  24096438.521    24096443.937
  24204460.558    -9207710.47149  -7157535.02949  24204460.7724   24204466.8934
  21326377.382    -9625679.38549  -7486934.34649  21326377.5804   21326383.0144
  23856998.894    14498397.85349  11302139.38449  23857001.1864   23857006.7294
  24474825.749    -4755039.446 9  -3686193.149 9  24474824.543    24474833.749
  23141997.752   -14956777.22349 -11640018.75149  23141999.0964   23142005.7044
  21962730.488   -18971960.90549 -14766014.96949  21962731.2634   21962735.9534
  21820093.203   -22091039.15049 -17194798.81449  21820094.4554   21820099.6504
 96  2 12 20 35  0.0010000  0  9 19 28 16 18 29 12  2 31 27
  20734096.144   -21703344.32149 -16898073.38949  20734097.4654   20734102.7384
  24108935.472    -8497075.689 9  -6613225.651 9  24108936.564    24108941.650
  24201882.924    -9221248.87949  -7168084.44749  24201884.5904   24201890.9794
  21339990.822    -9554136.44049  -7431186.61449  21339992.0574   21339997.6104
  23877150.175    14604287.73749  11384650.90449  23877150.7634   23877157.6024
  24461821.365    -4823364.626 9  -3739433.550 9  24461823.231    24461831.133
  23129264.257   -15023696.57749 -11692163.67349  23129264.7654   23129271.2064
  21964553.907   -18962376.87049 -14758546.87149  21964554.7724   21964559.2574
  21809367.199   -22147404.63749 -17238719.94549  21809368.3644   21809373.8194
 96  2 12 20 35 30.0010000  0  9 19 28 16 18 29 12  2 31 27
  20733239.114   -21707849.14549 -16901583.63449  20733240.3654   20733245.3964
  24121520.292    -8430942.025 9  -6561692.944 9  24121521.579    24121526.470
  24199410.501    -9234246.67049  -7178212.60049  24199411.2054   24199418.1984
  21353693.158    -9482131.25749  -7375078.69749  21353693.8934   21353699.5904
  23897336.844    14710375.06249  11467316.29149  23897337.7824   23897344.7414
  24448849.006    -4891538.298 9  -3792555.907 9  24448850.127    24448858.439
  23116578.451   -15090360.35649 -11744109.44049  23116578.7974   23116585.1544
  21966493.810   -18952181.41049 -14750602.34349  21966494.8994   21966499.6894
  21798667.009   -22203634.84349 -17282535.66249  21798668.0454   21798673.5624
 96  2 12 20 36  0.0010000  0  9 19 28 16 18 29 12  2 31 27
  20732420.810   -21712149.24949 -16904934.35449  20732421.8684   20732426.9484
  24134190.369    -8364358.290 9  -6509809.541 9  24134191.913    24134197.170
  24197039.179    -9246711.59249  -7187925.53249  24197039.9114   24197045.5804
  21367481.138    -9409675.46349  -7318619.64449  21367482.0034   21367487.6454
  23917558.598    14816643.13849  11550122.50049  23917561.5454   23917567.3824
  24435903.345    -4959565.251 9  -3845563.913 9  24435904.920    24435913.161
  23103940.433   -15156772.88149 -11795859.42449  23103940.9434   23103947.8004
  21968545.019   -18941405.84749 -14742205.78849  21968545.3994   21968550.0914
  21787993.769   -22259720.45749 -17326238.70949  21787995.3394   21788000.7304
 96  2 12 20 36 30.0010000  0  9 19 28 16 18 29 12  2 31 27
  20731647.984   -21716209.56549 -16908098.22649  20731649.3734   20731654.2654
  24146948.702    -8297316.891 9  -6457569.516 9  24146949.333    24146954.325
  24194766.537    -9258655.80649  -7197232.71749  24194765.9044   24194773.4634
  21381353.900    -9336775.57749  -7261814.55049  21381354.6824   21381360.0774
  23937818.705    14923103.96349  11633078.89349  23937819.9864   23937826.6764
  24422989.279    -5027436.386 9  -3898450.497 9  24422989.195    24422998.365
  23091356.691   -15222903.54049 -11847389.77049  23091356.6954   23091363.4554
  21970709.020   -18930030.56049 -14733341.92149  21970709.8764   21970714.8374
  21777350.199   -22315655.86349 -17369824.70749  21777351.3664   21777356.5804
 96  2 12 20 37  0.0010000  0  9 19 28 16 18 29 12  2 31 27
  20730919.698   -21720038.53549 -16911081.83049  20730920.6984   20730925.7824
  24159789.617    -8229835.197 9  -6404986.407 9  24159791.011    24159795.734
  24192586.372    -9270097.18349  -7206148.08749  24192588.9714   24192595.1094
  21395306.777    -9263453.13249  -7204680.18449  21395307.3914   21395312.7154
  23958110.881    15029735.62849  11716168.42749  23958111.3694   23958117.5904
  24410099.537    -5095167.061 9  -3951227.629 9  24410100.658    24410109.470
  23078820.408   -15288780.13249 -11898722.13649  23078820.8664   23078827.8204
  21972987.172   -18918060.67349 -14724014.72449  21972988.0674   21972992.8664
  21766728.984   -22371471.02049 -17413317.01249  21766729.8944   21766735.3714
 96  2 12 20 37 30.0010000  0  9 19 28 16 18 29 12  2 31 27
  20730240.437   -21723608.48949 -16913863.60449  20730241.1944   20730246.5574
  24172716.212    -8161906.425 9  -6352054.911 9  24172717.448    24172722.134
  24190510.053    -9281021.78749  -7214660.77349  24190509.1754   24190517.8734
  21409340.387    -9189705.16149  -7147214.25249  21409340.9864   21409346.5294
  23978433.065    15136532.78949  11799386.91449  23978433.8354   23978440.1094
  24397239.136    -5162748.675 9  -4003888.607 9  24397240.207    24397249.467
  23066333.516   -15354400.24349 -11949854.65549  23066334.1504   23066340.3084
  21975380.480   -18905484.67949 -14714215.24549  21975381.0104   21975385.8404
  21756134.468   -22427146.82749 -17456700.72949  21756135.0804   21756140.3984
 96  2 12 20 38  0.0010000  0  9 19 28 16 18 29 12  2 31 27
  20729609.381   -21726921.20049 -16916444.92949  20729610.8284   20729615.7914
  24185724.963    -8093542.204 9  -6298784.111 9  24185726.565    24185731.681
  24188527.803    -9291437.07649  -7222776.59849  24188527.6984   24188535.7384
  21423452.625    -9115544.47749  -7089426.72649  21423453.3324   21423458.7774
  23998787.463    15243497.42049  11882735.91249  23998788.2534   23998795.4634
  24384404.300    -5230191.108 9  -4056441.129 9  24384406.342    24384415.515
  23053893.081   -15419774.92349 -12000795.91849  23053893.4524   23053899.8084
  21977892.110   -18892284.31349 -14703929.23349  21977892.8574   21977897.9014
  21745563.614   -22482694.02149 -17499984.22549  21745564.6134   21745569.9014
 96  2 12 20 38 30.0010000  0  9 19 28 16 18 29 12  2 31 27
  20729030.888   -21729965.82849 -16918817.35549  20729031.3584   20729036.7974
  24198818.331    -8024740.651 9  -6245172.538 9  24198818.739    24198823.813
  24186645.276    -9301329.88849  -7230485.29449  24186645.7464   24186651.6474
  21437643.682    -9040969.30949  -7031316.22249  21437644.3114   21437650.2614
  24019176.400    15350641.38549  11966224.66549  24019178.0514   24019183.6464
  24371598.201    -5297490.788 9  -4108882.413 9  24371599.373    24371608.599
  23041497.301   -15484916.69849 -12051555.70149  23041497.2004   23041503.6004
  21980525.918   -18878445.28049 -14693145.55949  21980526.4654   21980531.1354
  21735015.363   -22538125.72449 -17543177.73349  21735016.4054   21735022.0194
 96  2 12 20 39  0.0010000  0  9 19 28 16 18 29 12  2 31 27
  20728501.603   -21732744.30949 -16920982.40049  20728502.5404   20728507.9734
  24211996.417    -7955490.601 9  -6191211.492 9  24211996.843    24212002.009
  24184869.105    -9310666.11849  -7237760.28749  24184868.8784   24184875.1834
  21451917.226    -8965959.12049  -6972866.73649  21451918.5314   21451923.8504
  24039598.296    15457968.02749  12049855.74749  24039601.3574   24039608.7774
  24358821.340    -5364634.385 9  -4161202.074 9  24358822.184    24358831.616
  23029143.198   -15549834.55549 -12102141.00149  23029144.0504   23029150.0324
  21983281.155   -18863968.33549 -14681864.81549  21983281.2154   21983286.2564
  21724493.096   -22593419.96549 -17586264.12949  21724494.1034   21724499.6404
 96  2 12 20 39 30.0010000  0  9 19 28 16 18 29 12  2 31 27
  20728021.554   -21735271.25249 -16922951.44049  20728021.9074   20728027.0184
  24225256.532    -7885803.795 9  -6136910.135 9  24225258.039    24225263.254
  24183194.731    -9319457.36549  -7244610.62049  24183195.8054   24183203.5254
  21466273.088    -8890523.57049  -6914085.81149  21466273.0544   21466278.7864
  24060057.829    15565469.73749  12133623.24049  24060058.4774   24060065.1364
  24346073.273    -5431632.054 9  -4213408.038 9  24346073.120    24346081.885
  23016832.277   -15614530.66249 -12152553.51249  23016832.8014   23016838.9104
  21986153.777   -18848868.43349 -14670098.65149  21986154.6554   21986159.3354
  21713996.857   -22648578.96149 -17629245.14449  21713997.8984   21714003.1834
 96  2 12 20 40  0.0010000  0  9 19 28 16 18 29 12  2 31 27
  20727585.231   -21737562.88049 -16924737.11549  20727585.8264   20727591.0494
  24238599.587    -7815689.739 9  -6082275.856 9  24238599.998    24238605.381
  24181624.022    -9327708.92449  -7251040.42549  24181625.8854   24181632.5734
  21480707.014    -8814668.11149  -6854977.68149  21480708.0474   21480713.4274
  24080545.039    15673135.24049  12217518.34949  24080546.1904   24080552.8404
  24333349.184    -5498491.385 9  -4265506.203 9  24333350.321    24333359.235
  23004559.209   -15679022.21849 -12202806.62749  23004560.1804   23004566.7774
  21989142.534   -18833164.24049 -14657861.61149  21989142.9734   21989147.7534
  21703520.896   -22703633.15749 -17672144.49349  21703521.2674   21703526.3924
 96  2 12 20 40 30.0010000  0  9 19 28 16 18 29 12  2 31 27
  20727192.763   -21739624.99149 -16926343.94549  20727193.4524   20727198.6854
  24252023.033    -7745148.241 9  -6027308.515 9  24252023.958    24252029.097
  24180157.373    -9335415.24849  -7257045.35549  24180160.1704   24180166.8414
  21495224.408    -8738383.14549  -6795534.86349  21495224.8714   21495230.2424
  24101063.283    15780963.04149  12301539.96449  24101064.9124   24101072.2184
  24320652.057    -5565210.296 9  -4317494.945 9  24320654.338    24320663.516
  22992329.875   -15743293.23749 -12252887.89249  22992329.6304   22992335.9264
  21992244.187   -18816865.79049 -14645161.51449  21992244.5114   21992249.1174
  21693066.441   -22758568.07449 -17714950.90149  21693067.4034   21693073.0524
 96  2 12 20 41  0.0010000  0  9 19 28 16 18 29 12  2 31 27
  20726843.450   -21741459.26249 -16927773.23949  20726844.5614   20726849.6454
  24265528.544    -7674175.032 9  -5972004.775 9  24265529.982    24265535.154
  24178792.549    -9342586.81749  -7262633.61749  24178795.8414   24178802.1994
  21509823.699    -8661660.58049  -6735751.06249  21509824.5844   21509830.1454
  24121612.910    15888953.16849  12385688.05349  24121614.1234   24121621.6314
  24307986.127    -5631782.774 9  -4369369.571 9  24307985.860    24307994.939
  22980145.596   -15807318.04149 -12302777.31549  22980146.1774   22980152.5854
  21995459.624   -18799967.40949 -14631993.94549  21995459.8584   21995464.8734
  21682642.023   -22813348.82349 -17757637.18149  21682643.3074   21682648.6354
 96  2 12 20 41 30.0010000  0  9 19 28 16 18 29 12  2 31 27
  20726540.103   -21743050.01149 -16929012.78049  20726541.6254   20726547.0264
  24279116.200    -7602773.806 9  -5916367.514 9  24279116.907    24279122.496
  24177527.443    -9349237.66649  -7267816.11749  24177528.7154   24177536.2764
  21524505.392    -8584510.35149  -6675634.01549  21524506.0224   21524511.3744
  24142195.654    15997109.21549  12469965.40249  24142196.9304   24142203.4674
  24295343.737    -5698210.596 9  -4421131.478 9  24295345.149    24295354.167
  22968011.280   -15871085.78449 -12352466.43249  22968011.3724   22968017.8014
  21998790.708   -18782461.98249 -14618353.35349  21998791.2344   21998795.9414
  21672249.118   -22867965.06249 -17800195.27149  21672250.0184   21672255.1934
 96  2 12 20 42  0.0010000  0  9 19 28 16 18 29 12  2 31 27
  20726287.512   -21744380.04049 -16930049.15949  20726288.6484   20726293.8544
  24292785.865    -7530943.708 9  -5860396.062 9  24292785.843    24292791.089
  24176364.148    -9355358.50149  -7272585.61249  24176364.4064   24176369.3404
  21539267.258    -8506934.76949  -6615185.52649  21539268.2154   21539273.6094
  24162811.000    16105437.13549  12554376.67949  24162810.3814   24162817.6344
  24282730.404    -5764490.922 9  -4472778.420 9  24282732.051    24282741.084
  22955925.360   -15934592.66249 -12401952.27549  22955926.4134   22955932.9054
  22002239.299   -18764338.81049 -14604231.40149  22002240.3944   22002245.1244
  21661890.315   -22922398.78449 -17842611.13549  21661891.5314   21661896.9614
 96  2 12 20 42 30.0010000  0  9 19 28 16 18 29 12  2 31 27
  20726082.531   -21745458.22349 -16930889.30349  20726083.2604   20726088.3214
  24306532.928    -7458695.927 9  -5804099.146 9  24306534.113    24306539.702
  24175299.788    -9360964.32949  -7276953.79949  24175297.7094   24175303.9724
  21554107.334    -8428949.97049  -6554418.17249  21554108.1674   21554113.2934
  24183454.275    16213940.09749  12638924.34649  24183457.9994   24183465.0774
  24270144.966    -5830633.149 9  -4524317.747 9  24270145.916    24270154.963
  22943891.478   -15997836.49049 -12451233.14549  22943891.7524   22943898.2634
  22005805.871   -18745598.82349 -14589628.82049  22005805.8944   22005810.8664
  21651569.484   -22976636.30649 -17884874.12149  21651570.3874   21651575.8944
 96  2 12 20 43  0.0010000  0  9 19 28 16 18 29 12  2 31 27
  20725925.189   -21746281.66349 -16931530.94449  20725926.7614   20725931.9514
  24320361.763    -7386029.741 9  -5747476.202 9  24320362.031    24320367.208
  24174327.006    -9366062.49349  -7280926.41449  24174327.0484   24174334.4154
  21569022.405    -8350567.80849  -6493341.17949  21569023.3794   21569029.0154
  24204134.408    16322611.68349  12723603.41349  24204136.9764   24204144.7144
  24257585.121    -5896634.566 9  -4575747.310 9  24257585.962    24257595.328
  22931904.846   -16060824.01549 -12500314.30249  22931905.3614   22931912.1684
  22009488.257   -18726246.65849 -14574549.21849  22009489.0384   22009493.6064
  21641283.325   -23030690.06249 -17926993.91349  21641284.3014   21641289.6864
 96  2 12 20 43 30.0010000  0  9 19 28 16 18 29 12  2 31 27
  20725815.051   -21746863.98749 -16931984.70149  20725815.8244   20725820.9974
  24334266.790    -7312959.248 9  -5690538.196 9  24334267.221    24334272.564
  24173454.615    -9370649.28349  -7284500.54449  24173454.0494   24173460.9764
  21584010.673    -8271808.10249  -6431969.98149  21584011.2784   21584016.4284
  24224845.742    16431437.82149  12808402.89849  24224846.5714   24224853.6554
  24245051.298    -5962507.383 9  -4627076.664 9  24245050.882    24245059.779
  22919966.458   -16123563.98549 -12549202.54649  22919966.7654   22919973.2064
  22013286.939   -18706284.30149 -14558994.13549  22013287.4774   22013292.0644
  21631025.410   -23084598.46449 -17969000.44449  21631025.9094   21631031.2534
 96  2 12 20 44  0.0010000  0  9 19 28 16 18 29 12  2 31 27
  20725749.393   -21747207.97749 -16932252.74349  20725750.3284   20725755.3764
  24348250.788    -7239472.782 9  -5633276.055 9  24348251.062    24348256.200
  24172680.991    -9374713.63249  -7287667.58449  24172681.4204   24172688.0294
  21599070.817    -8192663.91549  -6370299.18749  21599071.4634   21599077.0544
  24245586.246    16540424.43349  12893327.42849  24245586.2114   24245592.8244
  24232542.980    -6028238.121 9  -4678295.306 9  24232542.352    24232551.695
  22908077.153   -16186037.60849 -12597883.25249  22908078.2044   22908084.4034
  22017203.476   -18685703.38049 -14542957.05749  22017203.8314   22017208.8494
  21620793.328   -23138368.14849 -18010898.88349  21620793.9404   21620799.0494
 96  2 12 20 44 30.0010000  0  9 19 28 16 18 29 12  2 31 27
  20725724.357   -21747340.57749 -16932356.07149  20725725.3834   20725730.2724
  24362312.731    -7165575.967 9  -5575694.135 9  24362313.325    24362318.760
  24172003.608    -9378277.12749  -7290444.36949  24172003.4434   24172011.3004
  21614204.102    -8113140.65649  -6308333.01649  21614204.4284   21614210.1944
  24266350.897    16649552.08349  12978361.86149  24266352.4144   24266360.1884
  24220060.072    -6093830.314 9  -4729406.003 9  24220060.627    24220069.679
  22896239.757   -16248245.09249 -12646356.57849  22896240.1804   22896246.8324
  22021235.808   -18664512.45149 -14526444.65049  22021236.5164   22021241.0974
  21610585.320   -23192011.58649 -18052698.95349  21610585.9904   21610591.3844
 96  2 12 20 45  0.0010000  0  9 19 28 16 18 29 12  2 31 27
  20725740.435   -21747256.39649 -16932290.47649  20725741.1154   20725746.3554
  24376451.800    -7091277.062 9  -5517798.890 9  24376451.974    24376457.210
  24171416.871    -9381349.73449  -7292838.61249  24171417.8554   24171425.8844
  21629408.846    -8033239.69149  -6246072.52649  21629409.5094   21629415.0064
  24287140.071    16758796.78049  13063487.49549  24287141.5784   24287148.4814
  24207603.359    -6159290.400 9  -4780413.753 9  24207603.869    24207612.792
  22884451.056   -16310200.69049 -12694633.62349  22884450.6624   22884457.1204
  22025385.625   -18642708.36549 -14509454.46549  22025385.6314   22025390.3514
  21600399.807   -23245536.72349 -18094406.83849  21600400.7564   21600405.7854
 96  2 12 20 45 30.0010000  0  9 19 28 16 18 29 12  2 31 27
  20725797.628   -21746956.77449 -16932057.00249  20725798.2114   20725803.5084
  24390665.612    -7016581.668 9  -5459594.684 9  24390665.885    24390670.820
  24170928.281    -9383925.89849  -7294846.02449  24170928.6694   24170934.3574
  21644687.253    -7952948.05649  -6183507.60749  21644688.1134   21644693.7764
  24307951.721    16868162.08749  13148707.10549  24307952.7994   24307960.5474
  24195172.000    -6224622.162 9  -4831321.509 9  24195171.444    24195180.735
  22872706.072   -16371915.78049 -12742723.26349  22872706.6104   22872712.7764
  22029652.069   -18620283.97449 -14491980.91649  22029652.6974   22029657.3824
  21590239.619   -23298928.16649 -18136010.54349  21590240.3524   21590245.6214
 96  2 12 20 46  0.0010000  0  9 19 28 16 18 29 12  2 31 27
  20725895.890   -21746436.76949 -16931651.80649  20725897.0304   20725902.2224
  24404956.195    -6941485.135 9  -5401077.884 9  24404956.015    24404961.548
  24170532.278    -9386002.70149  -7296464.33849  24170532.9564   24170540.3884
  21660044.825    -7872245.61049  -6120622.57749  21660045.4564   21660050.8324
  24328788.519    16977657.35149  13234028.00849  24328789.6764   24328797.3724
  24182763.563    -6289818.861 9  -4882124.038 9  24182765.103    24182774.367
  22861006.113   -16433400.12149 -12790633.09849  22861006.7624   22861012.8764
  22034033.419   -18597263.44049 -14474042.84449  22034033.7294   22034038.3184
  21580109.440   -23352163.07149 -18177492.26849  21580110.0564   21580115.3804
 96  2 12 20 46 30.0010000  0  9 19 28 16 18 29 12  2 31 27
  20726038.061   -21745692.98549 -16931072.23149  20726038.8824   20726043.7174
  24419320.980    -6865997.268 9  -5342256.149 9  24419321.039    24419326.485
  24170233.930    -9387569.37049  -7297685.11749  24170234.2014   24170243.0214
  21675479.537    -7791131.19249  -6057416.53949  21675480.9214   21675486.5514
  24349646.211    17087272.81949  13319442.55249  24349648.3724   24349654.8584
  24170380.937    -6354888.306 9  -4932827.418 9  24170382.859    24170391.196
  22849348.228   -16494665.79649 -12838372.54649  22849348.1844   22849354.4204
  22038526.188   -18573649.95949 -14455642.73149  22038527.1394   22038531.7004
  21570011.315   -23405229.38749 -18218842.62549  21570012.0744   21570017.2554
